<?xml version="1.0" encoding="UTF-8" standalone="no" ?>
<gpx xmlns="http://www.topografix.com/GPX/1/1" xmlns:xsi="http://www.w3.org/2001/XMLSchema-instance" xsi:schemaLocation="http://www.topografix.com/GPX/1/1 http://www.topografix.com/GPX/1/1/gpx.xsd" version="1.1" creator="VisuGPX - https://www.visugpx.com">
  <metadata>
    <name>LE MUY LA COLLE DU ROUET</name>
    <desc><![CDATA[Départ du parking des corbières, nous traversons la D47 pour emprunter la piste de Palayson puis nous bifurquons à gauche et rejoignons la piste du troue de la Jarre que nous remontons vers le Catchéou, retraversons le D47 vers la Péguière et rejoignons le parking par la piste des Corbières.]]></desc>
  </metadata>
  <trk>
    <name><![CDATA[Tracé actuel: 29 JAN 2019 10:24]]></name>
    <trkseg>
      <trkpt lat="43.50765" lon="6.59995">
        <ele>31.38</ele>
        <time>2019-01-29T09:24:58Z</time>
      </trkpt>
      <trkpt lat="43.50765" lon="6.59994">
        <ele>30.9</ele>
        <time>2019-01-29T09:24:59Z</time>
      </trkpt>
      <trkpt lat="43.50765" lon="6.59986">
        <ele>28.02</ele>
        <time>2019-01-29T09:25:11Z</time>
      </trkpt>
      <trkpt lat="43.50764" lon="6.59986">
        <ele>34.26</ele>
        <time>2019-01-29T09:25:12Z</time>
      </trkpt>
      <trkpt lat="43.50768" lon="6.5998">
        <ele>27.53</ele>
        <time>2019-01-29T09:25:25Z</time>
      </trkpt>
      <trkpt lat="43.50769" lon="6.59979">
        <ele>33.78</ele>
        <time>2019-01-29T09:25:26Z</time>
      </trkpt>
      <trkpt lat="43.50769" lon="6.59979">
        <ele>30.9</ele>
        <time>2019-01-29T09:25:27Z</time>
      </trkpt>
      <trkpt lat="43.50769" lon="6.59979">
        <ele>26.57</ele>
        <time>2019-01-29T09:25:31Z</time>
      </trkpt>
      <trkpt lat="43.50769" lon="6.59979">
        <ele>36.19</ele>
        <time>2019-01-29T09:25:32Z</time>
      </trkpt>
      <trkpt lat="43.50769" lon="6.59979">
        <ele>31.86</ele>
        <time>2019-01-29T09:25:33Z</time>
      </trkpt>
      <trkpt lat="43.50764" lon="6.59981">
        <ele>31.38</ele>
        <time>2019-01-29T09:25:41Z</time>
      </trkpt>
      <trkpt lat="43.50764" lon="6.59982">
        <ele>31.38</ele>
        <time>2019-01-29T09:25:53Z</time>
      </trkpt>
      <trkpt lat="43.50762" lon="6.59984">
        <ele>35.23</ele>
        <time>2019-01-29T09:26:01Z</time>
      </trkpt>
      <trkpt lat="43.50762" lon="6.59985">
        <ele>39.07</ele>
        <time>2019-01-29T09:26:04Z</time>
      </trkpt>
      <trkpt lat="43.50762" lon="6.59986">
        <ele>42.44</ele>
        <time>2019-01-29T09:26:07Z</time>
      </trkpt>
      <trkpt lat="43.50763" lon="6.59986">
        <ele>46.28</ele>
        <time>2019-01-29T09:26:11Z</time>
      </trkpt>
      <trkpt lat="43.50763" lon="6.59984">
        <ele>50.13</ele>
        <time>2019-01-29T09:26:15Z</time>
      </trkpt>
      <trkpt lat="43.50763" lon="6.59984">
        <ele>53.01</ele>
        <time>2019-01-29T09:26:20Z</time>
      </trkpt>
      <trkpt lat="43.50763" lon="6.59984">
        <ele>56.37</ele>
        <time>2019-01-29T09:26:24Z</time>
      </trkpt>
      <trkpt lat="43.50764" lon="6.59985">
        <ele>59.74</ele>
        <time>2019-01-29T09:26:29Z</time>
      </trkpt>
      <trkpt lat="43.50767" lon="6.59986">
        <ele>63.1</ele>
        <time>2019-01-29T09:26:35Z</time>
      </trkpt>
      <trkpt lat="43.50767" lon="6.59986">
        <ele>65.99</ele>
        <time>2019-01-29T09:26:43Z</time>
      </trkpt>
      <trkpt lat="43.50767" lon="6.59986">
        <ele>68.87</ele>
        <time>2019-01-29T09:26:53Z</time>
      </trkpt>
      <trkpt lat="43.50767" lon="6.59986">
        <ele>70.31</ele>
        <time>2019-01-29T09:27:02Z</time>
      </trkpt>
      <trkpt lat="43.50767" lon="6.59985">
        <ele>71.76</ele>
        <time>2019-01-29T09:27:14Z</time>
      </trkpt>
      <trkpt lat="43.50767" lon="6.59987">
        <ele>71.76</ele>
        <time>2019-01-29T09:27:31Z</time>
      </trkpt>
      <trkpt lat="43.50767" lon="6.59987">
        <ele>71.76</ele>
        <time>2019-01-29T09:27:37Z</time>
      </trkpt>
      <trkpt lat="43.5076" lon="6.59986">
        <ele>71.76</ele>
        <time>2019-01-29T09:27:49Z</time>
      </trkpt>
      <trkpt lat="43.50759" lon="6.59986">
        <ele>71.76</ele>
        <time>2019-01-29T09:28:09Z</time>
      </trkpt>
      <trkpt lat="43.5076" lon="6.59984">
        <ele>72.24</ele>
        <time>2019-01-29T09:28:19Z</time>
      </trkpt>
      <trkpt lat="43.50765" lon="6.59983">
        <ele>72.24</ele>
        <time>2019-01-29T09:28:29Z</time>
      </trkpt>
      <trkpt lat="43.50767" lon="6.59983">
        <ele>72.24</ele>
        <time>2019-01-29T09:28:39Z</time>
      </trkpt>
      <trkpt lat="43.50768" lon="6.59981">
        <ele>72.24</ele>
        <time>2019-01-29T09:29:01Z</time>
      </trkpt>
      <trkpt lat="43.50767" lon="6.5998">
        <ele>72.24</ele>
        <time>2019-01-29T09:29:14Z</time>
      </trkpt>
      <trkpt lat="43.50767" lon="6.5998">
        <ele>72.24</ele>
        <time>2019-01-29T09:29:31Z</time>
      </trkpt>
      <trkpt lat="43.50767" lon="6.59981">
        <ele>72.24</ele>
        <time>2019-01-29T09:29:48Z</time>
      </trkpt>
      <trkpt lat="43.50764" lon="6.59982">
        <ele>72.24</ele>
        <time>2019-01-29T09:30:01Z</time>
      </trkpt>
      <trkpt lat="43.50755" lon="6.59985">
        <ele>71.76</ele>
        <time>2019-01-29T09:30:11Z</time>
      </trkpt>
      <trkpt lat="43.50753" lon="6.59986">
        <ele>71.76</ele>
        <time>2019-01-29T09:30:23Z</time>
      </trkpt>
      <trkpt lat="43.50753" lon="6.59985">
        <ele>71.76</ele>
        <time>2019-01-29T09:30:36Z</time>
      </trkpt>
      <trkpt lat="43.50754" lon="6.59984">
        <ele>72.24</ele>
        <time>2019-01-29T09:30:58Z</time>
      </trkpt>
      <trkpt lat="43.50753" lon="6.59985">
        <ele>71.76</ele>
        <time>2019-01-29T09:31:13Z</time>
      </trkpt>
      <trkpt lat="43.50754" lon="6.59983">
        <ele>71.76</ele>
        <time>2019-01-29T09:31:27Z</time>
      </trkpt>
      <trkpt lat="43.50758" lon="6.59983">
        <ele>71.76</ele>
        <time>2019-01-29T09:31:39Z</time>
      </trkpt>
      <trkpt lat="43.50762" lon="6.59984">
        <ele>71.76</ele>
        <time>2019-01-29T09:31:53Z</time>
      </trkpt>
      <trkpt lat="43.50762" lon="6.59984">
        <ele>71.76</ele>
        <time>2019-01-29T09:32:08Z</time>
      </trkpt>
      <trkpt lat="43.50762" lon="6.59983">
        <ele>71.76</ele>
        <time>2019-01-29T09:32:22Z</time>
      </trkpt>
      <trkpt lat="43.50756" lon="6.59981">
        <ele>71.27</ele>
        <time>2019-01-29T09:32:32Z</time>
      </trkpt>
      <trkpt lat="43.5075" lon="6.5998">
        <ele>71.27</ele>
        <time>2019-01-29T09:32:39Z</time>
      </trkpt>
      <trkpt lat="43.50736" lon="6.59977">
        <ele>70.79</ele>
        <time>2019-01-29T09:32:51Z</time>
      </trkpt>
      <trkpt lat="43.50735" lon="6.59977">
        <ele>70.79</ele>
        <time>2019-01-29T09:32:52Z</time>
      </trkpt>
      <trkpt lat="43.50731" lon="6.59977">
        <ele>70.79</ele>
        <time>2019-01-29T09:32:55Z</time>
      </trkpt>
      <trkpt lat="43.50725" lon="6.59977">
        <ele>70.79</ele>
        <time>2019-01-29T09:33:00Z</time>
      </trkpt>
      <trkpt lat="43.50716" lon="6.59979">
        <ele>70.31</ele>
        <time>2019-01-29T09:33:10Z</time>
      </trkpt>
      <trkpt lat="43.50708" lon="6.59977">
        <ele>70.31</ele>
        <time>2019-01-29T09:33:18Z</time>
      </trkpt>
      <trkpt lat="43.507" lon="6.59976">
        <ele>70.79</ele>
        <time>2019-01-29T09:33:27Z</time>
      </trkpt>
      <trkpt lat="43.50691" lon="6.5998">
        <ele>71.76</ele>
        <time>2019-01-29T09:33:38Z</time>
      </trkpt>
      <trkpt lat="43.5068" lon="6.59989">
        <ele>72.24</ele>
        <time>2019-01-29T09:33:49Z</time>
      </trkpt>
      <trkpt lat="43.50673" lon="6.59999">
        <ele>73.2</ele>
        <time>2019-01-29T09:34:00Z</time>
      </trkpt>
      <trkpt lat="43.50666" lon="6.60012">
        <ele>73.68</ele>
        <time>2019-01-29T09:34:13Z</time>
      </trkpt>
      <trkpt lat="43.50662" lon="6.60022">
        <ele>74.16</ele>
        <time>2019-01-29T09:34:25Z</time>
      </trkpt>
      <trkpt lat="43.50656" lon="6.60033">
        <ele>75.6</ele>
        <time>2019-01-29T09:34:37Z</time>
      </trkpt>
      <trkpt lat="43.50653" lon="6.60037">
        <ele>75.6</ele>
        <time>2019-01-29T09:34:39Z</time>
      </trkpt>
      <trkpt lat="43.50642" lon="6.60051">
        <ele>76.08</ele>
        <time>2019-01-29T09:34:51Z</time>
      </trkpt>
      <trkpt lat="43.50635" lon="6.60062">
        <ele>77.04</ele>
        <time>2019-01-29T09:35:01Z</time>
      </trkpt>
      <trkpt lat="43.50628" lon="6.60072">
        <ele>77.52</ele>
        <time>2019-01-29T09:35:12Z</time>
      </trkpt>
      <trkpt lat="43.5062" lon="6.60083">
        <ele>78.48</ele>
        <time>2019-01-29T09:35:24Z</time>
      </trkpt>
      <trkpt lat="43.50611" lon="6.60098">
        <ele>78.97</ele>
        <time>2019-01-29T09:35:38Z</time>
      </trkpt>
      <trkpt lat="43.50605" lon="6.6011">
        <ele>79.45</ele>
        <time>2019-01-29T09:35:48Z</time>
      </trkpt>
      <trkpt lat="43.50596" lon="6.60123">
        <ele>79.93</ele>
        <time>2019-01-29T09:36:00Z</time>
      </trkpt>
      <trkpt lat="43.50588" lon="6.60132">
        <ele>80.41</ele>
        <time>2019-01-29T09:36:11Z</time>
      </trkpt>
      <trkpt lat="43.50582" lon="6.60141">
        <ele>80.41</ele>
        <time>2019-01-29T09:36:22Z</time>
      </trkpt>
      <trkpt lat="43.50579" lon="6.60145">
        <ele>80.41</ele>
        <time>2019-01-29T09:36:26Z</time>
      </trkpt>
      <trkpt lat="43.50571" lon="6.60158">
        <ele>80.41</ele>
        <time>2019-01-29T09:36:38Z</time>
      </trkpt>
      <trkpt lat="43.50568" lon="6.60161">
        <ele>80.41</ele>
        <time>2019-01-29T09:36:42Z</time>
      </trkpt>
      <trkpt lat="43.50559" lon="6.60175">
        <ele>79.93</ele>
        <time>2019-01-29T09:36:55Z</time>
      </trkpt>
      <trkpt lat="43.5055" lon="6.60183">
        <ele>79.93</ele>
        <time>2019-01-29T09:37:05Z</time>
      </trkpt>
      <trkpt lat="43.50541" lon="6.60191">
        <ele>79.93</ele>
        <time>2019-01-29T09:37:15Z</time>
      </trkpt>
      <trkpt lat="43.5053" lon="6.60201">
        <ele>80.41</ele>
        <time>2019-01-29T09:37:25Z</time>
      </trkpt>
      <trkpt lat="43.50521" lon="6.60209">
        <ele>80.41</ele>
        <time>2019-01-29T09:37:36Z</time>
      </trkpt>
      <trkpt lat="43.50517" lon="6.60212">
        <ele>80.41</ele>
        <time>2019-01-29T09:37:40Z</time>
      </trkpt>
      <trkpt lat="43.50502" lon="6.6022">
        <ele>79.93</ele>
        <time>2019-01-29T09:37:52Z</time>
      </trkpt>
      <trkpt lat="43.50491" lon="6.60228">
        <ele>79.45</ele>
        <time>2019-01-29T09:38:04Z</time>
      </trkpt>
      <trkpt lat="43.50475" lon="6.6024">
        <ele>78.97</ele>
        <time>2019-01-29T09:38:19Z</time>
      </trkpt>
      <trkpt lat="43.50464" lon="6.60246">
        <ele>78.48</ele>
        <time>2019-01-29T09:38:31Z</time>
      </trkpt>
      <trkpt lat="43.50453" lon="6.60255">
        <ele>77.52</ele>
        <time>2019-01-29T09:38:43Z</time>
      </trkpt>
      <trkpt lat="43.50444" lon="6.60261">
        <ele>77.52</ele>
        <time>2019-01-29T09:38:54Z</time>
      </trkpt>
      <trkpt lat="43.50434" lon="6.60267">
        <ele>75.6</ele>
        <time>2019-01-29T09:39:05Z</time>
      </trkpt>
      <trkpt lat="43.50422" lon="6.60275">
        <ele>75.12</ele>
        <time>2019-01-29T09:39:16Z</time>
      </trkpt>
      <trkpt lat="43.5041" lon="6.60283">
        <ele>74.16</ele>
        <time>2019-01-29T09:39:29Z</time>
      </trkpt>
      <trkpt lat="43.50399" lon="6.60291">
        <ele>72.72</ele>
        <time>2019-01-29T09:39:40Z</time>
      </trkpt>
      <trkpt lat="43.5039" lon="6.60298">
        <ele>72.24</ele>
        <time>2019-01-29T09:39:52Z</time>
      </trkpt>
      <trkpt lat="43.50386" lon="6.60301">
        <ele>71.76</ele>
        <time>2019-01-29T09:39:58Z</time>
      </trkpt>
      <trkpt lat="43.50375" lon="6.60308">
        <ele>70.79</ele>
        <time>2019-01-29T09:40:10Z</time>
      </trkpt>
      <trkpt lat="43.50366" lon="6.60316">
        <ele>70.31</ele>
        <time>2019-01-29T09:40:21Z</time>
      </trkpt>
      <trkpt lat="43.50361" lon="6.60319">
        <ele>69.83</ele>
        <time>2019-01-29T09:40:25Z</time>
      </trkpt>
      <trkpt lat="43.50348" lon="6.60328">
        <ele>69.35</ele>
        <time>2019-01-29T09:40:36Z</time>
      </trkpt>
      <trkpt lat="43.50347" lon="6.60329">
        <ele>69.35</ele>
        <time>2019-01-29T09:40:37Z</time>
      </trkpt>
      <trkpt lat="43.50344" lon="6.60331">
        <ele>69.35</ele>
        <time>2019-01-29T09:40:39Z</time>
      </trkpt>
      <trkpt lat="43.50329" lon="6.60337">
        <ele>68.87</ele>
        <time>2019-01-29T09:40:53Z</time>
      </trkpt>
      <trkpt lat="43.50318" lon="6.60343">
        <ele>68.87</ele>
        <time>2019-01-29T09:41:04Z</time>
      </trkpt>
      <trkpt lat="43.50305" lon="6.60347">
        <ele>68.87</ele>
        <time>2019-01-29T09:41:16Z</time>
      </trkpt>
      <trkpt lat="43.50292" lon="6.60354">
        <ele>68.39</ele>
        <time>2019-01-29T09:41:28Z</time>
      </trkpt>
      <trkpt lat="43.50276" lon="6.60359">
        <ele>68.39</ele>
        <time>2019-01-29T09:41:43Z</time>
      </trkpt>
      <trkpt lat="43.50266" lon="6.60361">
        <ele>68.39</ele>
        <time>2019-01-29T09:41:54Z</time>
      </trkpt>
      <trkpt lat="43.50254" lon="6.60363">
        <ele>68.39</ele>
        <time>2019-01-29T09:42:05Z</time>
      </trkpt>
      <trkpt lat="43.5025" lon="6.60364">
        <ele>68.39</ele>
        <time>2019-01-29T09:42:09Z</time>
      </trkpt>
      <trkpt lat="43.50234" lon="6.60373">
        <ele>68.39</ele>
        <time>2019-01-29T09:42:22Z</time>
      </trkpt>
      <trkpt lat="43.50224" lon="6.6038">
        <ele>68.39</ele>
        <time>2019-01-29T09:42:33Z</time>
      </trkpt>
      <trkpt lat="43.50219" lon="6.60382">
        <ele>68.39</ele>
        <time>2019-01-29T09:42:37Z</time>
      </trkpt>
      <trkpt lat="43.50217" lon="6.60386">
        <ele>68.39</ele>
        <time>2019-01-29T09:42:40Z</time>
      </trkpt>
      <trkpt lat="43.50206" lon="6.60393">
        <ele>67.91</ele>
        <time>2019-01-29T09:42:52Z</time>
      </trkpt>
      <trkpt lat="43.50197" lon="6.604">
        <ele>67.91</ele>
        <time>2019-01-29T09:43:03Z</time>
      </trkpt>
      <trkpt lat="43.50192" lon="6.60403">
        <ele>67.91</ele>
        <time>2019-01-29T09:43:13Z</time>
      </trkpt>
      <trkpt lat="43.50193" lon="6.60402">
        <ele>67.91</ele>
        <time>2019-01-29T09:43:26Z</time>
      </trkpt>
      <trkpt lat="43.50193" lon="6.60401">
        <ele>67.91</ele>
        <time>2019-01-29T09:43:36Z</time>
      </trkpt>
      <trkpt lat="43.50191" lon="6.60403">
        <ele>67.91</ele>
        <time>2019-01-29T09:43:54Z</time>
      </trkpt>
      <trkpt lat="43.50195" lon="6.60414">
        <ele>67.91</ele>
        <time>2019-01-29T09:44:07Z</time>
      </trkpt>
      <trkpt lat="43.50194" lon="6.60414">
        <ele>67.91</ele>
        <time>2019-01-29T09:44:18Z</time>
      </trkpt>
      <trkpt lat="43.50193" lon="6.60413">
        <ele>67.91</ele>
        <time>2019-01-29T09:44:29Z</time>
      </trkpt>
      <trkpt lat="43.50193" lon="6.6041">
        <ele>67.91</ele>
        <time>2019-01-29T09:44:41Z</time>
      </trkpt>
      <trkpt lat="43.50192" lon="6.60408">
        <ele>67.91</ele>
        <time>2019-01-29T09:44:51Z</time>
      </trkpt>
      <trkpt lat="43.50191" lon="6.60405">
        <ele>67.91</ele>
        <time>2019-01-29T09:45:00Z</time>
      </trkpt>
      <trkpt lat="43.50194" lon="6.60413">
        <ele>67.91</ele>
        <time>2019-01-29T09:45:11Z</time>
      </trkpt>
      <trkpt lat="43.50197" lon="6.60417">
        <ele>67.91</ele>
        <time>2019-01-29T09:45:23Z</time>
      </trkpt>
      <trkpt lat="43.50197" lon="6.60418">
        <ele>67.43</ele>
        <time>2019-01-29T09:45:40Z</time>
      </trkpt>
      <trkpt lat="43.50197" lon="6.60418">
        <ele>67.43</ele>
        <time>2019-01-29T09:46:04Z</time>
      </trkpt>
      <trkpt lat="43.50197" lon="6.60417">
        <ele>67.43</ele>
        <time>2019-01-29T09:46:26Z</time>
      </trkpt>
      <trkpt lat="43.50196" lon="6.60417">
        <ele>66.95</ele>
        <time>2019-01-29T09:46:43Z</time>
      </trkpt>
      <trkpt lat="43.50196" lon="6.60416">
        <ele>67.91</ele>
        <time>2019-01-29T09:46:55Z</time>
      </trkpt>
      <trkpt lat="43.50196" lon="6.60416">
        <ele>67.43</ele>
        <time>2019-01-29T09:47:08Z</time>
      </trkpt>
      <trkpt lat="43.50194" lon="6.60415">
        <ele>67.43</ele>
        <time>2019-01-29T09:47:22Z</time>
      </trkpt>
      <trkpt lat="43.50191" lon="6.60409">
        <ele>67.43</ele>
        <time>2019-01-29T09:47:31Z</time>
      </trkpt>
      <trkpt lat="43.50191" lon="6.60408">
        <ele>67.43</ele>
        <time>2019-01-29T09:47:32Z</time>
      </trkpt>
      <trkpt lat="43.50182" lon="6.60405">
        <ele>67.43</ele>
        <time>2019-01-29T09:47:42Z</time>
      </trkpt>
      <trkpt lat="43.50178" lon="6.60408">
        <ele>67.43</ele>
        <time>2019-01-29T09:47:47Z</time>
      </trkpt>
      <trkpt lat="43.50171" lon="6.6041">
        <ele>66.95</ele>
        <time>2019-01-29T09:47:53Z</time>
      </trkpt>
      <trkpt lat="43.50162" lon="6.60414">
        <ele>66.95</ele>
        <time>2019-01-29T09:48:04Z</time>
      </trkpt>
      <trkpt lat="43.50159" lon="6.60415">
        <ele>67.43</ele>
        <time>2019-01-29T09:48:06Z</time>
      </trkpt>
      <trkpt lat="43.5015" lon="6.60417">
        <ele>67.43</ele>
        <time>2019-01-29T09:48:17Z</time>
      </trkpt>
      <trkpt lat="43.50146" lon="6.60418">
        <ele>67.43</ele>
        <time>2019-01-29T09:48:29Z</time>
      </trkpt>
      <trkpt lat="43.50136" lon="6.60423">
        <ele>67.43</ele>
        <time>2019-01-29T09:48:40Z</time>
      </trkpt>
      <trkpt lat="43.50125" lon="6.60428">
        <ele>67.91</ele>
        <time>2019-01-29T09:48:52Z</time>
      </trkpt>
      <trkpt lat="43.50116" lon="6.6043">
        <ele>67.91</ele>
        <time>2019-01-29T09:49:02Z</time>
      </trkpt>
      <trkpt lat="43.50104" lon="6.60435">
        <ele>67.91</ele>
        <time>2019-01-29T09:49:15Z</time>
      </trkpt>
      <trkpt lat="43.50093" lon="6.60441">
        <ele>67.91</ele>
        <time>2019-01-29T09:49:29Z</time>
      </trkpt>
      <trkpt lat="43.50085" lon="6.60445">
        <ele>67.91</ele>
        <time>2019-01-29T09:49:39Z</time>
      </trkpt>
      <trkpt lat="43.50081" lon="6.60448">
        <ele>67.91</ele>
        <time>2019-01-29T09:49:44Z</time>
      </trkpt>
      <trkpt lat="43.50072" lon="6.60453">
        <ele>67.43</ele>
        <time>2019-01-29T09:49:56Z</time>
      </trkpt>
      <trkpt lat="43.50061" lon="6.6046">
        <ele>67.43</ele>
        <time>2019-01-29T09:50:10Z</time>
      </trkpt>
      <trkpt lat="43.50055" lon="6.60464">
        <ele>67.43</ele>
        <time>2019-01-29T09:50:16Z</time>
      </trkpt>
      <trkpt lat="43.50046" lon="6.60471">
        <ele>66.95</ele>
        <time>2019-01-29T09:50:27Z</time>
      </trkpt>
      <trkpt lat="43.50036" lon="6.60476">
        <ele>66.95</ele>
        <time>2019-01-29T09:50:38Z</time>
      </trkpt>
      <trkpt lat="43.50026" lon="6.60482">
        <ele>66.47</ele>
        <time>2019-01-29T09:50:50Z</time>
      </trkpt>
      <trkpt lat="43.50016" lon="6.60489">
        <ele>65.99</ele>
        <time>2019-01-29T09:51:01Z</time>
      </trkpt>
      <trkpt lat="43.50006" lon="6.60496">
        <ele>65.99</ele>
        <time>2019-01-29T09:51:11Z</time>
      </trkpt>
      <trkpt lat="43.5" lon="6.605">
        <ele>65.99</ele>
        <time>2019-01-29T09:51:19Z</time>
      </trkpt>
      <trkpt lat="43.49989" lon="6.60506">
        <ele>65.51</ele>
        <time>2019-01-29T09:51:30Z</time>
      </trkpt>
      <trkpt lat="43.49977" lon="6.60514">
        <ele>65.51</ele>
        <time>2019-01-29T09:51:44Z</time>
      </trkpt>
      <trkpt lat="43.49965" lon="6.60522">
        <ele>65.51</ele>
        <time>2019-01-29T09:51:58Z</time>
      </trkpt>
      <trkpt lat="43.49958" lon="6.60528">
        <ele>65.51</ele>
        <time>2019-01-29T09:52:07Z</time>
      </trkpt>
      <trkpt lat="43.49946" lon="6.60537">
        <ele>65.99</ele>
        <time>2019-01-29T09:52:19Z</time>
      </trkpt>
      <trkpt lat="43.49934" lon="6.60544">
        <ele>66.47</ele>
        <time>2019-01-29T09:52:31Z</time>
      </trkpt>
      <trkpt lat="43.49923" lon="6.60551">
        <ele>66.47</ele>
        <time>2019-01-29T09:52:44Z</time>
      </trkpt>
      <trkpt lat="43.49913" lon="6.60556">
        <ele>66.95</ele>
        <time>2019-01-29T09:52:57Z</time>
      </trkpt>
      <trkpt lat="43.49899" lon="6.60565">
        <ele>67.43</ele>
        <time>2019-01-29T09:53:11Z</time>
      </trkpt>
      <trkpt lat="43.49888" lon="6.60573">
        <ele>67.91</ele>
        <time>2019-01-29T09:53:22Z</time>
      </trkpt>
      <trkpt lat="43.49879" lon="6.60577">
        <ele>67.91</ele>
        <time>2019-01-29T09:53:31Z</time>
      </trkpt>
      <trkpt lat="43.49869" lon="6.60582">
        <ele>68.39</ele>
        <time>2019-01-29T09:53:42Z</time>
      </trkpt>
      <trkpt lat="43.49857" lon="6.60588">
        <ele>68.87</ele>
        <time>2019-01-29T09:53:54Z</time>
      </trkpt>
      <trkpt lat="43.49845" lon="6.60592">
        <ele>69.35</ele>
        <time>2019-01-29T09:54:06Z</time>
      </trkpt>
      <trkpt lat="43.49835" lon="6.60595">
        <ele>68.87</ele>
        <time>2019-01-29T09:54:19Z</time>
      </trkpt>
      <trkpt lat="43.49821" lon="6.60601">
        <ele>68.87</ele>
        <time>2019-01-29T09:54:32Z</time>
      </trkpt>
      <trkpt lat="43.49809" lon="6.60604">
        <ele>68.39</ele>
        <time>2019-01-29T09:54:42Z</time>
      </trkpt>
      <trkpt lat="43.49802" lon="6.60607">
        <ele>68.87</ele>
        <time>2019-01-29T09:54:48Z</time>
      </trkpt>
      <trkpt lat="43.49794" lon="6.60609">
        <ele>68.87</ele>
        <time>2019-01-29T09:54:55Z</time>
      </trkpt>
      <trkpt lat="43.4978" lon="6.60615">
        <ele>68.87</ele>
        <time>2019-01-29T09:55:09Z</time>
      </trkpt>
      <trkpt lat="43.49774" lon="6.60617">
        <ele>68.87</ele>
        <time>2019-01-29T09:55:15Z</time>
      </trkpt>
      <trkpt lat="43.49761" lon="6.60623">
        <ele>68.87</ele>
        <time>2019-01-29T09:55:28Z</time>
      </trkpt>
      <trkpt lat="43.49747" lon="6.60627">
        <ele>69.35</ele>
        <time>2019-01-29T09:55:42Z</time>
      </trkpt>
      <trkpt lat="43.49746" lon="6.60627">
        <ele>69.35</ele>
        <time>2019-01-29T09:55:44Z</time>
      </trkpt>
      <trkpt lat="43.49732" lon="6.60632">
        <ele>69.35</ele>
        <time>2019-01-29T09:55:58Z</time>
      </trkpt>
      <trkpt lat="43.49722" lon="6.60633">
        <ele>69.83</ele>
        <time>2019-01-29T09:56:10Z</time>
      </trkpt>
      <trkpt lat="43.49714" lon="6.60636">
        <ele>69.83</ele>
        <time>2019-01-29T09:56:17Z</time>
      </trkpt>
      <trkpt lat="43.49698" lon="6.60639">
        <ele>69.35</ele>
        <time>2019-01-29T09:56:31Z</time>
      </trkpt>
      <trkpt lat="43.49687" lon="6.60642">
        <ele>69.35</ele>
        <time>2019-01-29T09:56:42Z</time>
      </trkpt>
      <trkpt lat="43.49676" lon="6.60647">
        <ele>68.87</ele>
        <time>2019-01-29T09:56:54Z</time>
      </trkpt>
      <trkpt lat="43.49665" lon="6.60654">
        <ele>68.87</ele>
        <time>2019-01-29T09:57:05Z</time>
      </trkpt>
      <trkpt lat="43.49655" lon="6.60666">
        <ele>68.87</ele>
        <time>2019-01-29T09:57:17Z</time>
      </trkpt>
      <trkpt lat="43.49646" lon="6.60677">
        <ele>68.87</ele>
        <time>2019-01-29T09:57:27Z</time>
      </trkpt>
      <trkpt lat="43.49638" lon="6.6069">
        <ele>68.39</ele>
        <time>2019-01-29T09:57:40Z</time>
      </trkpt>
      <trkpt lat="43.49635" lon="6.60701">
        <ele>68.39</ele>
        <time>2019-01-29T09:57:51Z</time>
      </trkpt>
      <trkpt lat="43.49634" lon="6.60704">
        <ele>68.39</ele>
        <time>2019-01-29T09:57:53Z</time>
      </trkpt>
      <trkpt lat="43.49626" lon="6.60722">
        <ele>67.91</ele>
        <time>2019-01-29T09:58:05Z</time>
      </trkpt>
      <trkpt lat="43.49618" lon="6.6074">
        <ele>67.91</ele>
        <time>2019-01-29T09:58:19Z</time>
      </trkpt>
      <trkpt lat="43.49615" lon="6.60747">
        <ele>67.43</ele>
        <time>2019-01-29T09:58:26Z</time>
      </trkpt>
      <trkpt lat="43.49606" lon="6.60761">
        <ele>66.95</ele>
        <time>2019-01-29T09:58:37Z</time>
      </trkpt>
      <trkpt lat="43.496" lon="6.60771">
        <ele>66.95</ele>
        <time>2019-01-29T09:58:48Z</time>
      </trkpt>
      <trkpt lat="43.49594" lon="6.60783">
        <ele>66.95</ele>
        <time>2019-01-29T09:59:00Z</time>
      </trkpt>
      <trkpt lat="43.49593" lon="6.60784">
        <ele>66.47</ele>
        <time>2019-01-29T09:59:05Z</time>
      </trkpt>
      <trkpt lat="43.49589" lon="6.60788">
        <ele>66.47</ele>
        <time>2019-01-29T09:59:09Z</time>
      </trkpt>
      <trkpt lat="43.49579" lon="6.60802">
        <ele>65.99</ele>
        <time>2019-01-29T09:59:20Z</time>
      </trkpt>
      <trkpt lat="43.49573" lon="6.60808">
        <ele>65.99</ele>
        <time>2019-01-29T09:59:24Z</time>
      </trkpt>
      <trkpt lat="43.49561" lon="6.60819">
        <ele>65.99</ele>
        <time>2019-01-29T09:59:35Z</time>
      </trkpt>
      <trkpt lat="43.49556" lon="6.60821">
        <ele>65.99</ele>
        <time>2019-01-29T09:59:41Z</time>
      </trkpt>
      <trkpt lat="43.49545" lon="6.60827">
        <ele>65.51</ele>
        <time>2019-01-29T09:59:53Z</time>
      </trkpt>
      <trkpt lat="43.49536" lon="6.6083">
        <ele>65.99</ele>
        <time>2019-01-29T10:00:01Z</time>
      </trkpt>
      <trkpt lat="43.49529" lon="6.60832">
        <ele>65.51</ele>
        <time>2019-01-29T10:00:08Z</time>
      </trkpt>
      <trkpt lat="43.49518" lon="6.60838">
        <ele>65.51</ele>
        <time>2019-01-29T10:00:19Z</time>
      </trkpt>
      <trkpt lat="43.49507" lon="6.60842">
        <ele>65.51</ele>
        <time>2019-01-29T10:00:29Z</time>
      </trkpt>
      <trkpt lat="43.49493" lon="6.60849">
        <ele>65.03</ele>
        <time>2019-01-29T10:00:42Z</time>
      </trkpt>
      <trkpt lat="43.49482" lon="6.60853">
        <ele>65.03</ele>
        <time>2019-01-29T10:00:52Z</time>
      </trkpt>
      <trkpt lat="43.49469" lon="6.60859">
        <ele>65.03</ele>
        <time>2019-01-29T10:01:03Z</time>
      </trkpt>
      <trkpt lat="43.49458" lon="6.60863">
        <ele>65.03</ele>
        <time>2019-01-29T10:01:13Z</time>
      </trkpt>
      <trkpt lat="43.49448" lon="6.60868">
        <ele>65.03</ele>
        <time>2019-01-29T10:01:24Z</time>
      </trkpt>
      <trkpt lat="43.49438" lon="6.60872">
        <ele>65.03</ele>
        <time>2019-01-29T10:01:36Z</time>
      </trkpt>
      <trkpt lat="43.49433" lon="6.60871">
        <ele>65.03</ele>
        <time>2019-01-29T10:01:41Z</time>
      </trkpt>
      <trkpt lat="43.49429" lon="6.60872">
        <ele>65.03</ele>
        <time>2019-01-29T10:01:44Z</time>
      </trkpt>
      <trkpt lat="43.49417" lon="6.60876">
        <ele>65.03</ele>
        <time>2019-01-29T10:01:55Z</time>
      </trkpt>
      <trkpt lat="43.49408" lon="6.60877">
        <ele>65.51</ele>
        <time>2019-01-29T10:02:05Z</time>
      </trkpt>
      <trkpt lat="43.49396" lon="6.60881">
        <ele>65.51</ele>
        <time>2019-01-29T10:02:18Z</time>
      </trkpt>
      <trkpt lat="43.49382" lon="6.60886">
        <ele>65.99</ele>
        <time>2019-01-29T10:02:30Z</time>
      </trkpt>
      <trkpt lat="43.4937" lon="6.60887">
        <ele>65.99</ele>
        <time>2019-01-29T10:02:42Z</time>
      </trkpt>
      <trkpt lat="43.49368" lon="6.60888">
        <ele>66.47</ele>
        <time>2019-01-29T10:02:44Z</time>
      </trkpt>
      <trkpt lat="43.49354" lon="6.60892">
        <ele>67.43</ele>
        <time>2019-01-29T10:02:57Z</time>
      </trkpt>
      <trkpt lat="43.49346" lon="6.60894">
        <ele>66.95</ele>
        <time>2019-01-29T10:03:03Z</time>
      </trkpt>
      <trkpt lat="43.49332" lon="6.60899">
        <ele>66.95</ele>
        <time>2019-01-29T10:03:14Z</time>
      </trkpt>
      <trkpt lat="43.49321" lon="6.60902">
        <ele>66.95</ele>
        <time>2019-01-29T10:03:25Z</time>
      </trkpt>
      <trkpt lat="43.49314" lon="6.60903">
        <ele>67.43</ele>
        <time>2019-01-29T10:03:33Z</time>
      </trkpt>
      <trkpt lat="43.49311" lon="6.60904">
        <ele>67.43</ele>
        <time>2019-01-29T10:03:36Z</time>
      </trkpt>
      <trkpt lat="43.49301" lon="6.60907">
        <ele>67.91</ele>
        <time>2019-01-29T10:03:47Z</time>
      </trkpt>
      <trkpt lat="43.49297" lon="6.6091">
        <ele>67.91</ele>
        <time>2019-01-29T10:03:51Z</time>
      </trkpt>
      <trkpt lat="43.49286" lon="6.60918">
        <ele>67.91</ele>
        <time>2019-01-29T10:04:01Z</time>
      </trkpt>
      <trkpt lat="43.49278" lon="6.60922">
        <ele>67.91</ele>
        <time>2019-01-29T10:04:09Z</time>
      </trkpt>
      <trkpt lat="43.49268" lon="6.60928">
        <ele>67.91</ele>
        <time>2019-01-29T10:04:19Z</time>
      </trkpt>
      <trkpt lat="43.49259" lon="6.60931">
        <ele>66.95</ele>
        <time>2019-01-29T10:04:30Z</time>
      </trkpt>
      <trkpt lat="43.49248" lon="6.60938">
        <ele>66.47</ele>
        <time>2019-01-29T10:04:40Z</time>
      </trkpt>
      <trkpt lat="43.49234" lon="6.60947">
        <ele>66.47</ele>
        <time>2019-01-29T10:04:52Z</time>
      </trkpt>
      <trkpt lat="43.49224" lon="6.60951">
        <ele>65.99</ele>
        <time>2019-01-29T10:05:02Z</time>
      </trkpt>
      <trkpt lat="43.49211" lon="6.6095">
        <ele>66.47</ele>
        <time>2019-01-29T10:05:12Z</time>
      </trkpt>
      <trkpt lat="43.49198" lon="6.60949">
        <ele>66.47</ele>
        <time>2019-01-29T10:05:23Z</time>
      </trkpt>
      <trkpt lat="43.49187" lon="6.60954">
        <ele>66.95</ele>
        <time>2019-01-29T10:05:35Z</time>
      </trkpt>
      <trkpt lat="43.49176" lon="6.60959">
        <ele>66.95</ele>
        <time>2019-01-29T10:05:47Z</time>
      </trkpt>
      <trkpt lat="43.49164" lon="6.60967">
        <ele>67.43</ele>
        <time>2019-01-29T10:06:01Z</time>
      </trkpt>
      <trkpt lat="43.49152" lon="6.6098">
        <ele>67.91</ele>
        <time>2019-01-29T10:06:14Z</time>
      </trkpt>
      <trkpt lat="43.49144" lon="6.60987">
        <ele>68.39</ele>
        <time>2019-01-29T10:06:23Z</time>
      </trkpt>
      <trkpt lat="43.49137" lon="6.60993">
        <ele>68.87</ele>
        <time>2019-01-29T10:06:33Z</time>
      </trkpt>
      <trkpt lat="43.49126" lon="6.61005">
        <ele>69.35</ele>
        <time>2019-01-29T10:06:45Z</time>
      </trkpt>
      <trkpt lat="43.4912" lon="6.61008">
        <ele>69.35</ele>
        <time>2019-01-29T10:06:52Z</time>
      </trkpt>
      <trkpt lat="43.49108" lon="6.61017">
        <ele>70.31</ele>
        <time>2019-01-29T10:07:05Z</time>
      </trkpt>
      <trkpt lat="43.49097" lon="6.61024">
        <ele>70.79</ele>
        <time>2019-01-29T10:07:18Z</time>
      </trkpt>
      <trkpt lat="43.49089" lon="6.61029">
        <ele>70.79</ele>
        <time>2019-01-29T10:07:26Z</time>
      </trkpt>
      <trkpt lat="43.49087" lon="6.61031">
        <ele>71.27</ele>
        <time>2019-01-29T10:07:29Z</time>
      </trkpt>
      <trkpt lat="43.49074" lon="6.61039">
        <ele>71.76</ele>
        <time>2019-01-29T10:07:42Z</time>
      </trkpt>
      <trkpt lat="43.4906" lon="6.61045">
        <ele>71.76</ele>
        <time>2019-01-29T10:07:55Z</time>
      </trkpt>
      <trkpt lat="43.49047" lon="6.61046">
        <ele>71.76</ele>
        <time>2019-01-29T10:08:06Z</time>
      </trkpt>
      <trkpt lat="43.49033" lon="6.61045">
        <ele>71.76</ele>
        <time>2019-01-29T10:08:18Z</time>
      </trkpt>
      <trkpt lat="43.49023" lon="6.61043">
        <ele>71.27</ele>
        <time>2019-01-29T10:08:27Z</time>
      </trkpt>
      <trkpt lat="43.49012" lon="6.61039">
        <ele>70.79</ele>
        <time>2019-01-29T10:08:37Z</time>
      </trkpt>
      <trkpt lat="43.49" lon="6.61036">
        <ele>70.79</ele>
        <time>2019-01-29T10:08:48Z</time>
      </trkpt>
      <trkpt lat="43.48988" lon="6.61031">
        <ele>70.31</ele>
        <time>2019-01-29T10:09:00Z</time>
      </trkpt>
      <trkpt lat="43.48985" lon="6.61029">
        <ele>70.31</ele>
        <time>2019-01-29T10:09:03Z</time>
      </trkpt>
      <trkpt lat="43.48975" lon="6.6102">
        <ele>69.83</ele>
        <time>2019-01-29T10:09:14Z</time>
      </trkpt>
      <trkpt lat="43.48963" lon="6.61011">
        <ele>69.83</ele>
        <time>2019-01-29T10:09:26Z</time>
      </trkpt>
      <trkpt lat="43.48957" lon="6.61004">
        <ele>69.83</ele>
        <time>2019-01-29T10:09:33Z</time>
      </trkpt>
      <trkpt lat="43.48951" lon="6.60998">
        <ele>69.35</ele>
        <time>2019-01-29T10:09:40Z</time>
      </trkpt>
      <trkpt lat="43.48945" lon="6.60985">
        <ele>69.35</ele>
        <time>2019-01-29T10:09:50Z</time>
      </trkpt>
      <trkpt lat="43.48943" lon="6.60981">
        <ele>69.35</ele>
        <time>2019-01-29T10:09:53Z</time>
      </trkpt>
      <trkpt lat="43.4894" lon="6.60979">
        <ele>69.35</ele>
        <time>2019-01-29T10:09:55Z</time>
      </trkpt>
      <trkpt lat="43.48935" lon="6.60973">
        <ele>69.83</ele>
        <time>2019-01-29T10:10:02Z</time>
      </trkpt>
      <trkpt lat="43.4893" lon="6.60966">
        <ele>69.35</ele>
        <time>2019-01-29T10:10:09Z</time>
      </trkpt>
      <trkpt lat="43.48927" lon="6.60963">
        <ele>69.83</ele>
        <time>2019-01-29T10:10:13Z</time>
      </trkpt>
      <trkpt lat="43.48922" lon="6.60957">
        <ele>69.35</ele>
        <time>2019-01-29T10:10:19Z</time>
      </trkpt>
      <trkpt lat="43.4891" lon="6.60942">
        <ele>69.35</ele>
        <time>2019-01-29T10:10:32Z</time>
      </trkpt>
      <trkpt lat="43.48902" lon="6.60934">
        <ele>69.83</ele>
        <time>2019-01-29T10:10:41Z</time>
      </trkpt>
      <trkpt lat="43.48891" lon="6.60921">
        <ele>69.83</ele>
        <time>2019-01-29T10:10:53Z</time>
      </trkpt>
      <trkpt lat="43.48883" lon="6.60912">
        <ele>69.83</ele>
        <time>2019-01-29T10:11:03Z</time>
      </trkpt>
      <trkpt lat="43.48875" lon="6.60907">
        <ele>70.31</ele>
        <time>2019-01-29T10:11:13Z</time>
      </trkpt>
      <trkpt lat="43.48864" lon="6.60901">
        <ele>70.79</ele>
        <time>2019-01-29T10:11:25Z</time>
      </trkpt>
      <trkpt lat="43.48853" lon="6.60902">
        <ele>71.27</ele>
        <time>2019-01-29T10:11:35Z</time>
      </trkpt>
      <trkpt lat="43.48842" lon="6.60904">
        <ele>71.27</ele>
        <time>2019-01-29T10:11:47Z</time>
      </trkpt>
      <trkpt lat="43.48835" lon="6.60911">
        <ele>71.76</ele>
        <time>2019-01-29T10:11:55Z</time>
      </trkpt>
      <trkpt lat="43.48827" lon="6.60921">
        <ele>72.24</ele>
        <time>2019-01-29T10:12:05Z</time>
      </trkpt>
      <trkpt lat="43.48818" lon="6.60931">
        <ele>73.2</ele>
        <time>2019-01-29T10:12:17Z</time>
      </trkpt>
      <trkpt lat="43.48808" lon="6.60941">
        <ele>74.16</ele>
        <time>2019-01-29T10:12:29Z</time>
      </trkpt>
      <trkpt lat="43.48796" lon="6.60949">
        <ele>74.64</ele>
        <time>2019-01-29T10:12:42Z</time>
      </trkpt>
      <trkpt lat="43.48783" lon="6.60955">
        <ele>75.12</ele>
        <time>2019-01-29T10:12:55Z</time>
      </trkpt>
      <trkpt lat="43.4877" lon="6.60959">
        <ele>76.08</ele>
        <time>2019-01-29T10:13:07Z</time>
      </trkpt>
      <trkpt lat="43.48765" lon="6.6096">
        <ele>76.08</ele>
        <time>2019-01-29T10:13:12Z</time>
      </trkpt>
      <trkpt lat="43.48754" lon="6.60957">
        <ele>76.08</ele>
        <time>2019-01-29T10:13:22Z</time>
      </trkpt>
      <trkpt lat="43.48743" lon="6.60955">
        <ele>77.04</ele>
        <time>2019-01-29T10:13:32Z</time>
      </trkpt>
      <trkpt lat="43.4873" lon="6.60953">
        <ele>77.52</ele>
        <time>2019-01-29T10:13:44Z</time>
      </trkpt>
      <trkpt lat="43.48721" lon="6.60952">
        <ele>78</ele>
        <time>2019-01-29T10:13:53Z</time>
      </trkpt>
      <trkpt lat="43.48713" lon="6.60953">
        <ele>78</ele>
        <time>2019-01-29T10:14:01Z</time>
      </trkpt>
      <trkpt lat="43.487" lon="6.60955">
        <ele>78.48</ele>
        <time>2019-01-29T10:14:13Z</time>
      </trkpt>
      <trkpt lat="43.4869" lon="6.60957">
        <ele>78</ele>
        <time>2019-01-29T10:14:22Z</time>
      </trkpt>
      <trkpt lat="43.48679" lon="6.60966">
        <ele>78</ele>
        <time>2019-01-29T10:14:34Z</time>
      </trkpt>
      <trkpt lat="43.48671" lon="6.60975">
        <ele>78</ele>
        <time>2019-01-29T10:14:44Z</time>
      </trkpt>
      <trkpt lat="43.48661" lon="6.60987">
        <ele>78</ele>
        <time>2019-01-29T10:14:55Z</time>
      </trkpt>
      <trkpt lat="43.4865" lon="6.60996">
        <ele>78.48</ele>
        <time>2019-01-29T10:15:08Z</time>
      </trkpt>
      <trkpt lat="43.48642" lon="6.61004">
        <ele>78.97</ele>
        <time>2019-01-29T10:15:18Z</time>
      </trkpt>
      <trkpt lat="43.48633" lon="6.61015">
        <ele>78.48</ele>
        <time>2019-01-29T10:15:31Z</time>
      </trkpt>
      <trkpt lat="43.48619" lon="6.6103">
        <ele>78.97</ele>
        <time>2019-01-29T10:15:46Z</time>
      </trkpt>
      <trkpt lat="43.48608" lon="6.61045">
        <ele>78.97</ele>
        <time>2019-01-29T10:15:59Z</time>
      </trkpt>
      <trkpt lat="43.48598" lon="6.61058">
        <ele>79.45</ele>
        <time>2019-01-29T10:16:10Z</time>
      </trkpt>
      <trkpt lat="43.48593" lon="6.61065">
        <ele>79.93</ele>
        <time>2019-01-29T10:16:17Z</time>
      </trkpt>
      <trkpt lat="43.48586" lon="6.61074">
        <ele>79.93</ele>
        <time>2019-01-29T10:16:26Z</time>
      </trkpt>
      <trkpt lat="43.48576" lon="6.61084">
        <ele>80.41</ele>
        <time>2019-01-29T10:16:38Z</time>
      </trkpt>
      <trkpt lat="43.48573" lon="6.61087">
        <ele>80.41</ele>
        <time>2019-01-29T10:16:41Z</time>
      </trkpt>
      <trkpt lat="43.48562" lon="6.61098">
        <ele>80.89</ele>
        <time>2019-01-29T10:16:54Z</time>
      </trkpt>
      <trkpt lat="43.48553" lon="6.61105">
        <ele>80.89</ele>
        <time>2019-01-29T10:17:04Z</time>
      </trkpt>
      <trkpt lat="43.48544" lon="6.61113">
        <ele>81.37</ele>
        <time>2019-01-29T10:17:14Z</time>
      </trkpt>
      <trkpt lat="43.48539" lon="6.61126">
        <ele>81.37</ele>
        <time>2019-01-29T10:17:27Z</time>
      </trkpt>
      <trkpt lat="43.48544" lon="6.61129">
        <ele>81.37</ele>
        <time>2019-01-29T10:17:40Z</time>
      </trkpt>
      <trkpt lat="43.48544" lon="6.61129">
        <ele>81.37</ele>
        <time>2019-01-29T10:17:52Z</time>
      </trkpt>
      <trkpt lat="43.48546" lon="6.61128">
        <ele>81.37</ele>
        <time>2019-01-29T10:18:11Z</time>
      </trkpt>
      <trkpt lat="43.48547" lon="6.61129">
        <ele>81.37</ele>
        <time>2019-01-29T10:18:27Z</time>
      </trkpt>
      <trkpt lat="43.48546" lon="6.61129">
        <ele>81.37</ele>
        <time>2019-01-29T10:18:43Z</time>
      </trkpt>
      <trkpt lat="43.48546" lon="6.61129">
        <ele>81.37</ele>
        <time>2019-01-29T10:19:02Z</time>
      </trkpt>
      <trkpt lat="43.48546" lon="6.61129">
        <ele>81.37</ele>
        <time>2019-01-29T10:19:21Z</time>
      </trkpt>
      <trkpt lat="43.48546" lon="6.61129">
        <ele>81.37</ele>
        <time>2019-01-29T10:19:38Z</time>
      </trkpt>
      <trkpt lat="43.48546" lon="6.61129">
        <ele>81.37</ele>
        <time>2019-01-29T10:19:52Z</time>
      </trkpt>
      <trkpt lat="43.48546" lon="6.61129">
        <ele>81.85</ele>
        <time>2019-01-29T10:20:06Z</time>
      </trkpt>
      <trkpt lat="43.48544" lon="6.61129">
        <ele>81.37</ele>
        <time>2019-01-29T10:20:20Z</time>
      </trkpt>
      <trkpt lat="43.48539" lon="6.61122">
        <ele>81.37</ele>
        <time>2019-01-29T10:20:29Z</time>
      </trkpt>
      <trkpt lat="43.48535" lon="6.61119">
        <ele>81.37</ele>
        <time>2019-01-29T10:20:41Z</time>
      </trkpt>
      <trkpt lat="43.48527" lon="6.61119">
        <ele>81.37</ele>
        <time>2019-01-29T10:20:50Z</time>
      </trkpt>
      <trkpt lat="43.48526" lon="6.61119">
        <ele>80.89</ele>
        <time>2019-01-29T10:20:51Z</time>
      </trkpt>
      <trkpt lat="43.48513" lon="6.61123">
        <ele>80.89</ele>
        <time>2019-01-29T10:21:04Z</time>
      </trkpt>
      <trkpt lat="43.48503" lon="6.61129">
        <ele>81.85</ele>
        <time>2019-01-29T10:21:15Z</time>
      </trkpt>
      <trkpt lat="43.48496" lon="6.61135">
        <ele>80.89</ele>
        <time>2019-01-29T10:21:24Z</time>
      </trkpt>
      <trkpt lat="43.48488" lon="6.6114">
        <ele>80.89</ele>
        <time>2019-01-29T10:21:34Z</time>
      </trkpt>
      <trkpt lat="43.48482" lon="6.61146">
        <ele>80.89</ele>
        <time>2019-01-29T10:21:42Z</time>
      </trkpt>
      <trkpt lat="43.48471" lon="6.61156">
        <ele>81.37</ele>
        <time>2019-01-29T10:21:54Z</time>
      </trkpt>
      <trkpt lat="43.4846" lon="6.61167">
        <ele>81.37</ele>
        <time>2019-01-29T10:22:07Z</time>
      </trkpt>
      <trkpt lat="43.4845" lon="6.61177">
        <ele>81.85</ele>
        <time>2019-01-29T10:22:18Z</time>
      </trkpt>
      <trkpt lat="43.48438" lon="6.61189">
        <ele>81.85</ele>
        <time>2019-01-29T10:22:30Z</time>
      </trkpt>
      <trkpt lat="43.48429" lon="6.61196">
        <ele>81.85</ele>
        <time>2019-01-29T10:22:40Z</time>
      </trkpt>
      <trkpt lat="43.48419" lon="6.61205">
        <ele>82.33</ele>
        <time>2019-01-29T10:22:51Z</time>
      </trkpt>
      <trkpt lat="43.48409" lon="6.61213">
        <ele>83.29</ele>
        <time>2019-01-29T10:23:02Z</time>
      </trkpt>
      <trkpt lat="43.48403" lon="6.61217">
        <ele>83.77</ele>
        <time>2019-01-29T10:23:08Z</time>
      </trkpt>
      <trkpt lat="43.484" lon="6.61221">
        <ele>83.77</ele>
        <time>2019-01-29T10:23:12Z</time>
      </trkpt>
      <trkpt lat="43.48399" lon="6.61223">
        <ele>83.77</ele>
        <time>2019-01-29T10:23:14Z</time>
      </trkpt>
      <trkpt lat="43.48392" lon="6.61229">
        <ele>84.25</ele>
        <time>2019-01-29T10:23:21Z</time>
      </trkpt>
      <trkpt lat="43.48383" lon="6.61237">
        <ele>84.25</ele>
        <time>2019-01-29T10:23:31Z</time>
      </trkpt>
      <trkpt lat="43.48373" lon="6.61246">
        <ele>84.73</ele>
        <time>2019-01-29T10:23:43Z</time>
      </trkpt>
      <trkpt lat="43.48362" lon="6.61257">
        <ele>85.21</ele>
        <time>2019-01-29T10:23:55Z</time>
      </trkpt>
      <trkpt lat="43.48353" lon="6.61268">
        <ele>85.69</ele>
        <time>2019-01-29T10:24:06Z</time>
      </trkpt>
      <trkpt lat="43.48344" lon="6.61279">
        <ele>86.18</ele>
        <time>2019-01-29T10:24:17Z</time>
      </trkpt>
      <trkpt lat="43.48344" lon="6.61285">
        <ele>86.66</ele>
        <time>2019-01-29T10:24:24Z</time>
      </trkpt>
      <trkpt lat="43.48342" lon="6.61293">
        <ele>86.18</ele>
        <time>2019-01-29T10:24:32Z</time>
      </trkpt>
      <trkpt lat="43.48342" lon="6.61296">
        <ele>86.18</ele>
        <time>2019-01-29T10:24:44Z</time>
      </trkpt>
      <trkpt lat="43.48343" lon="6.61307">
        <ele>85.69</ele>
        <time>2019-01-29T10:24:55Z</time>
      </trkpt>
      <trkpt lat="43.48344" lon="6.61314">
        <ele>85.69</ele>
        <time>2019-01-29T10:25:05Z</time>
      </trkpt>
      <trkpt lat="43.48346" lon="6.61323">
        <ele>85.69</ele>
        <time>2019-01-29T10:25:13Z</time>
      </trkpt>
      <trkpt lat="43.48346" lon="6.61331">
        <ele>85.21</ele>
        <time>2019-01-29T10:25:26Z</time>
      </trkpt>
      <trkpt lat="43.48347" lon="6.61331">
        <ele>85.21</ele>
        <time>2019-01-29T10:25:40Z</time>
      </trkpt>
      <trkpt lat="43.48347" lon="6.61332">
        <ele>85.21</ele>
        <time>2019-01-29T10:25:56Z</time>
      </trkpt>
      <trkpt lat="43.48347" lon="6.61332">
        <ele>85.21</ele>
        <time>2019-01-29T10:26:14Z</time>
      </trkpt>
      <trkpt lat="43.48347" lon="6.61332">
        <ele>85.21</ele>
        <time>2019-01-29T10:26:34Z</time>
      </trkpt>
      <trkpt lat="43.48348" lon="6.61333">
        <ele>85.21</ele>
        <time>2019-01-29T10:26:48Z</time>
      </trkpt>
      <trkpt lat="43.48348" lon="6.61332">
        <ele>85.21</ele>
        <time>2019-01-29T10:27:08Z</time>
      </trkpt>
      <trkpt lat="43.48348" lon="6.61332">
        <ele>85.69</ele>
        <time>2019-01-29T10:27:25Z</time>
      </trkpt>
      <trkpt lat="43.48347" lon="6.61338">
        <ele>85.69</ele>
        <time>2019-01-29T10:27:38Z</time>
      </trkpt>
      <trkpt lat="43.48345" lon="6.6135">
        <ele>85.21</ele>
        <time>2019-01-29T10:27:46Z</time>
      </trkpt>
      <trkpt lat="43.48345" lon="6.61352">
        <ele>85.21</ele>
        <time>2019-01-29T10:27:47Z</time>
      </trkpt>
      <trkpt lat="43.48346" lon="6.61365">
        <ele>84.73</ele>
        <time>2019-01-29T10:27:58Z</time>
      </trkpt>
      <trkpt lat="43.48346" lon="6.61367">
        <ele>84.73</ele>
        <time>2019-01-29T10:27:59Z</time>
      </trkpt>
      <trkpt lat="43.48348" lon="6.61379">
        <ele>84.25</ele>
        <time>2019-01-29T10:28:08Z</time>
      </trkpt>
      <trkpt lat="43.48348" lon="6.61382">
        <ele>84.25</ele>
        <time>2019-01-29T10:28:10Z</time>
      </trkpt>
      <trkpt lat="43.4835" lon="6.61394">
        <ele>84.25</ele>
        <time>2019-01-29T10:28:18Z</time>
      </trkpt>
      <trkpt lat="43.48353" lon="6.61406">
        <ele>83.77</ele>
        <time>2019-01-29T10:28:27Z</time>
      </trkpt>
      <trkpt lat="43.48355" lon="6.61422">
        <ele>82.81</ele>
        <time>2019-01-29T10:28:38Z</time>
      </trkpt>
      <trkpt lat="43.48355" lon="6.61423">
        <ele>82.81</ele>
        <time>2019-01-29T10:28:39Z</time>
      </trkpt>
      <trkpt lat="43.48355" lon="6.6143">
        <ele>82.81</ele>
        <time>2019-01-29T10:28:44Z</time>
      </trkpt>
      <trkpt lat="43.48356" lon="6.61439">
        <ele>82.81</ele>
        <time>2019-01-29T10:28:50Z</time>
      </trkpt>
      <trkpt lat="43.48357" lon="6.61443">
        <ele>82.33</ele>
        <time>2019-01-29T10:28:52Z</time>
      </trkpt>
      <trkpt lat="43.48357" lon="6.61457">
        <ele>81.85</ele>
        <time>2019-01-29T10:29:02Z</time>
      </trkpt>
      <trkpt lat="43.48358" lon="6.61463">
        <ele>81.37</ele>
        <time>2019-01-29T10:29:07Z</time>
      </trkpt>
      <trkpt lat="43.48358" lon="6.61471">
        <ele>81.37</ele>
        <time>2019-01-29T10:29:13Z</time>
      </trkpt>
      <trkpt lat="43.4836" lon="6.61476">
        <ele>81.37</ele>
        <time>2019-01-29T10:29:16Z</time>
      </trkpt>
      <trkpt lat="43.48361" lon="6.6148">
        <ele>81.37</ele>
        <time>2019-01-29T10:29:19Z</time>
      </trkpt>
      <trkpt lat="43.48364" lon="6.61493">
        <ele>81.37</ele>
        <time>2019-01-29T10:29:28Z</time>
      </trkpt>
      <trkpt lat="43.48365" lon="6.61508">
        <ele>81.37</ele>
        <time>2019-01-29T10:29:37Z</time>
      </trkpt>
      <trkpt lat="43.48367" lon="6.61517">
        <ele>81.37</ele>
        <time>2019-01-29T10:29:44Z</time>
      </trkpt>
      <trkpt lat="43.48367" lon="6.61523">
        <ele>81.37</ele>
        <time>2019-01-29T10:29:48Z</time>
      </trkpt>
      <trkpt lat="43.48367" lon="6.61526">
        <ele>81.37</ele>
        <time>2019-01-29T10:29:50Z</time>
      </trkpt>
      <trkpt lat="43.48369" lon="6.61544">
        <ele>81.85</ele>
        <time>2019-01-29T10:30:02Z</time>
      </trkpt>
      <trkpt lat="43.48371" lon="6.61558">
        <ele>81.85</ele>
        <time>2019-01-29T10:30:13Z</time>
      </trkpt>
      <trkpt lat="43.4837" lon="6.61561">
        <ele>81.85</ele>
        <time>2019-01-29T10:30:24Z</time>
      </trkpt>
      <trkpt lat="43.4837" lon="6.61561">
        <ele>81.85</ele>
        <time>2019-01-29T10:30:42Z</time>
      </trkpt>
      <trkpt lat="43.4837" lon="6.61569">
        <ele>81.37</ele>
        <time>2019-01-29T10:30:52Z</time>
      </trkpt>
      <trkpt lat="43.48373" lon="6.61579">
        <ele>80.41</ele>
        <time>2019-01-29T10:31:02Z</time>
      </trkpt>
      <trkpt lat="43.48374" lon="6.61588">
        <ele>78.97</ele>
        <time>2019-01-29T10:31:10Z</time>
      </trkpt>
      <trkpt lat="43.48374" lon="6.61598">
        <ele>78.48</ele>
        <time>2019-01-29T10:31:18Z</time>
      </trkpt>
      <trkpt lat="43.48375" lon="6.61607">
        <ele>78.48</ele>
        <time>2019-01-29T10:31:24Z</time>
      </trkpt>
      <trkpt lat="43.48375" lon="6.61617">
        <ele>78</ele>
        <time>2019-01-29T10:31:31Z</time>
      </trkpt>
      <trkpt lat="43.48376" lon="6.61624">
        <ele>77.52</ele>
        <time>2019-01-29T10:31:36Z</time>
      </trkpt>
      <trkpt lat="43.48377" lon="6.61636">
        <ele>77.04</ele>
        <time>2019-01-29T10:31:44Z</time>
      </trkpt>
      <trkpt lat="43.48378" lon="6.61647">
        <ele>76.56</ele>
        <time>2019-01-29T10:31:51Z</time>
      </trkpt>
      <trkpt lat="43.48378" lon="6.61652">
        <ele>76.56</ele>
        <time>2019-01-29T10:31:55Z</time>
      </trkpt>
      <trkpt lat="43.4838" lon="6.61667">
        <ele>75.6</ele>
        <time>2019-01-29T10:32:06Z</time>
      </trkpt>
      <trkpt lat="43.48382" lon="6.61675">
        <ele>75.6</ele>
        <time>2019-01-29T10:32:13Z</time>
      </trkpt>
      <trkpt lat="43.48383" lon="6.61679">
        <ele>75.6</ele>
        <time>2019-01-29T10:32:16Z</time>
      </trkpt>
      <trkpt lat="43.48383" lon="6.61683">
        <ele>75.12</ele>
        <time>2019-01-29T10:32:19Z</time>
      </trkpt>
      <trkpt lat="43.48383" lon="6.61686">
        <ele>75.12</ele>
        <time>2019-01-29T10:32:21Z</time>
      </trkpt>
      <trkpt lat="43.48385" lon="6.617">
        <ele>75.12</ele>
        <time>2019-01-29T10:32:31Z</time>
      </trkpt>
      <trkpt lat="43.48386" lon="6.61704">
        <ele>75.12</ele>
        <time>2019-01-29T10:32:34Z</time>
      </trkpt>
      <trkpt lat="43.48386" lon="6.61709">
        <ele>75.12</ele>
        <time>2019-01-29T10:32:37Z</time>
      </trkpt>
      <trkpt lat="43.48388" lon="6.61725">
        <ele>74.64</ele>
        <time>2019-01-29T10:32:48Z</time>
      </trkpt>
      <trkpt lat="43.48388" lon="6.61728">
        <ele>74.64</ele>
        <time>2019-01-29T10:32:50Z</time>
      </trkpt>
      <trkpt lat="43.48389" lon="6.61741">
        <ele>74.64</ele>
        <time>2019-01-29T10:32:59Z</time>
      </trkpt>
      <trkpt lat="43.48389" lon="6.61746">
        <ele>74.16</ele>
        <time>2019-01-29T10:33:03Z</time>
      </trkpt>
      <trkpt lat="43.48389" lon="6.61751">
        <ele>74.16</ele>
        <time>2019-01-29T10:33:06Z</time>
      </trkpt>
      <trkpt lat="43.48391" lon="6.61766">
        <ele>73.68</ele>
        <time>2019-01-29T10:33:16Z</time>
      </trkpt>
      <trkpt lat="43.48393" lon="6.6177">
        <ele>73.68</ele>
        <time>2019-01-29T10:33:19Z</time>
      </trkpt>
      <trkpt lat="43.48393" lon="6.61776">
        <ele>77.52</ele>
        <time>2019-01-29T10:33:22Z</time>
      </trkpt>
      <trkpt lat="43.48393" lon="6.61778">
        <ele>71.76</ele>
        <time>2019-01-29T10:33:23Z</time>
      </trkpt>
      <trkpt lat="43.48392" lon="6.6178">
        <ele>75.6</ele>
        <time>2019-01-29T10:33:24Z</time>
      </trkpt>
      <trkpt lat="43.48392" lon="6.61781">
        <ele>73.68</ele>
        <time>2019-01-29T10:33:25Z</time>
      </trkpt>
      <trkpt lat="43.48394" lon="6.61796">
        <ele>73.68</ele>
        <time>2019-01-29T10:33:36Z</time>
      </trkpt>
      <trkpt lat="43.48394" lon="6.61799">
        <ele>73.2</ele>
        <time>2019-01-29T10:33:39Z</time>
      </trkpt>
      <trkpt lat="43.48395" lon="6.61805">
        <ele>73.2</ele>
        <time>2019-01-29T10:33:43Z</time>
      </trkpt>
      <trkpt lat="43.48398" lon="6.61821">
        <ele>72.72</ele>
        <time>2019-01-29T10:33:53Z</time>
      </trkpt>
      <trkpt lat="43.48399" lon="6.61824">
        <ele>73.2</ele>
        <time>2019-01-29T10:33:55Z</time>
      </trkpt>
      <trkpt lat="43.48399" lon="6.61837">
        <ele>72.72</ele>
        <time>2019-01-29T10:34:03Z</time>
      </trkpt>
      <trkpt lat="43.484" lon="6.61849">
        <ele>72.72</ele>
        <time>2019-01-29T10:34:11Z</time>
      </trkpt>
      <trkpt lat="43.484" lon="6.6186">
        <ele>72.72</ele>
        <time>2019-01-29T10:34:18Z</time>
      </trkpt>
      <trkpt lat="43.484" lon="6.61864">
        <ele>72.24</ele>
        <time>2019-01-29T10:34:21Z</time>
      </trkpt>
      <trkpt lat="43.48403" lon="6.61879">
        <ele>72.24</ele>
        <time>2019-01-29T10:34:31Z</time>
      </trkpt>
      <trkpt lat="43.48405" lon="6.6189">
        <ele>71.76</ele>
        <time>2019-01-29T10:34:39Z</time>
      </trkpt>
      <trkpt lat="43.48405" lon="6.61895">
        <ele>71.76</ele>
        <time>2019-01-29T10:34:43Z</time>
      </trkpt>
      <trkpt lat="43.48406" lon="6.61902">
        <ele>71.27</ele>
        <time>2019-01-29T10:34:47Z</time>
      </trkpt>
      <trkpt lat="43.48406" lon="6.61916">
        <ele>70.79</ele>
        <time>2019-01-29T10:34:56Z</time>
      </trkpt>
      <trkpt lat="43.48408" lon="6.61922">
        <ele>71.76</ele>
        <time>2019-01-29T10:35:00Z</time>
      </trkpt>
      <trkpt lat="43.4841" lon="6.61929">
        <ele>70.79</ele>
        <time>2019-01-29T10:35:06Z</time>
      </trkpt>
      <trkpt lat="43.48411" lon="6.61938">
        <ele>70.79</ele>
        <time>2019-01-29T10:35:12Z</time>
      </trkpt>
      <trkpt lat="43.48411" lon="6.61955">
        <ele>70.31</ele>
        <time>2019-01-29T10:35:22Z</time>
      </trkpt>
      <trkpt lat="43.48412" lon="6.61958">
        <ele>70.31</ele>
        <time>2019-01-29T10:35:24Z</time>
      </trkpt>
      <trkpt lat="43.48416" lon="6.6197">
        <ele>69.83</ele>
        <time>2019-01-29T10:35:35Z</time>
      </trkpt>
      <trkpt lat="43.48417" lon="6.61972">
        <ele>69.83</ele>
        <time>2019-01-29T10:35:37Z</time>
      </trkpt>
      <trkpt lat="43.48419" lon="6.61973">
        <ele>69.83</ele>
        <time>2019-01-29T10:35:39Z</time>
      </trkpt>
      <trkpt lat="43.48429" lon="6.61978">
        <ele>69.35</ele>
        <time>2019-01-29T10:35:50Z</time>
      </trkpt>
      <trkpt lat="43.4843" lon="6.61978">
        <ele>68.87</ele>
        <time>2019-01-29T10:35:51Z</time>
      </trkpt>
      <trkpt lat="43.48434" lon="6.61978">
        <ele>68.87</ele>
        <time>2019-01-29T10:35:54Z</time>
      </trkpt>
      <trkpt lat="43.48445" lon="6.61979">
        <ele>67.91</ele>
        <time>2019-01-29T10:36:04Z</time>
      </trkpt>
      <trkpt lat="43.48453" lon="6.6198">
        <ele>66.47</ele>
        <time>2019-01-29T10:36:16Z</time>
      </trkpt>
      <trkpt lat="43.48454" lon="6.6198">
        <ele>66.47</ele>
        <time>2019-01-29T10:36:18Z</time>
      </trkpt>
      <trkpt lat="43.48465" lon="6.61981">
        <ele>65.03</ele>
        <time>2019-01-29T10:36:30Z</time>
      </trkpt>
      <trkpt lat="43.48474" lon="6.61981">
        <ele>63.58</ele>
        <time>2019-01-29T10:36:40Z</time>
      </trkpt>
      <trkpt lat="43.48481" lon="6.61981">
        <ele>63.58</ele>
        <time>2019-01-29T10:36:47Z</time>
      </trkpt>
      <trkpt lat="43.48493" lon="6.61981">
        <ele>63.1</ele>
        <time>2019-01-29T10:36:59Z</time>
      </trkpt>
      <trkpt lat="43.48504" lon="6.61977">
        <ele>62.62</ele>
        <time>2019-01-29T10:37:12Z</time>
      </trkpt>
      <trkpt lat="43.48511" lon="6.61974">
        <ele>61.66</ele>
        <time>2019-01-29T10:37:22Z</time>
      </trkpt>
      <trkpt lat="43.48516" lon="6.61973">
        <ele>61.18</ele>
        <time>2019-01-29T10:37:27Z</time>
      </trkpt>
      <trkpt lat="43.48523" lon="6.61971">
        <ele>60.22</ele>
        <time>2019-01-29T10:37:37Z</time>
      </trkpt>
      <trkpt lat="43.48531" lon="6.61966">
        <ele>59.26</ele>
        <time>2019-01-29T10:37:49Z</time>
      </trkpt>
      <trkpt lat="43.48538" lon="6.61961">
        <ele>58.78</ele>
        <time>2019-01-29T10:37:57Z</time>
      </trkpt>
      <trkpt lat="43.48547" lon="6.61955">
        <ele>57.82</ele>
        <time>2019-01-29T10:38:07Z</time>
      </trkpt>
      <trkpt lat="43.48555" lon="6.61945">
        <ele>56.86</ele>
        <time>2019-01-29T10:38:21Z</time>
      </trkpt>
      <trkpt lat="43.48564" lon="6.61935">
        <ele>55.89</ele>
        <time>2019-01-29T10:38:35Z</time>
      </trkpt>
      <trkpt lat="43.48571" lon="6.6193">
        <ele>54.45</ele>
        <time>2019-01-29T10:38:47Z</time>
      </trkpt>
      <trkpt lat="43.4858" lon="6.61928">
        <ele>53.01</ele>
        <time>2019-01-29T10:38:59Z</time>
      </trkpt>
      <trkpt lat="43.48585" lon="6.61929">
        <ele>53.01</ele>
        <time>2019-01-29T10:39:03Z</time>
      </trkpt>
      <trkpt lat="43.48586" lon="6.61927">
        <ele>53.01</ele>
        <time>2019-01-29T10:39:05Z</time>
      </trkpt>
      <trkpt lat="43.48588" lon="6.61926">
        <ele>53.49</ele>
        <time>2019-01-29T10:39:16Z</time>
      </trkpt>
      <trkpt lat="43.48588" lon="6.61927">
        <ele>53.49</ele>
        <time>2019-01-29T10:39:35Z</time>
      </trkpt>
      <trkpt lat="43.48588" lon="6.61927">
        <ele>53.49</ele>
        <time>2019-01-29T10:39:50Z</time>
      </trkpt>
      <trkpt lat="43.48588" lon="6.61928">
        <ele>53.49</ele>
        <time>2019-01-29T10:40:06Z</time>
      </trkpt>
      <trkpt lat="43.48588" lon="6.61928">
        <ele>53.49</ele>
        <time>2019-01-29T10:40:24Z</time>
      </trkpt>
      <trkpt lat="43.48595" lon="6.61928">
        <ele>53.97</ele>
        <time>2019-01-29T10:40:33Z</time>
      </trkpt>
      <trkpt lat="43.4861" lon="6.61929">
        <ele>54.93</ele>
        <time>2019-01-29T10:40:46Z</time>
      </trkpt>
      <trkpt lat="43.4862" lon="6.61935">
        <ele>56.37</ele>
        <time>2019-01-29T10:40:57Z</time>
      </trkpt>
      <trkpt lat="43.48627" lon="6.61943">
        <ele>57.34</ele>
        <time>2019-01-29T10:41:06Z</time>
      </trkpt>
      <trkpt lat="43.48634" lon="6.61953">
        <ele>58.3</ele>
        <time>2019-01-29T10:41:17Z</time>
      </trkpt>
      <trkpt lat="43.4864" lon="6.6196">
        <ele>59.74</ele>
        <time>2019-01-29T10:41:28Z</time>
      </trkpt>
      <trkpt lat="43.48649" lon="6.61965">
        <ele>60.22</ele>
        <time>2019-01-29T10:41:37Z</time>
      </trkpt>
      <trkpt lat="43.48655" lon="6.61969">
        <ele>60.7</ele>
        <time>2019-01-29T10:41:45Z</time>
      </trkpt>
      <trkpt lat="43.48663" lon="6.61972">
        <ele>61.18</ele>
        <time>2019-01-29T10:41:56Z</time>
      </trkpt>
      <trkpt lat="43.48665" lon="6.61973">
        <ele>61.66</ele>
        <time>2019-01-29T10:41:59Z</time>
      </trkpt>
      <trkpt lat="43.48674" lon="6.61975">
        <ele>62.14</ele>
        <time>2019-01-29T10:42:10Z</time>
      </trkpt>
      <trkpt lat="43.48681" lon="6.61974">
        <ele>62.14</ele>
        <time>2019-01-29T10:42:18Z</time>
      </trkpt>
      <trkpt lat="43.48684" lon="6.61975">
        <ele>62.14</ele>
        <time>2019-01-29T10:42:22Z</time>
      </trkpt>
      <trkpt lat="43.48689" lon="6.61976">
        <ele>62.14</ele>
        <time>2019-01-29T10:42:29Z</time>
      </trkpt>
      <trkpt lat="43.487" lon="6.61976">
        <ele>61.66</ele>
        <time>2019-01-29T10:42:41Z</time>
      </trkpt>
      <trkpt lat="43.48704" lon="6.61976">
        <ele>61.66</ele>
        <time>2019-01-29T10:42:46Z</time>
      </trkpt>
      <trkpt lat="43.48708" lon="6.61976">
        <ele>61.66</ele>
        <time>2019-01-29T10:42:50Z</time>
      </trkpt>
      <trkpt lat="43.48714" lon="6.61976">
        <ele>60.7</ele>
        <time>2019-01-29T10:42:58Z</time>
      </trkpt>
      <trkpt lat="43.4872" lon="6.61976">
        <ele>60.22</ele>
        <time>2019-01-29T10:43:03Z</time>
      </trkpt>
      <trkpt lat="43.48731" lon="6.61978">
        <ele>59.26</ele>
        <time>2019-01-29T10:43:15Z</time>
      </trkpt>
      <trkpt lat="43.48742" lon="6.6198">
        <ele>59.26</ele>
        <time>2019-01-29T10:43:26Z</time>
      </trkpt>
      <trkpt lat="43.4875" lon="6.6198">
        <ele>58.78</ele>
        <time>2019-01-29T10:43:36Z</time>
      </trkpt>
      <trkpt lat="43.48761" lon="6.61981">
        <ele>58.3</ele>
        <time>2019-01-29T10:43:46Z</time>
      </trkpt>
      <trkpt lat="43.48772" lon="6.61978">
        <ele>58.3</ele>
        <time>2019-01-29T10:43:57Z</time>
      </trkpt>
      <trkpt lat="43.48783" lon="6.61973">
        <ele>57.82</ele>
        <time>2019-01-29T10:44:08Z</time>
      </trkpt>
      <trkpt lat="43.48792" lon="6.61972">
        <ele>57.34</ele>
        <time>2019-01-29T10:44:19Z</time>
      </trkpt>
      <trkpt lat="43.48793" lon="6.61972">
        <ele>57.34</ele>
        <time>2019-01-29T10:44:20Z</time>
      </trkpt>
      <trkpt lat="43.48805" lon="6.61969">
        <ele>55.89</ele>
        <time>2019-01-29T10:44:32Z</time>
      </trkpt>
      <trkpt lat="43.4881" lon="6.61965">
        <ele>55.41</ele>
        <time>2019-01-29T10:44:41Z</time>
      </trkpt>
      <trkpt lat="43.48823" lon="6.6196">
        <ele>53.97</ele>
        <time>2019-01-29T10:44:56Z</time>
      </trkpt>
      <trkpt lat="43.48834" lon="6.61957">
        <ele>53.49</ele>
        <time>2019-01-29T10:45:07Z</time>
      </trkpt>
      <trkpt lat="43.48844" lon="6.61953">
        <ele>52.05</ele>
        <time>2019-01-29T10:45:18Z</time>
      </trkpt>
      <trkpt lat="43.48856" lon="6.61947">
        <ele>50.61</ele>
        <time>2019-01-29T10:45:31Z</time>
      </trkpt>
      <trkpt lat="43.48862" lon="6.61945">
        <ele>50.61</ele>
        <time>2019-01-29T10:45:38Z</time>
      </trkpt>
      <trkpt lat="43.48878" lon="6.61946">
        <ele>53.01</ele>
        <time>2019-01-29T10:45:53Z</time>
      </trkpt>
      <trkpt lat="43.48879" lon="6.61946">
        <ele>50.13</ele>
        <time>2019-01-29T10:45:54Z</time>
      </trkpt>
      <trkpt lat="43.48885" lon="6.61946">
        <ele>49.16</ele>
        <time>2019-01-29T10:46:01Z</time>
      </trkpt>
      <trkpt lat="43.48901" lon="6.61946">
        <ele>47.72</ele>
        <time>2019-01-29T10:46:18Z</time>
      </trkpt>
      <trkpt lat="43.4891" lon="6.61945">
        <ele>46.76</ele>
        <time>2019-01-29T10:46:27Z</time>
      </trkpt>
      <trkpt lat="43.48911" lon="6.61945">
        <ele>46.76</ele>
        <time>2019-01-29T10:46:29Z</time>
      </trkpt>
      <trkpt lat="43.48921" lon="6.61944">
        <ele>46.28</ele>
        <time>2019-01-29T10:46:39Z</time>
      </trkpt>
      <trkpt lat="43.48925" lon="6.61946">
        <ele>46.76</ele>
        <time>2019-01-29T10:46:42Z</time>
      </trkpt>
      <trkpt lat="43.48936" lon="6.6195">
        <ele>46.28</ele>
        <time>2019-01-29T10:46:52Z</time>
      </trkpt>
      <trkpt lat="43.48938" lon="6.6195">
        <ele>46.28</ele>
        <time>2019-01-29T10:46:55Z</time>
      </trkpt>
      <trkpt lat="43.48946" lon="6.61952">
        <ele>45.8</ele>
        <time>2019-01-29T10:47:04Z</time>
      </trkpt>
      <trkpt lat="43.48949" lon="6.61952">
        <ele>45.32</ele>
        <time>2019-01-29T10:47:07Z</time>
      </trkpt>
      <trkpt lat="43.48963" lon="6.6195">
        <ele>44.36</ele>
        <time>2019-01-29T10:47:18Z</time>
      </trkpt>
      <trkpt lat="43.48962" lon="6.61951">
        <ele>44.84</ele>
        <time>2019-01-29T10:47:31Z</time>
      </trkpt>
      <trkpt lat="43.48962" lon="6.61951">
        <ele>44.84</ele>
        <time>2019-01-29T10:47:48Z</time>
      </trkpt>
      <trkpt lat="43.48962" lon="6.61951">
        <ele>44.84</ele>
        <time>2019-01-29T10:48:04Z</time>
      </trkpt>
      <trkpt lat="43.48961" lon="6.61951">
        <ele>44.84</ele>
        <time>2019-01-29T10:48:23Z</time>
      </trkpt>
      <trkpt lat="43.48961" lon="6.61951">
        <ele>44.84</ele>
        <time>2019-01-29T10:48:41Z</time>
      </trkpt>
      <trkpt lat="43.48961" lon="6.61951">
        <ele>44.84</ele>
        <time>2019-01-29T10:49:08Z</time>
      </trkpt>
      <trkpt lat="43.48961" lon="6.61951">
        <ele>45.32</ele>
        <time>2019-01-29T10:49:32Z</time>
      </trkpt>
      <trkpt lat="43.48961" lon="6.6195">
        <ele>45.32</ele>
        <time>2019-01-29T10:49:49Z</time>
      </trkpt>
      <trkpt lat="43.48965" lon="6.61947">
        <ele>44.84</ele>
        <time>2019-01-29T10:50:01Z</time>
      </trkpt>
      <trkpt lat="43.48967" lon="6.61945">
        <ele>44.84</ele>
        <time>2019-01-29T10:50:07Z</time>
      </trkpt>
      <trkpt lat="43.48975" lon="6.61941">
        <ele>44.36</ele>
        <time>2019-01-29T10:50:18Z</time>
      </trkpt>
      <trkpt lat="43.48984" lon="6.6194">
        <ele>43.88</ele>
        <time>2019-01-29T10:50:28Z</time>
      </trkpt>
      <trkpt lat="43.48991" lon="6.61936">
        <ele>44.36</ele>
        <time>2019-01-29T10:50:37Z</time>
      </trkpt>
      <trkpt lat="43.49002" lon="6.61931">
        <ele>45.32</ele>
        <time>2019-01-29T10:50:49Z</time>
      </trkpt>
      <trkpt lat="43.49004" lon="6.6193">
        <ele>45.32</ele>
        <time>2019-01-29T10:50:52Z</time>
      </trkpt>
      <trkpt lat="43.49014" lon="6.61927">
        <ele>45.32</ele>
        <time>2019-01-29T10:51:03Z</time>
      </trkpt>
      <trkpt lat="43.49016" lon="6.61927">
        <ele>45.32</ele>
        <time>2019-01-29T10:51:05Z</time>
      </trkpt>
      <trkpt lat="43.49025" lon="6.61927">
        <ele>45.8</ele>
        <time>2019-01-29T10:51:16Z</time>
      </trkpt>
      <trkpt lat="43.49033" lon="6.61925">
        <ele>46.76</ele>
        <time>2019-01-29T10:51:27Z</time>
      </trkpt>
      <trkpt lat="43.49035" lon="6.61925">
        <ele>46.28</ele>
        <time>2019-01-29T10:51:28Z</time>
      </trkpt>
      <trkpt lat="43.49043" lon="6.61923">
        <ele>47.24</ele>
        <time>2019-01-29T10:51:34Z</time>
      </trkpt>
      <trkpt lat="43.49047" lon="6.61922">
        <ele>47.72</ele>
        <time>2019-01-29T10:51:38Z</time>
      </trkpt>
      <trkpt lat="43.49057" lon="6.61915">
        <ele>48.2</ele>
        <time>2019-01-29T10:51:49Z</time>
      </trkpt>
      <trkpt lat="43.49069" lon="6.61909">
        <ele>49.65</ele>
        <time>2019-01-29T10:52:02Z</time>
      </trkpt>
      <trkpt lat="43.49079" lon="6.61904">
        <ele>50.13</ele>
        <time>2019-01-29T10:52:13Z</time>
      </trkpt>
      <trkpt lat="43.4909" lon="6.61903">
        <ele>51.09</ele>
        <time>2019-01-29T10:52:22Z</time>
      </trkpt>
      <trkpt lat="43.49095" lon="6.61904">
        <ele>52.05</ele>
        <time>2019-01-29T10:52:30Z</time>
      </trkpt>
      <trkpt lat="43.49097" lon="6.61905">
        <ele>51.57</ele>
        <time>2019-01-29T10:52:33Z</time>
      </trkpt>
      <trkpt lat="43.49099" lon="6.61907">
        <ele>51.57</ele>
        <time>2019-01-29T10:52:36Z</time>
      </trkpt>
      <trkpt lat="43.4911" lon="6.61907">
        <ele>52.05</ele>
        <time>2019-01-29T10:52:47Z</time>
      </trkpt>
      <trkpt lat="43.49117" lon="6.61908">
        <ele>52.53</ele>
        <time>2019-01-29T10:52:57Z</time>
      </trkpt>
      <trkpt lat="43.49133" lon="6.61909">
        <ele>52.53</ele>
        <time>2019-01-29T10:53:09Z</time>
      </trkpt>
      <trkpt lat="43.49144" lon="6.61909">
        <ele>53.49</ele>
        <time>2019-01-29T10:53:21Z</time>
      </trkpt>
      <trkpt lat="43.49147" lon="6.6191">
        <ele>53.49</ele>
        <time>2019-01-29T10:53:25Z</time>
      </trkpt>
      <trkpt lat="43.4916" lon="6.61911">
        <ele>53.97</ele>
        <time>2019-01-29T10:53:38Z</time>
      </trkpt>
      <trkpt lat="43.49162" lon="6.6191">
        <ele>53.97</ele>
        <time>2019-01-29T10:53:40Z</time>
      </trkpt>
      <trkpt lat="43.49174" lon="6.61904">
        <ele>53.97</ele>
        <time>2019-01-29T10:53:50Z</time>
      </trkpt>
      <trkpt lat="43.49184" lon="6.61901">
        <ele>54.45</ele>
        <time>2019-01-29T10:54:01Z</time>
      </trkpt>
      <trkpt lat="43.49191" lon="6.61895">
        <ele>54.45</ele>
        <time>2019-01-29T10:54:11Z</time>
      </trkpt>
      <trkpt lat="43.492" lon="6.61888">
        <ele>53.49</ele>
        <time>2019-01-29T10:54:22Z</time>
      </trkpt>
      <trkpt lat="43.49203" lon="6.61885">
        <ele>53.97</ele>
        <time>2019-01-29T10:54:31Z</time>
      </trkpt>
      <trkpt lat="43.49204" lon="6.61885">
        <ele>53.97</ele>
        <time>2019-01-29T10:54:45Z</time>
      </trkpt>
      <trkpt lat="43.49212" lon="6.61881">
        <ele>53.49</ele>
        <time>2019-01-29T10:54:55Z</time>
      </trkpt>
      <trkpt lat="43.49214" lon="6.61881">
        <ele>53.01</ele>
        <time>2019-01-29T10:54:57Z</time>
      </trkpt>
      <trkpt lat="43.49219" lon="6.61878">
        <ele>54.45</ele>
        <time>2019-01-29T10:55:02Z</time>
      </trkpt>
      <trkpt lat="43.49226" lon="6.61876">
        <ele>53.01</ele>
        <time>2019-01-29T10:55:10Z</time>
      </trkpt>
      <trkpt lat="43.49236" lon="6.61873">
        <ele>53.01</ele>
        <time>2019-01-29T10:55:20Z</time>
      </trkpt>
      <trkpt lat="43.49247" lon="6.61868">
        <ele>52.53</ele>
        <time>2019-01-29T10:55:30Z</time>
      </trkpt>
      <trkpt lat="43.49252" lon="6.61866">
        <ele>52.05</ele>
        <time>2019-01-29T10:55:34Z</time>
      </trkpt>
      <trkpt lat="43.49263" lon="6.61861">
        <ele>51.57</ele>
        <time>2019-01-29T10:55:45Z</time>
      </trkpt>
      <trkpt lat="43.49272" lon="6.61856">
        <ele>51.57</ele>
        <time>2019-01-29T10:55:55Z</time>
      </trkpt>
      <trkpt lat="43.49279" lon="6.61849">
        <ele>51.09</ele>
        <time>2019-01-29T10:56:05Z</time>
      </trkpt>
      <trkpt lat="43.49286" lon="6.61847">
        <ele>51.09</ele>
        <time>2019-01-29T10:56:12Z</time>
      </trkpt>
      <trkpt lat="43.49298" lon="6.61853">
        <ele>50.61</ele>
        <time>2019-01-29T10:56:22Z</time>
      </trkpt>
      <trkpt lat="43.49308" lon="6.61855">
        <ele>50.13</ele>
        <time>2019-01-29T10:56:33Z</time>
      </trkpt>
      <trkpt lat="43.49313" lon="6.61852">
        <ele>50.61</ele>
        <time>2019-01-29T10:56:41Z</time>
      </trkpt>
      <trkpt lat="43.49322" lon="6.61851">
        <ele>50.13</ele>
        <time>2019-01-29T10:56:51Z</time>
      </trkpt>
      <trkpt lat="43.49325" lon="6.6185">
        <ele>50.61</ele>
        <time>2019-01-29T10:56:58Z</time>
      </trkpt>
      <trkpt lat="43.49327" lon="6.6185">
        <ele>50.61</ele>
        <time>2019-01-29T10:57:16Z</time>
      </trkpt>
      <trkpt lat="43.49328" lon="6.61855">
        <ele>50.61</ele>
        <time>2019-01-29T10:57:30Z</time>
      </trkpt>
      <trkpt lat="43.49327" lon="6.61864">
        <ele>50.61</ele>
        <time>2019-01-29T10:57:45Z</time>
      </trkpt>
      <trkpt lat="43.49328" lon="6.61861">
        <ele>50.61</ele>
        <time>2019-01-29T10:57:55Z</time>
      </trkpt>
      <trkpt lat="43.49327" lon="6.6186">
        <ele>50.61</ele>
        <time>2019-01-29T10:58:07Z</time>
      </trkpt>
      <trkpt lat="43.49328" lon="6.61861">
        <ele>50.61</ele>
        <time>2019-01-29T10:58:23Z</time>
      </trkpt>
      <trkpt lat="43.49328" lon="6.61861">
        <ele>50.61</ele>
        <time>2019-01-29T10:58:42Z</time>
      </trkpt>
      <trkpt lat="43.49328" lon="6.61861">
        <ele>50.61</ele>
        <time>2019-01-29T10:58:57Z</time>
      </trkpt>
      <trkpt lat="43.49328" lon="6.61863">
        <ele>50.13</ele>
        <time>2019-01-29T10:59:22Z</time>
      </trkpt>
      <trkpt lat="43.49328" lon="6.61863">
        <ele>50.61</ele>
        <time>2019-01-29T10:59:37Z</time>
      </trkpt>
      <trkpt lat="43.49328" lon="6.61863">
        <ele>50.61</ele>
        <time>2019-01-29T11:00:00Z</time>
      </trkpt>
      <trkpt lat="43.49329" lon="6.61864">
        <ele>50.13</ele>
        <time>2019-01-29T11:00:21Z</time>
      </trkpt>
      <trkpt lat="43.49327" lon="6.61862">
        <ele>50.61</ele>
        <time>2019-01-29T11:00:33Z</time>
      </trkpt>
      <trkpt lat="43.49324" lon="6.61863">
        <ele>50.61</ele>
        <time>2019-01-29T11:00:51Z</time>
      </trkpt>
      <trkpt lat="43.49326" lon="6.61864">
        <ele>50.61</ele>
        <time>2019-01-29T11:01:04Z</time>
      </trkpt>
      <trkpt lat="43.49325" lon="6.61865">
        <ele>50.13</ele>
        <time>2019-01-29T11:01:21Z</time>
      </trkpt>
      <trkpt lat="43.49326" lon="6.61866">
        <ele>50.13</ele>
        <time>2019-01-29T11:01:34Z</time>
      </trkpt>
      <trkpt lat="43.49327" lon="6.61866">
        <ele>49.65</ele>
        <time>2019-01-29T11:01:46Z</time>
      </trkpt>
      <trkpt lat="43.49327" lon="6.61865">
        <ele>50.13</ele>
        <time>2019-01-29T11:02:03Z</time>
      </trkpt>
      <trkpt lat="43.49326" lon="6.61862">
        <ele>50.13</ele>
        <time>2019-01-29T11:02:16Z</time>
      </trkpt>
      <trkpt lat="43.49327" lon="6.61862">
        <ele>50.13</ele>
        <time>2019-01-29T11:02:28Z</time>
      </trkpt>
      <trkpt lat="43.49329" lon="6.61861">
        <ele>50.13</ele>
        <time>2019-01-29T11:02:39Z</time>
      </trkpt>
      <trkpt lat="43.49328" lon="6.61862">
        <ele>50.13</ele>
        <time>2019-01-29T11:02:48Z</time>
      </trkpt>
      <trkpt lat="43.49328" lon="6.6186">
        <ele>49.65</ele>
        <time>2019-01-29T11:02:58Z</time>
      </trkpt>
      <trkpt lat="43.49328" lon="6.61859">
        <ele>50.13</ele>
        <time>2019-01-29T11:03:13Z</time>
      </trkpt>
      <trkpt lat="43.49329" lon="6.61861">
        <ele>50.13</ele>
        <time>2019-01-29T11:03:23Z</time>
      </trkpt>
      <trkpt lat="43.49326" lon="6.61862">
        <ele>50.13</ele>
        <time>2019-01-29T11:03:37Z</time>
      </trkpt>
      <trkpt lat="43.49327" lon="6.61864">
        <ele>50.13</ele>
        <time>2019-01-29T11:03:57Z</time>
      </trkpt>
      <trkpt lat="43.49327" lon="6.61863">
        <ele>50.13</ele>
        <time>2019-01-29T11:04:11Z</time>
      </trkpt>
      <trkpt lat="43.49328" lon="6.61862">
        <ele>50.13</ele>
        <time>2019-01-29T11:04:26Z</time>
      </trkpt>
      <trkpt lat="43.49328" lon="6.61861">
        <ele>50.13</ele>
        <time>2019-01-29T11:04:41Z</time>
      </trkpt>
      <trkpt lat="43.49327" lon="6.61861">
        <ele>50.13</ele>
        <time>2019-01-29T11:05:00Z</time>
      </trkpt>
      <trkpt lat="43.49328" lon="6.61861">
        <ele>50.13</ele>
        <time>2019-01-29T11:05:18Z</time>
      </trkpt>
      <trkpt lat="43.49328" lon="6.61861">
        <ele>50.13</ele>
        <time>2019-01-29T11:05:35Z</time>
      </trkpt>
      <trkpt lat="43.49328" lon="6.61861">
        <ele>50.13</ele>
        <time>2019-01-29T11:05:51Z</time>
      </trkpt>
      <trkpt lat="43.49328" lon="6.61861">
        <ele>49.65</ele>
        <time>2019-01-29T11:06:05Z</time>
      </trkpt>
      <trkpt lat="43.49328" lon="6.61861">
        <ele>50.13</ele>
        <time>2019-01-29T11:06:18Z</time>
      </trkpt>
      <trkpt lat="43.49328" lon="6.61861">
        <ele>50.13</ele>
        <time>2019-01-29T11:06:34Z</time>
      </trkpt>
      <trkpt lat="43.49328" lon="6.6186">
        <ele>49.65</ele>
        <time>2019-01-29T11:06:57Z</time>
      </trkpt>
      <trkpt lat="43.49329" lon="6.6186">
        <ele>50.13</ele>
        <time>2019-01-29T11:07:11Z</time>
      </trkpt>
      <trkpt lat="43.49329" lon="6.61861">
        <ele>50.13</ele>
        <time>2019-01-29T11:07:24Z</time>
      </trkpt>
      <trkpt lat="43.49329" lon="6.61861">
        <ele>49.65</ele>
        <time>2019-01-29T11:07:43Z</time>
      </trkpt>
      <trkpt lat="43.49328" lon="6.6186">
        <ele>49.65</ele>
        <time>2019-01-29T11:08:03Z</time>
      </trkpt>
      <trkpt lat="43.49328" lon="6.61859">
        <ele>50.13</ele>
        <time>2019-01-29T11:08:13Z</time>
      </trkpt>
      <trkpt lat="43.49328" lon="6.61861">
        <ele>49.65</ele>
        <time>2019-01-29T11:08:22Z</time>
      </trkpt>
      <trkpt lat="43.49328" lon="6.61863">
        <ele>50.13</ele>
        <time>2019-01-29T11:08:35Z</time>
      </trkpt>
      <trkpt lat="43.49327" lon="6.61863">
        <ele>50.13</ele>
        <time>2019-01-29T11:08:47Z</time>
      </trkpt>
      <trkpt lat="43.49325" lon="6.61862">
        <ele>50.13</ele>
        <time>2019-01-29T11:08:58Z</time>
      </trkpt>
      <trkpt lat="43.49326" lon="6.61861">
        <ele>53.49</ele>
        <time>2019-01-29T11:09:10Z</time>
      </trkpt>
      <trkpt lat="43.49326" lon="6.61861">
        <ele>49.16</ele>
        <time>2019-01-29T11:09:11Z</time>
      </trkpt>
      <trkpt lat="43.49326" lon="6.61861">
        <ele>50.13</ele>
        <time>2019-01-29T11:09:30Z</time>
      </trkpt>
      <trkpt lat="43.49326" lon="6.61861">
        <ele>50.61</ele>
        <time>2019-01-29T11:09:50Z</time>
      </trkpt>
      <trkpt lat="43.49326" lon="6.61861">
        <ele>49.65</ele>
        <time>2019-01-29T11:09:58Z</time>
      </trkpt>
      <trkpt lat="43.49327" lon="6.6186">
        <ele>50.61</ele>
        <time>2019-01-29T11:10:17Z</time>
      </trkpt>
      <trkpt lat="43.49328" lon="6.61859">
        <ele>49.65</ele>
        <time>2019-01-29T11:10:31Z</time>
      </trkpt>
      <trkpt lat="43.49328" lon="6.61859">
        <ele>50.13</ele>
        <time>2019-01-29T11:10:51Z</time>
      </trkpt>
      <trkpt lat="43.49329" lon="6.61858">
        <ele>50.13</ele>
        <time>2019-01-29T11:11:15Z</time>
      </trkpt>
      <trkpt lat="43.49328" lon="6.61859">
        <ele>50.13</ele>
        <time>2019-01-29T11:11:39Z</time>
      </trkpt>
      <trkpt lat="43.49328" lon="6.61861">
        <ele>50.61</ele>
        <time>2019-01-29T11:12:03Z</time>
      </trkpt>
      <trkpt lat="43.49329" lon="6.61861">
        <ele>50.61</ele>
        <time>2019-01-29T11:12:32Z</time>
      </trkpt>
      <trkpt lat="43.49328" lon="6.61861">
        <ele>51.09</ele>
        <time>2019-01-29T11:12:59Z</time>
      </trkpt>
      <trkpt lat="43.49328" lon="6.6186">
        <ele>51.09</ele>
        <time>2019-01-29T11:13:20Z</time>
      </trkpt>
      <trkpt lat="43.49329" lon="6.61861">
        <ele>51.09</ele>
        <time>2019-01-29T11:13:33Z</time>
      </trkpt>
      <trkpt lat="43.49329" lon="6.61861">
        <ele>51.09</ele>
        <time>2019-01-29T11:13:55Z</time>
      </trkpt>
      <trkpt lat="43.49329" lon="6.6186">
        <ele>51.09</ele>
        <time>2019-01-29T11:14:11Z</time>
      </trkpt>
      <trkpt lat="43.49329" lon="6.6186">
        <ele>51.09</ele>
        <time>2019-01-29T11:14:28Z</time>
      </trkpt>
      <trkpt lat="43.49329" lon="6.6186">
        <ele>51.09</ele>
        <time>2019-01-29T11:14:48Z</time>
      </trkpt>
      <trkpt lat="43.49329" lon="6.6186">
        <ele>51.09</ele>
        <time>2019-01-29T11:15:00Z</time>
      </trkpt>
      <trkpt lat="43.49327" lon="6.61861">
        <ele>51.57</ele>
        <time>2019-01-29T11:15:07Z</time>
      </trkpt>
      <trkpt lat="43.49328" lon="6.61861">
        <ele>51.09</ele>
        <time>2019-01-29T11:15:25Z</time>
      </trkpt>
      <trkpt lat="43.49331" lon="6.61864">
        <ele>51.09</ele>
        <time>2019-01-29T11:15:40Z</time>
      </trkpt>
      <trkpt lat="43.49333" lon="6.61866">
        <ele>50.61</ele>
        <time>2019-01-29T11:15:50Z</time>
      </trkpt>
      <trkpt lat="43.49335" lon="6.61867">
        <ele>50.13</ele>
        <time>2019-01-29T11:15:58Z</time>
      </trkpt>
      <trkpt lat="43.49334" lon="6.6187">
        <ele>50.61</ele>
        <time>2019-01-29T11:16:08Z</time>
      </trkpt>
      <trkpt lat="43.49338" lon="6.61876">
        <ele>50.13</ele>
        <time>2019-01-29T11:16:18Z</time>
      </trkpt>
      <trkpt lat="43.49337" lon="6.61884">
        <ele>50.13</ele>
        <time>2019-01-29T11:16:31Z</time>
      </trkpt>
      <trkpt lat="43.49336" lon="6.61884">
        <ele>50.13</ele>
        <time>2019-01-29T11:16:45Z</time>
      </trkpt>
      <trkpt lat="43.49336" lon="6.61885">
        <ele>50.61</ele>
        <time>2019-01-29T11:16:55Z</time>
      </trkpt>
      <trkpt lat="43.49335" lon="6.61882">
        <ele>50.61</ele>
        <time>2019-01-29T11:17:08Z</time>
      </trkpt>
      <trkpt lat="43.49335" lon="6.61878">
        <ele>50.61</ele>
        <time>2019-01-29T11:17:17Z</time>
      </trkpt>
      <trkpt lat="43.49337" lon="6.61875">
        <ele>51.09</ele>
        <time>2019-01-29T11:17:25Z</time>
      </trkpt>
      <trkpt lat="43.49338" lon="6.61873">
        <ele>51.09</ele>
        <time>2019-01-29T11:17:35Z</time>
      </trkpt>
      <trkpt lat="43.49337" lon="6.61871">
        <ele>52.05</ele>
        <time>2019-01-29T11:17:49Z</time>
      </trkpt>
      <trkpt lat="43.49334" lon="6.61869">
        <ele>52.05</ele>
        <time>2019-01-29T11:18:01Z</time>
      </trkpt>
      <trkpt lat="43.4933" lon="6.61864">
        <ele>51.57</ele>
        <time>2019-01-29T11:18:18Z</time>
      </trkpt>
      <trkpt lat="43.4933" lon="6.61863">
        <ele>51.57</ele>
        <time>2019-01-29T11:18:37Z</time>
      </trkpt>
      <trkpt lat="43.4933" lon="6.61863">
        <ele>51.57</ele>
        <time>2019-01-29T11:18:59Z</time>
      </trkpt>
      <trkpt lat="43.4933" lon="6.61862">
        <ele>52.05</ele>
        <time>2019-01-29T11:19:23Z</time>
      </trkpt>
      <trkpt lat="43.49329" lon="6.61862">
        <ele>51.57</ele>
        <time>2019-01-29T11:19:35Z</time>
      </trkpt>
      <trkpt lat="43.49329" lon="6.61862">
        <ele>51.57</ele>
        <time>2019-01-29T11:19:51Z</time>
      </trkpt>
      <trkpt lat="43.49328" lon="6.6186">
        <ele>51.09</ele>
        <time>2019-01-29T11:20:10Z</time>
      </trkpt>
      <trkpt lat="43.49328" lon="6.6186">
        <ele>51.09</ele>
        <time>2019-01-29T11:20:27Z</time>
      </trkpt>
      <trkpt lat="43.49328" lon="6.61859">
        <ele>51.09</ele>
        <time>2019-01-29T11:20:44Z</time>
      </trkpt>
      <trkpt lat="43.49328" lon="6.61859">
        <ele>52.53</ele>
        <time>2019-01-29T11:20:58Z</time>
      </trkpt>
      <trkpt lat="43.49328" lon="6.61859">
        <ele>51.09</ele>
        <time>2019-01-29T11:21:10Z</time>
      </trkpt>
      <trkpt lat="43.49328" lon="6.61859">
        <ele>51.09</ele>
        <time>2019-01-29T11:21:25Z</time>
      </trkpt>
      <trkpt lat="43.49329" lon="6.6186">
        <ele>51.09</ele>
        <time>2019-01-29T11:21:40Z</time>
      </trkpt>
      <trkpt lat="43.49329" lon="6.6186">
        <ele>51.09</ele>
        <time>2019-01-29T11:22:03Z</time>
      </trkpt>
      <trkpt lat="43.4933" lon="6.61861">
        <ele>51.09</ele>
        <time>2019-01-29T11:22:27Z</time>
      </trkpt>
      <trkpt lat="43.4933" lon="6.61861">
        <ele>51.09</ele>
        <time>2019-01-29T11:22:52Z</time>
      </trkpt>
      <trkpt lat="43.4933" lon="6.61861">
        <ele>51.09</ele>
        <time>2019-01-29T11:23:11Z</time>
      </trkpt>
      <trkpt lat="43.4933" lon="6.6186">
        <ele>51.09</ele>
        <time>2019-01-29T11:23:25Z</time>
      </trkpt>
      <trkpt lat="43.4933" lon="6.61859">
        <ele>51.09</ele>
        <time>2019-01-29T11:23:50Z</time>
      </trkpt>
      <trkpt lat="43.4933" lon="6.61858">
        <ele>51.09</ele>
        <time>2019-01-29T11:24:14Z</time>
      </trkpt>
      <trkpt lat="43.4933" lon="6.61858">
        <ele>51.09</ele>
        <time>2019-01-29T11:24:39Z</time>
      </trkpt>
      <trkpt lat="43.4933" lon="6.61858">
        <ele>51.09</ele>
        <time>2019-01-29T11:25:05Z</time>
      </trkpt>
      <trkpt lat="43.4933" lon="6.61858">
        <ele>51.09</ele>
        <time>2019-01-29T11:25:26Z</time>
      </trkpt>
      <trkpt lat="43.49329" lon="6.61857">
        <ele>51.09</ele>
        <time>2019-01-29T11:25:47Z</time>
      </trkpt>
      <trkpt lat="43.49327" lon="6.61858">
        <ele>51.09</ele>
        <time>2019-01-29T11:26:08Z</time>
      </trkpt>
      <trkpt lat="43.49325" lon="6.61857">
        <ele>51.09</ele>
        <time>2019-01-29T11:26:29Z</time>
      </trkpt>
      <trkpt lat="43.49323" lon="6.61853">
        <ele>51.57</ele>
        <time>2019-01-29T11:26:51Z</time>
      </trkpt>
      <trkpt lat="43.49324" lon="6.61853">
        <ele>51.09</ele>
        <time>2019-01-29T11:27:14Z</time>
      </trkpt>
      <trkpt lat="43.49324" lon="6.61854">
        <ele>51.09</ele>
        <time>2019-01-29T11:27:38Z</time>
      </trkpt>
      <trkpt lat="43.49324" lon="6.61853">
        <ele>51.09</ele>
        <time>2019-01-29T11:28:03Z</time>
      </trkpt>
      <trkpt lat="43.49325" lon="6.61853">
        <ele>51.09</ele>
        <time>2019-01-29T11:28:25Z</time>
      </trkpt>
      <trkpt lat="43.49325" lon="6.61853">
        <ele>51.57</ele>
        <time>2019-01-29T11:28:43Z</time>
      </trkpt>
      <trkpt lat="43.49326" lon="6.61854">
        <ele>51.57</ele>
        <time>2019-01-29T11:28:56Z</time>
      </trkpt>
      <trkpt lat="43.49326" lon="6.61852">
        <ele>51.57</ele>
        <time>2019-01-29T11:29:21Z</time>
      </trkpt>
      <trkpt lat="43.49326" lon="6.61852">
        <ele>52.05</ele>
        <time>2019-01-29T11:29:39Z</time>
      </trkpt>
      <trkpt lat="43.49326" lon="6.61853">
        <ele>52.05</ele>
        <time>2019-01-29T11:29:56Z</time>
      </trkpt>
      <trkpt lat="43.49327" lon="6.61854">
        <ele>52.05</ele>
        <time>2019-01-29T11:30:13Z</time>
      </trkpt>
      <trkpt lat="43.49326" lon="6.61855">
        <ele>52.05</ele>
        <time>2019-01-29T11:30:27Z</time>
      </trkpt>
      <trkpt lat="43.49326" lon="6.61855">
        <ele>52.05</ele>
        <time>2019-01-29T11:30:39Z</time>
      </trkpt>
      <trkpt lat="43.49325" lon="6.61854">
        <ele>52.05</ele>
        <time>2019-01-29T11:30:53Z</time>
      </trkpt>
      <trkpt lat="43.49325" lon="6.61854">
        <ele>52.05</ele>
        <time>2019-01-29T11:31:11Z</time>
      </trkpt>
      <trkpt lat="43.49325" lon="6.61855">
        <ele>52.05</ele>
        <time>2019-01-29T11:31:31Z</time>
      </trkpt>
      <trkpt lat="43.49325" lon="6.61856">
        <ele>52.53</ele>
        <time>2019-01-29T11:31:54Z</time>
      </trkpt>
      <trkpt lat="43.49325" lon="6.61855">
        <ele>52.53</ele>
        <time>2019-01-29T11:32:19Z</time>
      </trkpt>
      <trkpt lat="43.49325" lon="6.61855">
        <ele>52.05</ele>
        <time>2019-01-29T11:32:46Z</time>
      </trkpt>
      <trkpt lat="43.49325" lon="6.61857">
        <ele>52.53</ele>
        <time>2019-01-29T11:33:07Z</time>
      </trkpt>
      <trkpt lat="43.49325" lon="6.61857">
        <ele>52.53</ele>
        <time>2019-01-29T11:33:28Z</time>
      </trkpt>
      <trkpt lat="43.49324" lon="6.61857">
        <ele>52.53</ele>
        <time>2019-01-29T11:33:43Z</time>
      </trkpt>
      <trkpt lat="43.49323" lon="6.61858">
        <ele>52.53</ele>
        <time>2019-01-29T11:34:00Z</time>
      </trkpt>
      <trkpt lat="43.49323" lon="6.61859">
        <ele>55.41</ele>
        <time>2019-01-29T11:34:03Z</time>
      </trkpt>
      <trkpt lat="43.49323" lon="6.61859">
        <ele>52.05</ele>
        <time>2019-01-29T11:34:04Z</time>
      </trkpt>
      <trkpt lat="43.49322" lon="6.61861">
        <ele>51.57</ele>
        <time>2019-01-29T11:34:21Z</time>
      </trkpt>
      <trkpt lat="43.49322" lon="6.61861">
        <ele>54.45</ele>
        <time>2019-01-29T11:34:23Z</time>
      </trkpt>
      <trkpt lat="43.49322" lon="6.61861">
        <ele>51.57</ele>
        <time>2019-01-29T11:34:25Z</time>
      </trkpt>
      <trkpt lat="43.49322" lon="6.61862">
        <ele>55.41</ele>
        <time>2019-01-29T11:34:26Z</time>
      </trkpt>
      <trkpt lat="43.49322" lon="6.61862">
        <ele>52.05</ele>
        <time>2019-01-29T11:34:27Z</time>
      </trkpt>
      <trkpt lat="43.49322" lon="6.61861">
        <ele>53.01</ele>
        <time>2019-01-29T11:34:43Z</time>
      </trkpt>
      <trkpt lat="43.49323" lon="6.61858">
        <ele>52.53</ele>
        <time>2019-01-29T11:34:57Z</time>
      </trkpt>
      <trkpt lat="43.49324" lon="6.61857">
        <ele>52.53</ele>
        <time>2019-01-29T11:35:17Z</time>
      </trkpt>
      <trkpt lat="43.49324" lon="6.61854">
        <ele>52.53</ele>
        <time>2019-01-29T11:35:38Z</time>
      </trkpt>
      <trkpt lat="43.49324" lon="6.61853">
        <ele>52.53</ele>
        <time>2019-01-29T11:35:57Z</time>
      </trkpt>
      <trkpt lat="43.49324" lon="6.61854">
        <ele>53.01</ele>
        <time>2019-01-29T11:36:14Z</time>
      </trkpt>
      <trkpt lat="43.49325" lon="6.61855">
        <ele>53.01</ele>
        <time>2019-01-29T11:36:37Z</time>
      </trkpt>
      <trkpt lat="43.49325" lon="6.61856">
        <ele>53.01</ele>
        <time>2019-01-29T11:36:54Z</time>
      </trkpt>
      <trkpt lat="43.49326" lon="6.61856">
        <ele>52.53</ele>
        <time>2019-01-29T11:37:11Z</time>
      </trkpt>
      <trkpt lat="43.49318" lon="6.61858">
        <ele>53.01</ele>
        <time>2019-01-29T11:37:24Z</time>
      </trkpt>
      <trkpt lat="43.49312" lon="6.61863">
        <ele>53.01</ele>
        <time>2019-01-29T11:37:43Z</time>
      </trkpt>
      <trkpt lat="43.4932" lon="6.61846">
        <ele>53.01</ele>
        <time>2019-01-29T11:38:01Z</time>
      </trkpt>
      <trkpt lat="43.49323" lon="6.61836">
        <ele>53.01</ele>
        <time>2019-01-29T11:38:21Z</time>
      </trkpt>
      <trkpt lat="43.49327" lon="6.61838">
        <ele>53.01</ele>
        <time>2019-01-29T11:38:42Z</time>
      </trkpt>
      <trkpt lat="43.49325" lon="6.61848">
        <ele>53.01</ele>
        <time>2019-01-29T11:39:07Z</time>
      </trkpt>
      <trkpt lat="43.49325" lon="6.61849">
        <ele>53.49</ele>
        <time>2019-01-29T11:39:32Z</time>
      </trkpt>
      <trkpt lat="43.49325" lon="6.6185">
        <ele>53.01</ele>
        <time>2019-01-29T11:39:49Z</time>
      </trkpt>
      <trkpt lat="43.49324" lon="6.61853">
        <ele>53.49</ele>
        <time>2019-01-29T11:40:01Z</time>
      </trkpt>
      <trkpt lat="43.49325" lon="6.61854">
        <ele>53.97</ele>
        <time>2019-01-29T11:40:16Z</time>
      </trkpt>
      <trkpt lat="43.49327" lon="6.61855">
        <ele>53.97</ele>
        <time>2019-01-29T11:40:31Z</time>
      </trkpt>
      <trkpt lat="43.49327" lon="6.61857">
        <ele>53.97</ele>
        <time>2019-01-29T11:40:41Z</time>
      </trkpt>
      <trkpt lat="43.49327" lon="6.61859">
        <ele>53.97</ele>
        <time>2019-01-29T11:40:56Z</time>
      </trkpt>
      <trkpt lat="43.49318" lon="6.61859">
        <ele>53.97</ele>
        <time>2019-01-29T11:41:08Z</time>
      </trkpt>
      <trkpt lat="43.49321" lon="6.6186">
        <ele>53.97</ele>
        <time>2019-01-29T11:41:18Z</time>
      </trkpt>
      <trkpt lat="43.49321" lon="6.6186">
        <ele>53.97</ele>
        <time>2019-01-29T11:41:33Z</time>
      </trkpt>
      <trkpt lat="43.49321" lon="6.61856">
        <ele>53.97</ele>
        <time>2019-01-29T11:41:52Z</time>
      </trkpt>
      <trkpt lat="43.4932" lon="6.61837">
        <ele>54.45</ele>
        <time>2019-01-29T11:42:05Z</time>
      </trkpt>
      <trkpt lat="43.49322" lon="6.61822">
        <ele>54.45</ele>
        <time>2019-01-29T11:42:17Z</time>
      </trkpt>
      <trkpt lat="43.49324" lon="6.61822">
        <ele>54.45</ele>
        <time>2019-01-29T11:42:26Z</time>
      </trkpt>
      <trkpt lat="43.49329" lon="6.61822">
        <ele>54.45</ele>
        <time>2019-01-29T11:42:45Z</time>
      </trkpt>
      <trkpt lat="43.49344" lon="6.6182">
        <ele>54.45</ele>
        <time>2019-01-29T11:42:58Z</time>
      </trkpt>
      <trkpt lat="43.49352" lon="6.61815">
        <ele>54.45</ele>
        <time>2019-01-29T11:43:07Z</time>
      </trkpt>
      <trkpt lat="43.49361" lon="6.61819">
        <ele>54.93</ele>
        <time>2019-01-29T11:43:19Z</time>
      </trkpt>
      <trkpt lat="43.49364" lon="6.61822">
        <ele>54.93</ele>
        <time>2019-01-29T11:43:21Z</time>
      </trkpt>
      <trkpt lat="43.49368" lon="6.61823">
        <ele>54.93</ele>
        <time>2019-01-29T11:43:25Z</time>
      </trkpt>
      <trkpt lat="43.49374" lon="6.61826">
        <ele>54.93</ele>
        <time>2019-01-29T11:43:31Z</time>
      </trkpt>
      <trkpt lat="43.49378" lon="6.61837">
        <ele>54.93</ele>
        <time>2019-01-29T11:43:39Z</time>
      </trkpt>
      <trkpt lat="43.49379" lon="6.61847">
        <ele>52.05</ele>
        <time>2019-01-29T11:43:46Z</time>
      </trkpt>
      <trkpt lat="43.49383" lon="6.61857">
        <ele>55.41</ele>
        <time>2019-01-29T11:43:55Z</time>
      </trkpt>
      <trkpt lat="43.49385" lon="6.61861">
        <ele>48.68</ele>
        <time>2019-01-29T11:43:59Z</time>
      </trkpt>
      <trkpt lat="43.49385" lon="6.61862">
        <ele>55.89</ele>
        <time>2019-01-29T11:44:00Z</time>
      </trkpt>
      <trkpt lat="43.4939" lon="6.61869">
        <ele>55.89</ele>
        <time>2019-01-29T11:44:08Z</time>
      </trkpt>
      <trkpt lat="43.49395" lon="6.61877">
        <ele>56.86</ele>
        <time>2019-01-29T11:44:19Z</time>
      </trkpt>
      <trkpt lat="43.49398" lon="6.61878">
        <ele>57.34</ele>
        <time>2019-01-29T11:44:28Z</time>
      </trkpt>
      <trkpt lat="43.494" lon="6.6188">
        <ele>57.34</ele>
        <time>2019-01-29T11:44:32Z</time>
      </trkpt>
      <trkpt lat="43.49407" lon="6.61891">
        <ele>57.82</ele>
        <time>2019-01-29T11:44:43Z</time>
      </trkpt>
      <trkpt lat="43.4942" lon="6.61899">
        <ele>57.82</ele>
        <time>2019-01-29T11:44:52Z</time>
      </trkpt>
      <trkpt lat="43.4942" lon="6.61899">
        <ele>57.82</ele>
        <time>2019-01-29T11:44:53Z</time>
      </trkpt>
      <trkpt lat="43.49433" lon="6.61905">
        <ele>57.34</ele>
        <time>2019-01-29T11:45:07Z</time>
      </trkpt>
      <trkpt lat="43.49442" lon="6.61911">
        <ele>57.34</ele>
        <time>2019-01-29T11:45:19Z</time>
      </trkpt>
      <trkpt lat="43.49443" lon="6.61911">
        <ele>57.34</ele>
        <time>2019-01-29T11:45:20Z</time>
      </trkpt>
      <trkpt lat="43.49452" lon="6.61919">
        <ele>56.37</ele>
        <time>2019-01-29T11:45:31Z</time>
      </trkpt>
      <trkpt lat="43.49463" lon="6.61926">
        <ele>56.37</ele>
        <time>2019-01-29T11:45:43Z</time>
      </trkpt>
      <trkpt lat="43.49477" lon="6.61932">
        <ele>55.89</ele>
        <time>2019-01-29T11:45:55Z</time>
      </trkpt>
      <trkpt lat="43.49488" lon="6.61933">
        <ele>55.89</ele>
        <time>2019-01-29T11:46:06Z</time>
      </trkpt>
      <trkpt lat="43.49498" lon="6.61943">
        <ele>55.41</ele>
        <time>2019-01-29T11:46:20Z</time>
      </trkpt>
      <trkpt lat="43.49502" lon="6.61948">
        <ele>55.89</ele>
        <time>2019-01-29T11:46:31Z</time>
      </trkpt>
      <trkpt lat="43.49511" lon="6.61955">
        <ele>56.37</ele>
        <time>2019-01-29T11:46:44Z</time>
      </trkpt>
      <trkpt lat="43.49527" lon="6.61964">
        <ele>56.86</ele>
        <time>2019-01-29T11:46:58Z</time>
      </trkpt>
      <trkpt lat="43.4953" lon="6.61969">
        <ele>57.34</ele>
        <time>2019-01-29T11:47:09Z</time>
      </trkpt>
      <trkpt lat="43.49537" lon="6.61974">
        <ele>57.82</ele>
        <time>2019-01-29T11:47:19Z</time>
      </trkpt>
      <trkpt lat="43.49546" lon="6.61978">
        <ele>57.82</ele>
        <time>2019-01-29T11:47:30Z</time>
      </trkpt>
      <trkpt lat="43.49554" lon="6.61985">
        <ele>57.82</ele>
        <time>2019-01-29T11:47:38Z</time>
      </trkpt>
      <trkpt lat="43.49562" lon="6.61992">
        <ele>58.3</ele>
        <time>2019-01-29T11:47:49Z</time>
      </trkpt>
      <trkpt lat="43.49574" lon="6.61999">
        <ele>58.3</ele>
        <time>2019-01-29T11:48:02Z</time>
      </trkpt>
      <trkpt lat="43.49591" lon="6.62009">
        <ele>58.3</ele>
        <time>2019-01-29T11:48:15Z</time>
      </trkpt>
      <trkpt lat="43.49599" lon="6.62011">
        <ele>58.3</ele>
        <time>2019-01-29T11:48:23Z</time>
      </trkpt>
      <trkpt lat="43.49611" lon="6.62014">
        <ele>58.3</ele>
        <time>2019-01-29T11:48:35Z</time>
      </trkpt>
      <trkpt lat="43.49619" lon="6.62017">
        <ele>57.82</ele>
        <time>2019-01-29T11:48:46Z</time>
      </trkpt>
      <trkpt lat="43.49632" lon="6.6202">
        <ele>57.82</ele>
        <time>2019-01-29T11:48:57Z</time>
      </trkpt>
      <trkpt lat="43.49641" lon="6.62021">
        <ele>57.34</ele>
        <time>2019-01-29T11:49:09Z</time>
      </trkpt>
      <trkpt lat="43.49652" lon="6.6202">
        <ele>56.86</ele>
        <time>2019-01-29T11:49:19Z</time>
      </trkpt>
      <trkpt lat="43.49662" lon="6.62016">
        <ele>56.37</ele>
        <time>2019-01-29T11:49:29Z</time>
      </trkpt>
      <trkpt lat="43.49669" lon="6.62011">
        <ele>55.89</ele>
        <time>2019-01-29T11:49:38Z</time>
      </trkpt>
      <trkpt lat="43.49673" lon="6.62009">
        <ele>55.89</ele>
        <time>2019-01-29T11:49:42Z</time>
      </trkpt>
      <trkpt lat="43.49674" lon="6.62007">
        <ele>55.89</ele>
        <time>2019-01-29T11:49:44Z</time>
      </trkpt>
      <trkpt lat="43.49677" lon="6.62005">
        <ele>55.41</ele>
        <time>2019-01-29T11:49:47Z</time>
      </trkpt>
      <trkpt lat="43.49678" lon="6.62">
        <ele>54.93</ele>
        <time>2019-01-29T11:49:51Z</time>
      </trkpt>
      <trkpt lat="43.49681" lon="6.61995">
        <ele>54.93</ele>
        <time>2019-01-29T11:49:56Z</time>
      </trkpt>
      <trkpt lat="43.49685" lon="6.61981">
        <ele>53.49</ele>
        <time>2019-01-29T11:50:08Z</time>
      </trkpt>
      <trkpt lat="43.49692" lon="6.61978">
        <ele>52.53</ele>
        <time>2019-01-29T11:50:19Z</time>
      </trkpt>
      <trkpt lat="43.49704" lon="6.61979">
        <ele>52.05</ele>
        <time>2019-01-29T11:50:29Z</time>
      </trkpt>
      <trkpt lat="43.4971" lon="6.61981">
        <ele>52.05</ele>
        <time>2019-01-29T11:50:34Z</time>
      </trkpt>
      <trkpt lat="43.49724" lon="6.61983">
        <ele>51.09</ele>
        <time>2019-01-29T11:50:45Z</time>
      </trkpt>
      <trkpt lat="43.49737" lon="6.61984">
        <ele>50.61</ele>
        <time>2019-01-29T11:50:57Z</time>
      </trkpt>
      <trkpt lat="43.49744" lon="6.61984">
        <ele>50.13</ele>
        <time>2019-01-29T11:51:07Z</time>
      </trkpt>
      <trkpt lat="43.49747" lon="6.61986">
        <ele>49.65</ele>
        <time>2019-01-29T11:51:10Z</time>
      </trkpt>
      <trkpt lat="43.49762" lon="6.61989">
        <ele>49.16</ele>
        <time>2019-01-29T11:51:23Z</time>
      </trkpt>
      <trkpt lat="43.49773" lon="6.61996">
        <ele>48.68</ele>
        <time>2019-01-29T11:51:38Z</time>
      </trkpt>
      <trkpt lat="43.4978" lon="6.62">
        <ele>48.68</ele>
        <time>2019-01-29T11:51:47Z</time>
      </trkpt>
      <trkpt lat="43.49791" lon="6.62006">
        <ele>48.68</ele>
        <time>2019-01-29T11:51:57Z</time>
      </trkpt>
      <trkpt lat="43.49798" lon="6.62017">
        <ele>48.2</ele>
        <time>2019-01-29T11:52:07Z</time>
      </trkpt>
      <trkpt lat="43.49801" lon="6.62026">
        <ele>48.2</ele>
        <time>2019-01-29T11:52:16Z</time>
      </trkpt>
      <trkpt lat="43.49804" lon="6.62039">
        <ele>48.2</ele>
        <time>2019-01-29T11:52:25Z</time>
      </trkpt>
      <trkpt lat="43.49806" lon="6.62047">
        <ele>48.2</ele>
        <time>2019-01-29T11:52:32Z</time>
      </trkpt>
      <trkpt lat="43.4981" lon="6.62063">
        <ele>47.72</ele>
        <time>2019-01-29T11:52:41Z</time>
      </trkpt>
      <trkpt lat="43.49811" lon="6.62064">
        <ele>47.72</ele>
        <time>2019-01-29T11:52:42Z</time>
      </trkpt>
      <trkpt lat="43.49818" lon="6.62072">
        <ele>46.76</ele>
        <time>2019-01-29T11:52:50Z</time>
      </trkpt>
      <trkpt lat="43.49821" lon="6.62084">
        <ele>46.28</ele>
        <time>2019-01-29T11:53:00Z</time>
      </trkpt>
      <trkpt lat="43.49821" lon="6.62096">
        <ele>44.84</ele>
        <time>2019-01-29T11:53:09Z</time>
      </trkpt>
      <trkpt lat="43.49819" lon="6.62106">
        <ele>43.4</ele>
        <time>2019-01-29T11:53:17Z</time>
      </trkpt>
      <trkpt lat="43.49823" lon="6.62111">
        <ele>42.44</ele>
        <time>2019-01-29T11:53:22Z</time>
      </trkpt>
      <trkpt lat="43.49825" lon="6.62117">
        <ele>42.44</ele>
        <time>2019-01-29T11:53:32Z</time>
      </trkpt>
      <trkpt lat="43.49825" lon="6.62117">
        <ele>41.95</ele>
        <time>2019-01-29T11:53:47Z</time>
      </trkpt>
      <trkpt lat="43.49825" lon="6.62116">
        <ele>42.44</ele>
        <time>2019-01-29T11:53:59Z</time>
      </trkpt>
      <trkpt lat="43.49825" lon="6.62115">
        <ele>42.44</ele>
        <time>2019-01-29T11:54:12Z</time>
      </trkpt>
      <trkpt lat="43.49824" lon="6.62113">
        <ele>41.95</ele>
        <time>2019-01-29T11:54:23Z</time>
      </trkpt>
      <trkpt lat="43.49824" lon="6.62113">
        <ele>42.44</ele>
        <time>2019-01-29T11:54:38Z</time>
      </trkpt>
      <trkpt lat="43.49824" lon="6.62114">
        <ele>41.95</ele>
        <time>2019-01-29T11:54:52Z</time>
      </trkpt>
      <trkpt lat="43.49824" lon="6.62114">
        <ele>41.95</ele>
        <time>2019-01-29T11:55:05Z</time>
      </trkpt>
      <trkpt lat="43.49824" lon="6.62114">
        <ele>41.95</ele>
        <time>2019-01-29T11:55:25Z</time>
      </trkpt>
      <trkpt lat="43.49825" lon="6.62115">
        <ele>42.44</ele>
        <time>2019-01-29T11:55:51Z</time>
      </trkpt>
      <trkpt lat="43.49824" lon="6.62115">
        <ele>41.95</ele>
        <time>2019-01-29T11:56:12Z</time>
      </trkpt>
      <trkpt lat="43.49824" lon="6.62115">
        <ele>41.95</ele>
        <time>2019-01-29T11:56:33Z</time>
      </trkpt>
      <trkpt lat="43.49824" lon="6.62115">
        <ele>41.95</ele>
        <time>2019-01-29T11:56:48Z</time>
      </trkpt>
      <trkpt lat="43.49825" lon="6.62114">
        <ele>42.44</ele>
        <time>2019-01-29T11:57:03Z</time>
      </trkpt>
      <trkpt lat="43.49825" lon="6.62114">
        <ele>42.44</ele>
        <time>2019-01-29T11:57:23Z</time>
      </trkpt>
      <trkpt lat="43.49825" lon="6.62115">
        <ele>42.44</ele>
        <time>2019-01-29T11:57:44Z</time>
      </trkpt>
      <trkpt lat="43.49825" lon="6.62116">
        <ele>42.44</ele>
        <time>2019-01-29T11:57:58Z</time>
      </trkpt>
      <trkpt lat="43.49824" lon="6.62115">
        <ele>42.44</ele>
        <time>2019-01-29T11:58:13Z</time>
      </trkpt>
      <trkpt lat="43.49825" lon="6.62114">
        <ele>42.44</ele>
        <time>2019-01-29T11:58:28Z</time>
      </trkpt>
      <trkpt lat="43.49825" lon="6.62114">
        <ele>42.44</ele>
        <time>2019-01-29T11:58:49Z</time>
      </trkpt>
      <trkpt lat="43.49824" lon="6.62113">
        <ele>41.95</ele>
        <time>2019-01-29T11:58:57Z</time>
      </trkpt>
      <trkpt lat="43.49823" lon="6.62114">
        <ele>42.44</ele>
        <time>2019-01-29T11:59:13Z</time>
      </trkpt>
      <trkpt lat="43.49823" lon="6.62114">
        <ele>42.44</ele>
        <time>2019-01-29T11:59:30Z</time>
      </trkpt>
      <trkpt lat="43.49822" lon="6.62114">
        <ele>42.44</ele>
        <time>2019-01-29T11:59:43Z</time>
      </trkpt>
      <trkpt lat="43.49823" lon="6.62113">
        <ele>41.95</ele>
        <time>2019-01-29T11:59:57Z</time>
      </trkpt>
      <trkpt lat="43.49824" lon="6.62111">
        <ele>41.95</ele>
        <time>2019-01-29T12:00:11Z</time>
      </trkpt>
      <trkpt lat="43.49825" lon="6.6211">
        <ele>42.44</ele>
        <time>2019-01-29T12:00:29Z</time>
      </trkpt>
      <trkpt lat="43.49826" lon="6.6211">
        <ele>42.44</ele>
        <time>2019-01-29T12:00:48Z</time>
      </trkpt>
      <trkpt lat="43.49823" lon="6.62109">
        <ele>42.44</ele>
        <time>2019-01-29T12:01:07Z</time>
      </trkpt>
      <trkpt lat="43.49822" lon="6.62107">
        <ele>42.44</ele>
        <time>2019-01-29T12:01:18Z</time>
      </trkpt>
      <trkpt lat="43.49822" lon="6.62108">
        <ele>42.44</ele>
        <time>2019-01-29T12:01:37Z</time>
      </trkpt>
      <trkpt lat="43.49822" lon="6.6211">
        <ele>42.44</ele>
        <time>2019-01-29T12:01:52Z</time>
      </trkpt>
      <trkpt lat="43.49822" lon="6.62111">
        <ele>41.95</ele>
        <time>2019-01-29T12:02:11Z</time>
      </trkpt>
      <trkpt lat="43.49823" lon="6.6211">
        <ele>42.44</ele>
        <time>2019-01-29T12:02:24Z</time>
      </trkpt>
      <trkpt lat="43.49822" lon="6.62108">
        <ele>42.44</ele>
        <time>2019-01-29T12:02:41Z</time>
      </trkpt>
      <trkpt lat="43.49822" lon="6.62107">
        <ele>41.95</ele>
        <time>2019-01-29T12:02:42Z</time>
      </trkpt>
      <trkpt lat="43.49822" lon="6.62097">
        <ele>43.4</ele>
        <time>2019-01-29T12:02:50Z</time>
      </trkpt>
      <trkpt lat="43.4982" lon="6.62087">
        <ele>44.36</ele>
        <time>2019-01-29T12:03:00Z</time>
      </trkpt>
      <trkpt lat="43.49819" lon="6.62081">
        <ele>45.8</ele>
        <time>2019-01-29T12:03:09Z</time>
      </trkpt>
      <trkpt lat="43.49813" lon="6.62068">
        <ele>46.76</ele>
        <time>2019-01-29T12:03:21Z</time>
      </trkpt>
      <trkpt lat="43.4981" lon="6.62062">
        <ele>47.24</ele>
        <time>2019-01-29T12:03:29Z</time>
      </trkpt>
      <trkpt lat="43.49805" lon="6.62047">
        <ele>47.24</ele>
        <time>2019-01-29T12:03:40Z</time>
      </trkpt>
      <trkpt lat="43.49802" lon="6.62039">
        <ele>47.72</ele>
        <time>2019-01-29T12:03:49Z</time>
      </trkpt>
      <trkpt lat="43.49799" lon="6.6203">
        <ele>47.72</ele>
        <time>2019-01-29T12:03:58Z</time>
      </trkpt>
      <trkpt lat="43.49794" lon="6.62016">
        <ele>47.72</ele>
        <time>2019-01-29T12:04:09Z</time>
      </trkpt>
      <trkpt lat="43.49787" lon="6.6201">
        <ele>48.2</ele>
        <time>2019-01-29T12:04:18Z</time>
      </trkpt>
      <trkpt lat="43.49778" lon="6.62003">
        <ele>48.2</ele>
        <time>2019-01-29T12:04:29Z</time>
      </trkpt>
      <trkpt lat="43.4977" lon="6.61998">
        <ele>48.2</ele>
        <time>2019-01-29T12:04:39Z</time>
      </trkpt>
      <trkpt lat="43.49764" lon="6.61993">
        <ele>48.2</ele>
        <time>2019-01-29T12:04:50Z</time>
      </trkpt>
      <trkpt lat="43.49747" lon="6.61989">
        <ele>48.68</ele>
        <time>2019-01-29T12:05:03Z</time>
      </trkpt>
      <trkpt lat="43.49746" lon="6.61987">
        <ele>48.68</ele>
        <time>2019-01-29T12:05:05Z</time>
      </trkpt>
      <trkpt lat="43.49747" lon="6.61973">
        <ele>47.72</ele>
        <time>2019-01-29T12:05:16Z</time>
      </trkpt>
      <trkpt lat="43.49752" lon="6.61959">
        <ele>46.28</ele>
        <time>2019-01-29T12:05:28Z</time>
      </trkpt>
      <trkpt lat="43.49754" lon="6.61951">
        <ele>45.8</ele>
        <time>2019-01-29T12:05:38Z</time>
      </trkpt>
      <trkpt lat="43.49756" lon="6.61945">
        <ele>45.32</ele>
        <time>2019-01-29T12:05:48Z</time>
      </trkpt>
      <trkpt lat="43.49758" lon="6.61944">
        <ele>44.84</ele>
        <time>2019-01-29T12:06:00Z</time>
      </trkpt>
      <trkpt lat="43.49759" lon="6.61944">
        <ele>44.84</ele>
        <time>2019-01-29T12:06:15Z</time>
      </trkpt>
      <trkpt lat="43.49759" lon="6.61943">
        <ele>44.84</ele>
        <time>2019-01-29T12:06:27Z</time>
      </trkpt>
      <trkpt lat="43.4976" lon="6.61943">
        <ele>44.84</ele>
        <time>2019-01-29T12:06:41Z</time>
      </trkpt>
      <trkpt lat="43.4976" lon="6.61943">
        <ele>44.84</ele>
        <time>2019-01-29T12:06:56Z</time>
      </trkpt>
      <trkpt lat="43.49761" lon="6.61943">
        <ele>44.84</ele>
        <time>2019-01-29T12:07:15Z</time>
      </trkpt>
      <trkpt lat="43.49763" lon="6.61941">
        <ele>44.84</ele>
        <time>2019-01-29T12:07:28Z</time>
      </trkpt>
      <trkpt lat="43.49768" lon="6.61934">
        <ele>45.32</ele>
        <time>2019-01-29T12:07:39Z</time>
      </trkpt>
      <trkpt lat="43.49773" lon="6.61926">
        <ele>45.8</ele>
        <time>2019-01-29T12:07:49Z</time>
      </trkpt>
      <trkpt lat="43.49778" lon="6.61916">
        <ele>45.8</ele>
        <time>2019-01-29T12:08:00Z</time>
      </trkpt>
      <trkpt lat="43.49779" lon="6.61914">
        <ele>45.8</ele>
        <time>2019-01-29T12:08:02Z</time>
      </trkpt>
      <trkpt lat="43.49783" lon="6.61905">
        <ele>45.8</ele>
        <time>2019-01-29T12:08:12Z</time>
      </trkpt>
      <trkpt lat="43.49789" lon="6.61894">
        <ele>46.28</ele>
        <time>2019-01-29T12:08:23Z</time>
      </trkpt>
      <trkpt lat="43.49797" lon="6.61887">
        <ele>46.76</ele>
        <time>2019-01-29T12:08:33Z</time>
      </trkpt>
      <trkpt lat="43.49806" lon="6.61882">
        <ele>47.24</ele>
        <time>2019-01-29T12:08:44Z</time>
      </trkpt>
      <trkpt lat="43.49816" lon="6.61875">
        <ele>47.24</ele>
        <time>2019-01-29T12:08:57Z</time>
      </trkpt>
      <trkpt lat="43.49826" lon="6.6187">
        <ele>47.72</ele>
        <time>2019-01-29T12:09:08Z</time>
      </trkpt>
      <trkpt lat="43.49832" lon="6.61867">
        <ele>47.72</ele>
        <time>2019-01-29T12:09:18Z</time>
      </trkpt>
      <trkpt lat="43.49837" lon="6.61864">
        <ele>48.2</ele>
        <time>2019-01-29T12:09:28Z</time>
      </trkpt>
      <trkpt lat="43.49841" lon="6.61856">
        <ele>48.2</ele>
        <time>2019-01-29T12:09:39Z</time>
      </trkpt>
      <trkpt lat="43.49858" lon="6.61846">
        <ele>48.2</ele>
        <time>2019-01-29T12:09:50Z</time>
      </trkpt>
      <trkpt lat="43.49867" lon="6.61838">
        <ele>48.2</ele>
        <time>2019-01-29T12:09:59Z</time>
      </trkpt>
      <trkpt lat="43.49873" lon="6.61831">
        <ele>47.72</ele>
        <time>2019-01-29T12:10:10Z</time>
      </trkpt>
      <trkpt lat="43.49883" lon="6.61823">
        <ele>48.2</ele>
        <time>2019-01-29T12:10:22Z</time>
      </trkpt>
      <trkpt lat="43.4989" lon="6.61816">
        <ele>48.2</ele>
        <time>2019-01-29T12:10:34Z</time>
      </trkpt>
      <trkpt lat="43.49898" lon="6.61812">
        <ele>48.68</ele>
        <time>2019-01-29T12:10:46Z</time>
      </trkpt>
      <trkpt lat="43.49906" lon="6.61806">
        <ele>48.68</ele>
        <time>2019-01-29T12:10:58Z</time>
      </trkpt>
      <trkpt lat="43.49912" lon="6.61805">
        <ele>48.68</ele>
        <time>2019-01-29T12:11:09Z</time>
      </trkpt>
      <trkpt lat="43.49919" lon="6.61804">
        <ele>49.16</ele>
        <time>2019-01-29T12:11:19Z</time>
      </trkpt>
      <trkpt lat="43.49929" lon="6.61804">
        <ele>49.16</ele>
        <time>2019-01-29T12:11:31Z</time>
      </trkpt>
      <trkpt lat="43.4994" lon="6.61806">
        <ele>49.65</ele>
        <time>2019-01-29T12:11:43Z</time>
      </trkpt>
      <trkpt lat="43.49949" lon="6.61804">
        <ele>50.13</ele>
        <time>2019-01-29T12:11:55Z</time>
      </trkpt>
      <trkpt lat="43.4996" lon="6.61798">
        <ele>50.61</ele>
        <time>2019-01-29T12:12:06Z</time>
      </trkpt>
      <trkpt lat="43.4997" lon="6.61789">
        <ele>51.09</ele>
        <time>2019-01-29T12:12:19Z</time>
      </trkpt>
      <trkpt lat="43.49976" lon="6.61783">
        <ele>51.57</ele>
        <time>2019-01-29T12:12:29Z</time>
      </trkpt>
      <trkpt lat="43.49986" lon="6.61774">
        <ele>52.05</ele>
        <time>2019-01-29T12:12:41Z</time>
      </trkpt>
      <trkpt lat="43.49992" lon="6.61764">
        <ele>52.53</ele>
        <time>2019-01-29T12:12:54Z</time>
      </trkpt>
      <trkpt lat="43.5" lon="6.61757">
        <ele>53.01</ele>
        <time>2019-01-29T12:13:06Z</time>
      </trkpt>
      <trkpt lat="43.50007" lon="6.61753">
        <ele>53.01</ele>
        <time>2019-01-29T12:13:15Z</time>
      </trkpt>
      <trkpt lat="43.50016" lon="6.61751">
        <ele>53.49</ele>
        <time>2019-01-29T12:13:27Z</time>
      </trkpt>
      <trkpt lat="43.50026" lon="6.61746">
        <ele>53.49</ele>
        <time>2019-01-29T12:13:38Z</time>
      </trkpt>
      <trkpt lat="43.50033" lon="6.61743">
        <ele>53.97</ele>
        <time>2019-01-29T12:13:50Z</time>
      </trkpt>
      <trkpt lat="43.50044" lon="6.61734">
        <ele>53.97</ele>
        <time>2019-01-29T12:14:01Z</time>
      </trkpt>
      <trkpt lat="43.50051" lon="6.61722">
        <ele>53.97</ele>
        <time>2019-01-29T12:14:14Z</time>
      </trkpt>
      <trkpt lat="43.5006" lon="6.61713">
        <ele>54.45</ele>
        <time>2019-01-29T12:14:26Z</time>
      </trkpt>
      <trkpt lat="43.50068" lon="6.61708">
        <ele>54.45</ele>
        <time>2019-01-29T12:14:36Z</time>
      </trkpt>
      <trkpt lat="43.50075" lon="6.617">
        <ele>53.97</ele>
        <time>2019-01-29T12:14:47Z</time>
      </trkpt>
      <trkpt lat="43.50082" lon="6.61689">
        <ele>54.45</ele>
        <time>2019-01-29T12:14:58Z</time>
      </trkpt>
      <trkpt lat="43.50087" lon="6.6168">
        <ele>54.45</ele>
        <time>2019-01-29T12:15:08Z</time>
      </trkpt>
      <trkpt lat="43.50089" lon="6.61677">
        <ele>54.45</ele>
        <time>2019-01-29T12:15:11Z</time>
      </trkpt>
      <trkpt lat="43.50094" lon="6.61664">
        <ele>54.93</ele>
        <time>2019-01-29T12:15:23Z</time>
      </trkpt>
      <trkpt lat="43.50095" lon="6.61661">
        <ele>54.93</ele>
        <time>2019-01-29T12:15:25Z</time>
      </trkpt>
      <trkpt lat="43.50101" lon="6.61652">
        <ele>54.93</ele>
        <time>2019-01-29T12:15:36Z</time>
      </trkpt>
      <trkpt lat="43.50107" lon="6.61644">
        <ele>55.41</ele>
        <time>2019-01-29T12:15:46Z</time>
      </trkpt>
      <trkpt lat="43.50117" lon="6.61637">
        <ele>55.41</ele>
        <time>2019-01-29T12:15:58Z</time>
      </trkpt>
      <trkpt lat="43.50126" lon="6.6163">
        <ele>55.41</ele>
        <time>2019-01-29T12:16:10Z</time>
      </trkpt>
      <trkpt lat="43.50135" lon="6.61628">
        <ele>55.41</ele>
        <time>2019-01-29T12:16:18Z</time>
      </trkpt>
      <trkpt lat="43.50137" lon="6.61627">
        <ele>55.89</ele>
        <time>2019-01-29T12:16:28Z</time>
      </trkpt>
      <trkpt lat="43.50138" lon="6.61626">
        <ele>55.89</ele>
        <time>2019-01-29T12:16:30Z</time>
      </trkpt>
      <trkpt lat="43.50154" lon="6.61623">
        <ele>56.86</ele>
        <time>2019-01-29T12:16:41Z</time>
      </trkpt>
      <trkpt lat="43.5016" lon="6.6162">
        <ele>53.49</ele>
        <time>2019-01-29T12:16:46Z</time>
      </trkpt>
      <trkpt lat="43.50161" lon="6.6162">
        <ele>59.74</ele>
        <time>2019-01-29T12:16:47Z</time>
      </trkpt>
      <trkpt lat="43.50161" lon="6.61619">
        <ele>56.86</ele>
        <time>2019-01-29T12:16:48Z</time>
      </trkpt>
      <trkpt lat="43.50163" lon="6.61617">
        <ele>55.89</ele>
        <time>2019-01-29T12:16:51Z</time>
      </trkpt>
      <trkpt lat="43.50165" lon="6.61616">
        <ele>55.89</ele>
        <time>2019-01-29T12:16:53Z</time>
      </trkpt>
      <trkpt lat="43.50173" lon="6.6161">
        <ele>56.37</ele>
        <time>2019-01-29T12:17:02Z</time>
      </trkpt>
      <trkpt lat="43.50176" lon="6.61607">
        <ele>56.37</ele>
        <time>2019-01-29T12:17:05Z</time>
      </trkpt>
      <trkpt lat="43.50181" lon="6.61603">
        <ele>56.37</ele>
        <time>2019-01-29T12:17:11Z</time>
      </trkpt>
      <trkpt lat="43.5019" lon="6.61596">
        <ele>56.86</ele>
        <time>2019-01-29T12:17:21Z</time>
      </trkpt>
      <trkpt lat="43.50197" lon="6.6159">
        <ele>56.86</ele>
        <time>2019-01-29T12:17:31Z</time>
      </trkpt>
      <trkpt lat="43.50208" lon="6.61581">
        <ele>56.86</ele>
        <time>2019-01-29T12:17:42Z</time>
      </trkpt>
      <trkpt lat="43.50209" lon="6.61581">
        <ele>57.34</ele>
        <time>2019-01-29T12:17:44Z</time>
      </trkpt>
      <trkpt lat="43.50219" lon="6.61575">
        <ele>57.34</ele>
        <time>2019-01-29T12:17:55Z</time>
      </trkpt>
      <trkpt lat="43.50231" lon="6.6157">
        <ele>57.82</ele>
        <time>2019-01-29T12:18:06Z</time>
      </trkpt>
      <trkpt lat="43.50231" lon="6.6157">
        <ele>57.82</ele>
        <time>2019-01-29T12:18:07Z</time>
      </trkpt>
      <trkpt lat="43.50233" lon="6.61569">
        <ele>57.82</ele>
        <time>2019-01-29T12:18:09Z</time>
      </trkpt>
      <trkpt lat="43.50241" lon="6.61566">
        <ele>57.82</ele>
        <time>2019-01-29T12:18:17Z</time>
      </trkpt>
      <trkpt lat="43.50246" lon="6.61563">
        <ele>57.82</ele>
        <time>2019-01-29T12:18:24Z</time>
      </trkpt>
      <trkpt lat="43.50249" lon="6.61561">
        <ele>58.3</ele>
        <time>2019-01-29T12:18:27Z</time>
      </trkpt>
      <trkpt lat="43.50257" lon="6.61556">
        <ele>58.3</ele>
        <time>2019-01-29T12:18:37Z</time>
      </trkpt>
      <trkpt lat="43.50263" lon="6.61553">
        <ele>58.3</ele>
        <time>2019-01-29T12:18:43Z</time>
      </trkpt>
      <trkpt lat="43.50269" lon="6.61547">
        <ele>58.3</ele>
        <time>2019-01-29T12:18:52Z</time>
      </trkpt>
      <trkpt lat="43.50281" lon="6.61537">
        <ele>59.74</ele>
        <time>2019-01-29T12:19:04Z</time>
      </trkpt>
      <trkpt lat="43.50291" lon="6.61528">
        <ele>58.78</ele>
        <time>2019-01-29T12:19:16Z</time>
      </trkpt>
      <trkpt lat="43.50307" lon="6.61528">
        <ele>59.26</ele>
        <time>2019-01-29T12:19:29Z</time>
      </trkpt>
      <trkpt lat="43.50316" lon="6.6153">
        <ele>59.74</ele>
        <time>2019-01-29T12:19:39Z</time>
      </trkpt>
      <trkpt lat="43.50317" lon="6.61532">
        <ele>59.74</ele>
        <time>2019-01-29T12:19:41Z</time>
      </trkpt>
      <trkpt lat="43.50319" lon="6.61534">
        <ele>59.74</ele>
        <time>2019-01-29T12:19:43Z</time>
      </trkpt>
      <trkpt lat="43.50329" lon="6.61541">
        <ele>59.74</ele>
        <time>2019-01-29T12:19:53Z</time>
      </trkpt>
      <trkpt lat="43.50337" lon="6.61551">
        <ele>59.74</ele>
        <time>2019-01-29T12:20:04Z</time>
      </trkpt>
      <trkpt lat="43.50347" lon="6.61559">
        <ele>60.22</ele>
        <time>2019-01-29T12:20:15Z</time>
      </trkpt>
      <trkpt lat="43.50353" lon="6.61567">
        <ele>59.74</ele>
        <time>2019-01-29T12:20:25Z</time>
      </trkpt>
      <trkpt lat="43.50355" lon="6.61574">
        <ele>59.74</ele>
        <time>2019-01-29T12:20:32Z</time>
      </trkpt>
      <trkpt lat="43.50358" lon="6.61588">
        <ele>59.74</ele>
        <time>2019-01-29T12:20:43Z</time>
      </trkpt>
      <trkpt lat="43.50364" lon="6.61596">
        <ele>59.26</ele>
        <time>2019-01-29T12:20:53Z</time>
      </trkpt>
      <trkpt lat="43.50366" lon="6.6161">
        <ele>59.26</ele>
        <time>2019-01-29T12:21:02Z</time>
      </trkpt>
      <trkpt lat="43.50369" lon="6.61614">
        <ele>58.78</ele>
        <time>2019-01-29T12:21:06Z</time>
      </trkpt>
      <trkpt lat="43.50369" lon="6.61619">
        <ele>58.3</ele>
        <time>2019-01-29T12:21:10Z</time>
      </trkpt>
      <trkpt lat="43.50369" lon="6.61622">
        <ele>58.3</ele>
        <time>2019-01-29T12:21:13Z</time>
      </trkpt>
      <trkpt lat="43.50367" lon="6.61634">
        <ele>58.3</ele>
        <time>2019-01-29T12:21:23Z</time>
      </trkpt>
      <trkpt lat="43.50366" lon="6.6164">
        <ele>57.82</ele>
        <time>2019-01-29T12:21:30Z</time>
      </trkpt>
      <trkpt lat="43.50365" lon="6.61647">
        <ele>57.34</ele>
        <time>2019-01-29T12:21:38Z</time>
      </trkpt>
      <trkpt lat="43.50364" lon="6.61649">
        <ele>56.86</ele>
        <time>2019-01-29T12:21:50Z</time>
      </trkpt>
      <trkpt lat="43.50366" lon="6.61652">
        <ele>56.86</ele>
        <time>2019-01-29T12:21:53Z</time>
      </trkpt>
      <trkpt lat="43.50369" lon="6.61653">
        <ele>56.86</ele>
        <time>2019-01-29T12:22:05Z</time>
      </trkpt>
      <trkpt lat="43.50372" lon="6.61659">
        <ele>56.86</ele>
        <time>2019-01-29T12:22:13Z</time>
      </trkpt>
      <trkpt lat="43.50371" lon="6.61659">
        <ele>57.34</ele>
        <time>2019-01-29T12:22:25Z</time>
      </trkpt>
      <trkpt lat="43.50371" lon="6.61659">
        <ele>57.34</ele>
        <time>2019-01-29T12:22:40Z</time>
      </trkpt>
      <trkpt lat="43.50371" lon="6.61661">
        <ele>57.34</ele>
        <time>2019-01-29T12:22:52Z</time>
      </trkpt>
      <trkpt lat="43.50371" lon="6.6166">
        <ele>57.34</ele>
        <time>2019-01-29T12:23:09Z</time>
      </trkpt>
      <trkpt lat="43.50371" lon="6.6166">
        <ele>57.34</ele>
        <time>2019-01-29T12:23:25Z</time>
      </trkpt>
      <trkpt lat="43.50374" lon="6.61661">
        <ele>57.82</ele>
        <time>2019-01-29T12:23:43Z</time>
      </trkpt>
      <trkpt lat="43.5038" lon="6.61662">
        <ele>57.82</ele>
        <time>2019-01-29T12:23:57Z</time>
      </trkpt>
      <trkpt lat="43.50387" lon="6.6167">
        <ele>58.78</ele>
        <time>2019-01-29T12:24:08Z</time>
      </trkpt>
      <trkpt lat="43.50389" lon="6.61673">
        <ele>59.74</ele>
        <time>2019-01-29T12:24:12Z</time>
      </trkpt>
      <trkpt lat="43.50392" lon="6.61678">
        <ele>60.22</ele>
        <time>2019-01-29T12:24:17Z</time>
      </trkpt>
      <trkpt lat="43.50397" lon="6.61684">
        <ele>61.18</ele>
        <time>2019-01-29T12:24:25Z</time>
      </trkpt>
      <trkpt lat="43.50399" lon="6.61686">
        <ele>61.18</ele>
        <time>2019-01-29T12:24:28Z</time>
      </trkpt>
      <trkpt lat="43.50406" lon="6.61697">
        <ele>62.62</ele>
        <time>2019-01-29T12:24:40Z</time>
      </trkpt>
      <trkpt lat="43.50413" lon="6.61701">
        <ele>63.1</ele>
        <time>2019-01-29T12:24:51Z</time>
      </trkpt>
      <trkpt lat="43.50415" lon="6.61705">
        <ele>63.58</ele>
        <time>2019-01-29T12:25:00Z</time>
      </trkpt>
      <trkpt lat="43.50417" lon="6.61707">
        <ele>63.58</ele>
        <time>2019-01-29T12:25:15Z</time>
      </trkpt>
      <trkpt lat="43.5042" lon="6.61708">
        <ele>63.1</ele>
        <time>2019-01-29T12:25:27Z</time>
      </trkpt>
      <trkpt lat="43.50427" lon="6.6171">
        <ele>63.1</ele>
        <time>2019-01-29T12:25:37Z</time>
      </trkpt>
      <trkpt lat="43.50432" lon="6.61711">
        <ele>62.62</ele>
        <time>2019-01-29T12:25:46Z</time>
      </trkpt>
      <trkpt lat="43.5044" lon="6.61714">
        <ele>62.14</ele>
        <time>2019-01-29T12:25:56Z</time>
      </trkpt>
      <trkpt lat="43.50446" lon="6.61717">
        <ele>62.14</ele>
        <time>2019-01-29T12:26:06Z</time>
      </trkpt>
      <trkpt lat="43.50449" lon="6.61717">
        <ele>62.14</ele>
        <time>2019-01-29T12:26:18Z</time>
      </trkpt>
      <trkpt lat="43.5045" lon="6.61717">
        <ele>62.14</ele>
        <time>2019-01-29T12:26:38Z</time>
      </trkpt>
      <trkpt lat="43.50451" lon="6.61717">
        <ele>62.14</ele>
        <time>2019-01-29T12:26:52Z</time>
      </trkpt>
      <trkpt lat="43.5045" lon="6.61718">
        <ele>62.14</ele>
        <time>2019-01-29T12:27:03Z</time>
      </trkpt>
      <trkpt lat="43.50449" lon="6.61719">
        <ele>62.14</ele>
        <time>2019-01-29T12:27:16Z</time>
      </trkpt>
      <trkpt lat="43.50449" lon="6.61718">
        <ele>62.14</ele>
        <time>2019-01-29T12:27:33Z</time>
      </trkpt>
      <trkpt lat="43.50449" lon="6.61719">
        <ele>62.14</ele>
        <time>2019-01-29T12:27:54Z</time>
      </trkpt>
      <trkpt lat="43.50449" lon="6.6172">
        <ele>62.62</ele>
        <time>2019-01-29T12:28:09Z</time>
      </trkpt>
      <trkpt lat="43.50448" lon="6.6172">
        <ele>62.14</ele>
        <time>2019-01-29T12:28:31Z</time>
      </trkpt>
      <trkpt lat="43.50449" lon="6.61719">
        <ele>62.14</ele>
        <time>2019-01-29T12:28:51Z</time>
      </trkpt>
      <trkpt lat="43.50454" lon="6.61713">
        <ele>62.62</ele>
        <time>2019-01-29T12:29:00Z</time>
      </trkpt>
      <trkpt lat="43.50458" lon="6.61708">
        <ele>62.62</ele>
        <time>2019-01-29T12:29:11Z</time>
      </trkpt>
      <trkpt lat="43.50463" lon="6.61701">
        <ele>62.62</ele>
        <time>2019-01-29T12:29:22Z</time>
      </trkpt>
      <trkpt lat="43.50466" lon="6.61699">
        <ele>62.62</ele>
        <time>2019-01-29T12:29:33Z</time>
      </trkpt>
      <trkpt lat="43.50471" lon="6.61692">
        <ele>62.62</ele>
        <time>2019-01-29T12:29:43Z</time>
      </trkpt>
      <trkpt lat="43.50477" lon="6.61684">
        <ele>62.62</ele>
        <time>2019-01-29T12:29:54Z</time>
      </trkpt>
      <trkpt lat="43.50483" lon="6.61678">
        <ele>62.62</ele>
        <time>2019-01-29T12:30:04Z</time>
      </trkpt>
      <trkpt lat="43.50491" lon="6.61672">
        <ele>62.62</ele>
        <time>2019-01-29T12:30:15Z</time>
      </trkpt>
      <trkpt lat="43.50495" lon="6.61669">
        <ele>62.62</ele>
        <time>2019-01-29T12:30:25Z</time>
      </trkpt>
      <trkpt lat="43.50495" lon="6.61668">
        <ele>62.62</ele>
        <time>2019-01-29T12:30:38Z</time>
      </trkpt>
      <trkpt lat="43.50495" lon="6.61668">
        <ele>62.62</ele>
        <time>2019-01-29T12:30:52Z</time>
      </trkpt>
      <trkpt lat="43.50495" lon="6.61666">
        <ele>62.62</ele>
        <time>2019-01-29T12:31:07Z</time>
      </trkpt>
      <trkpt lat="43.50501" lon="6.61662">
        <ele>62.62</ele>
        <time>2019-01-29T12:31:17Z</time>
      </trkpt>
      <trkpt lat="43.50509" lon="6.6165">
        <ele>63.1</ele>
        <time>2019-01-29T12:31:28Z</time>
      </trkpt>
      <trkpt lat="43.50518" lon="6.61641">
        <ele>63.58</ele>
        <time>2019-01-29T12:31:39Z</time>
      </trkpt>
      <trkpt lat="43.50523" lon="6.61636">
        <ele>64.07</ele>
        <time>2019-01-29T12:31:51Z</time>
      </trkpt>
      <trkpt lat="43.50531" lon="6.61626">
        <ele>64.07</ele>
        <time>2019-01-29T12:32:03Z</time>
      </trkpt>
      <trkpt lat="43.50532" lon="6.61626">
        <ele>64.07</ele>
        <time>2019-01-29T12:32:05Z</time>
      </trkpt>
      <trkpt lat="43.50538" lon="6.61619">
        <ele>64.07</ele>
        <time>2019-01-29T12:32:15Z</time>
      </trkpt>
      <trkpt lat="43.50546" lon="6.61611">
        <ele>64.07</ele>
        <time>2019-01-29T12:32:24Z</time>
      </trkpt>
      <trkpt lat="43.50554" lon="6.61603">
        <ele>64.07</ele>
        <time>2019-01-29T12:32:35Z</time>
      </trkpt>
      <trkpt lat="43.50559" lon="6.61595">
        <ele>64.55</ele>
        <time>2019-01-29T12:32:46Z</time>
      </trkpt>
      <trkpt lat="43.50569" lon="6.61587">
        <ele>64.07</ele>
        <time>2019-01-29T12:32:58Z</time>
      </trkpt>
      <trkpt lat="43.50573" lon="6.61579">
        <ele>64.55</ele>
        <time>2019-01-29T12:33:08Z</time>
      </trkpt>
      <trkpt lat="43.50576" lon="6.6157">
        <ele>65.03</ele>
        <time>2019-01-29T12:33:17Z</time>
      </trkpt>
      <trkpt lat="43.50577" lon="6.61568">
        <ele>65.03</ele>
        <time>2019-01-29T12:33:29Z</time>
      </trkpt>
      <trkpt lat="43.50579" lon="6.61567">
        <ele>65.03</ele>
        <time>2019-01-29T12:33:49Z</time>
      </trkpt>
      <trkpt lat="43.50586" lon="6.61556">
        <ele>65.03</ele>
        <time>2019-01-29T12:34:00Z</time>
      </trkpt>
      <trkpt lat="43.50586" lon="6.61556">
        <ele>65.03</ele>
        <time>2019-01-29T12:34:13Z</time>
      </trkpt>
      <trkpt lat="43.50582" lon="6.61562">
        <ele>65.03</ele>
        <time>2019-01-29T12:34:21Z</time>
      </trkpt>
      <trkpt lat="43.5058" lon="6.61568">
        <ele>65.03</ele>
        <time>2019-01-29T12:34:26Z</time>
      </trkpt>
      <trkpt lat="43.50587" lon="6.6156">
        <ele>65.03</ele>
        <time>2019-01-29T12:34:38Z</time>
      </trkpt>
      <trkpt lat="43.50593" lon="6.61556">
        <ele>65.03</ele>
        <time>2019-01-29T12:34:48Z</time>
      </trkpt>
      <trkpt lat="43.50601" lon="6.6155">
        <ele>65.99</ele>
        <time>2019-01-29T12:35:00Z</time>
      </trkpt>
      <trkpt lat="43.50605" lon="6.61548">
        <ele>65.99</ele>
        <time>2019-01-29T12:35:04Z</time>
      </trkpt>
      <trkpt lat="43.50616" lon="6.61543">
        <ele>66.47</ele>
        <time>2019-01-29T12:35:17Z</time>
      </trkpt>
      <trkpt lat="43.50627" lon="6.6154">
        <ele>66.95</ele>
        <time>2019-01-29T12:35:29Z</time>
      </trkpt>
      <trkpt lat="43.50636" lon="6.61535">
        <ele>67.43</ele>
        <time>2019-01-29T12:35:40Z</time>
      </trkpt>
      <trkpt lat="43.50647" lon="6.61533">
        <ele>67.91</ele>
        <time>2019-01-29T12:35:52Z</time>
      </trkpt>
      <trkpt lat="43.50658" lon="6.6153">
        <ele>68.39</ele>
        <time>2019-01-29T12:36:05Z</time>
      </trkpt>
      <trkpt lat="43.50661" lon="6.61528">
        <ele>68.39</ele>
        <time>2019-01-29T12:36:09Z</time>
      </trkpt>
      <trkpt lat="43.50664" lon="6.61527">
        <ele>68.87</ele>
        <time>2019-01-29T12:36:12Z</time>
      </trkpt>
      <trkpt lat="43.50672" lon="6.61522">
        <ele>69.83</ele>
        <time>2019-01-29T12:36:22Z</time>
      </trkpt>
      <trkpt lat="43.50673" lon="6.61522">
        <ele>69.83</ele>
        <time>2019-01-29T12:36:23Z</time>
      </trkpt>
      <trkpt lat="43.50685" lon="6.6152">
        <ele>70.31</ele>
        <time>2019-01-29T12:36:36Z</time>
      </trkpt>
      <trkpt lat="43.50687" lon="6.61519">
        <ele>70.31</ele>
        <time>2019-01-29T12:36:39Z</time>
      </trkpt>
      <trkpt lat="43.50697" lon="6.61513">
        <ele>70.79</ele>
        <time>2019-01-29T12:36:51Z</time>
      </trkpt>
      <trkpt lat="43.50705" lon="6.61509">
        <ele>71.27</ele>
        <time>2019-01-29T12:37:00Z</time>
      </trkpt>
      <trkpt lat="43.50709" lon="6.61508">
        <ele>72.24</ele>
        <time>2019-01-29T12:37:06Z</time>
      </trkpt>
      <trkpt lat="43.50717" lon="6.61502">
        <ele>71.76</ele>
        <time>2019-01-29T12:37:16Z</time>
      </trkpt>
      <trkpt lat="43.50723" lon="6.61498">
        <ele>72.24</ele>
        <time>2019-01-29T12:37:23Z</time>
      </trkpt>
      <trkpt lat="43.50726" lon="6.61495">
        <ele>72.24</ele>
        <time>2019-01-29T12:37:27Z</time>
      </trkpt>
      <trkpt lat="43.50734" lon="6.61489">
        <ele>72.72</ele>
        <time>2019-01-29T12:37:37Z</time>
      </trkpt>
      <trkpt lat="43.50742" lon="6.61484">
        <ele>73.2</ele>
        <time>2019-01-29T12:37:46Z</time>
      </trkpt>
      <trkpt lat="43.5075" lon="6.61478">
        <ele>73.2</ele>
        <time>2019-01-29T12:37:57Z</time>
      </trkpt>
      <trkpt lat="43.50754" lon="6.61475">
        <ele>73.68</ele>
        <time>2019-01-29T12:38:07Z</time>
      </trkpt>
      <trkpt lat="43.50758" lon="6.6147">
        <ele>73.68</ele>
        <time>2019-01-29T12:38:15Z</time>
      </trkpt>
      <trkpt lat="43.50766" lon="6.61464">
        <ele>73.68</ele>
        <time>2019-01-29T12:38:23Z</time>
      </trkpt>
      <trkpt lat="43.5077" lon="6.61458">
        <ele>74.16</ele>
        <time>2019-01-29T12:38:29Z</time>
      </trkpt>
      <trkpt lat="43.50771" lon="6.6145">
        <ele>74.16</ele>
        <time>2019-01-29T12:38:38Z</time>
      </trkpt>
      <trkpt lat="43.50773" lon="6.61445">
        <ele>74.64</ele>
        <time>2019-01-29T12:38:42Z</time>
      </trkpt>
      <trkpt lat="43.50776" lon="6.6144">
        <ele>74.64</ele>
        <time>2019-01-29T12:38:51Z</time>
      </trkpt>
      <trkpt lat="43.5078" lon="6.61438">
        <ele>74.64</ele>
        <time>2019-01-29T12:39:09Z</time>
      </trkpt>
      <trkpt lat="43.50786" lon="6.61433">
        <ele>75.12</ele>
        <time>2019-01-29T12:39:18Z</time>
      </trkpt>
      <trkpt lat="43.50788" lon="6.61431">
        <ele>75.12</ele>
        <time>2019-01-29T12:39:27Z</time>
      </trkpt>
      <trkpt lat="43.50795" lon="6.61427">
        <ele>75.6</ele>
        <time>2019-01-29T12:39:36Z</time>
      </trkpt>
      <trkpt lat="43.50799" lon="6.61424">
        <ele>75.12</ele>
        <time>2019-01-29T12:39:40Z</time>
      </trkpt>
      <trkpt lat="43.50804" lon="6.61421">
        <ele>75.6</ele>
        <time>2019-01-29T12:39:47Z</time>
      </trkpt>
      <trkpt lat="43.50812" lon="6.61419">
        <ele>75.6</ele>
        <time>2019-01-29T12:39:56Z</time>
      </trkpt>
      <trkpt lat="43.5082" lon="6.61413">
        <ele>76.08</ele>
        <time>2019-01-29T12:40:06Z</time>
      </trkpt>
      <trkpt lat="43.50829" lon="6.61407">
        <ele>76.08</ele>
        <time>2019-01-29T12:40:17Z</time>
      </trkpt>
      <trkpt lat="43.50838" lon="6.61402">
        <ele>76.56</ele>
        <time>2019-01-29T12:40:27Z</time>
      </trkpt>
      <trkpt lat="43.50848" lon="6.61397">
        <ele>77.04</ele>
        <time>2019-01-29T12:40:40Z</time>
      </trkpt>
      <trkpt lat="43.50858" lon="6.6139">
        <ele>77.52</ele>
        <time>2019-01-29T12:40:52Z</time>
      </trkpt>
      <trkpt lat="43.50867" lon="6.61385">
        <ele>78</ele>
        <time>2019-01-29T12:41:03Z</time>
      </trkpt>
      <trkpt lat="43.50875" lon="6.6138">
        <ele>78</ele>
        <time>2019-01-29T12:41:13Z</time>
      </trkpt>
      <trkpt lat="43.50886" lon="6.61374">
        <ele>77.52</ele>
        <time>2019-01-29T12:41:26Z</time>
      </trkpt>
      <trkpt lat="43.509" lon="6.61364">
        <ele>77.52</ele>
        <time>2019-01-29T12:41:42Z</time>
      </trkpt>
      <trkpt lat="43.50908" lon="6.61355">
        <ele>77.04</ele>
        <time>2019-01-29T12:41:54Z</time>
      </trkpt>
      <trkpt lat="43.50915" lon="6.61345">
        <ele>77.04</ele>
        <time>2019-01-29T12:42:06Z</time>
      </trkpt>
      <trkpt lat="43.50925" lon="6.61338">
        <ele>77.52</ele>
        <time>2019-01-29T12:42:19Z</time>
      </trkpt>
      <trkpt lat="43.50933" lon="6.6133">
        <ele>77.52</ele>
        <time>2019-01-29T12:42:29Z</time>
      </trkpt>
      <trkpt lat="43.5094" lon="6.61324">
        <ele>78</ele>
        <time>2019-01-29T12:42:40Z</time>
      </trkpt>
      <trkpt lat="43.50949" lon="6.61318">
        <ele>78</ele>
        <time>2019-01-29T12:42:51Z</time>
      </trkpt>
      <trkpt lat="43.50961" lon="6.61312">
        <ele>78.48</ele>
        <time>2019-01-29T12:43:04Z</time>
      </trkpt>
      <trkpt lat="43.5097" lon="6.61315">
        <ele>78.48</ele>
        <time>2019-01-29T12:43:15Z</time>
      </trkpt>
      <trkpt lat="43.50981" lon="6.61321">
        <ele>78</ele>
        <time>2019-01-29T12:43:27Z</time>
      </trkpt>
      <trkpt lat="43.50984" lon="6.61323">
        <ele>78</ele>
        <time>2019-01-29T12:43:37Z</time>
      </trkpt>
      <trkpt lat="43.5099" lon="6.6133">
        <ele>78</ele>
        <time>2019-01-29T12:43:47Z</time>
      </trkpt>
      <trkpt lat="43.50991" lon="6.61329">
        <ele>78.48</ele>
        <time>2019-01-29T12:44:03Z</time>
      </trkpt>
      <trkpt lat="43.50993" lon="6.61329">
        <ele>78</ele>
        <time>2019-01-29T12:44:16Z</time>
      </trkpt>
      <trkpt lat="43.51006" lon="6.61324">
        <ele>78.48</ele>
        <time>2019-01-29T12:44:28Z</time>
      </trkpt>
      <trkpt lat="43.51015" lon="6.61324">
        <ele>78.97</ele>
        <time>2019-01-29T12:44:38Z</time>
      </trkpt>
      <trkpt lat="43.51024" lon="6.61325">
        <ele>79.45</ele>
        <time>2019-01-29T12:44:48Z</time>
      </trkpt>
      <trkpt lat="43.51032" lon="6.61324">
        <ele>79.93</ele>
        <time>2019-01-29T12:44:56Z</time>
      </trkpt>
      <trkpt lat="43.5104" lon="6.61329">
        <ele>81.37</ele>
        <time>2019-01-29T12:45:06Z</time>
      </trkpt>
      <trkpt lat="43.5104" lon="6.61329">
        <ele>80.41</ele>
        <time>2019-01-29T12:45:07Z</time>
      </trkpt>
      <trkpt lat="43.5105" lon="6.61333">
        <ele>80.89</ele>
        <time>2019-01-29T12:45:17Z</time>
      </trkpt>
      <trkpt lat="43.51056" lon="6.61333">
        <ele>81.37</ele>
        <time>2019-01-29T12:45:24Z</time>
      </trkpt>
      <trkpt lat="43.51061" lon="6.61334">
        <ele>81.37</ele>
        <time>2019-01-29T12:45:29Z</time>
      </trkpt>
      <trkpt lat="43.51072" lon="6.61336">
        <ele>81.85</ele>
        <time>2019-01-29T12:45:41Z</time>
      </trkpt>
      <trkpt lat="43.51079" lon="6.61338">
        <ele>81.85</ele>
        <time>2019-01-29T12:45:50Z</time>
      </trkpt>
      <trkpt lat="43.51092" lon="6.61342">
        <ele>81.85</ele>
        <time>2019-01-29T12:46:04Z</time>
      </trkpt>
      <trkpt lat="43.511" lon="6.61346">
        <ele>82.81</ele>
        <time>2019-01-29T12:46:15Z</time>
      </trkpt>
      <trkpt lat="43.51104" lon="6.61346">
        <ele>82.33</ele>
        <time>2019-01-29T12:46:18Z</time>
      </trkpt>
      <trkpt lat="43.51106" lon="6.61347">
        <ele>82.33</ele>
        <time>2019-01-29T12:46:22Z</time>
      </trkpt>
      <trkpt lat="43.51118" lon="6.61354">
        <ele>82.33</ele>
        <time>2019-01-29T12:46:36Z</time>
      </trkpt>
      <trkpt lat="43.5112" lon="6.61352">
        <ele>82.33</ele>
        <time>2019-01-29T12:46:46Z</time>
      </trkpt>
      <trkpt lat="43.5112" lon="6.61354">
        <ele>82.33</ele>
        <time>2019-01-29T12:47:03Z</time>
      </trkpt>
      <trkpt lat="43.5112" lon="6.61354">
        <ele>82.33</ele>
        <time>2019-01-29T12:47:17Z</time>
      </trkpt>
      <trkpt lat="43.5112" lon="6.61354">
        <ele>82.33</ele>
        <time>2019-01-29T12:47:32Z</time>
      </trkpt>
      <trkpt lat="43.5112" lon="6.61353">
        <ele>82.33</ele>
        <time>2019-01-29T12:47:49Z</time>
      </trkpt>
      <trkpt lat="43.5112" lon="6.61353">
        <ele>82.33</ele>
        <time>2019-01-29T12:48:03Z</time>
      </trkpt>
      <trkpt lat="43.5112" lon="6.61352">
        <ele>82.33</ele>
        <time>2019-01-29T12:48:14Z</time>
      </trkpt>
      <trkpt lat="43.51121" lon="6.61351">
        <ele>82.81</ele>
        <time>2019-01-29T12:48:26Z</time>
      </trkpt>
      <trkpt lat="43.51126" lon="6.61345">
        <ele>83.29</ele>
        <time>2019-01-29T12:48:35Z</time>
      </trkpt>
      <trkpt lat="43.51135" lon="6.61335">
        <ele>83.77</ele>
        <time>2019-01-29T12:48:47Z</time>
      </trkpt>
      <trkpt lat="43.51141" lon="6.61329">
        <ele>84.73</ele>
        <time>2019-01-29T12:48:57Z</time>
      </trkpt>
      <trkpt lat="43.51146" lon="6.61319">
        <ele>86.66</ele>
        <time>2019-01-29T12:49:07Z</time>
      </trkpt>
      <trkpt lat="43.5115" lon="6.6131">
        <ele>86.18</ele>
        <time>2019-01-29T12:49:16Z</time>
      </trkpt>
      <trkpt lat="43.51154" lon="6.61299">
        <ele>87.14</ele>
        <time>2019-01-29T12:49:26Z</time>
      </trkpt>
      <trkpt lat="43.51158" lon="6.61287">
        <ele>87.62</ele>
        <time>2019-01-29T12:49:37Z</time>
      </trkpt>
      <trkpt lat="43.51159" lon="6.61284">
        <ele>87.62</ele>
        <time>2019-01-29T12:49:40Z</time>
      </trkpt>
      <trkpt lat="43.51161" lon="6.61276">
        <ele>88.1</ele>
        <time>2019-01-29T12:49:51Z</time>
      </trkpt>
      <trkpt lat="43.51161" lon="6.61276">
        <ele>88.1</ele>
        <time>2019-01-29T12:50:08Z</time>
      </trkpt>
      <trkpt lat="43.51161" lon="6.61276">
        <ele>88.1</ele>
        <time>2019-01-29T12:50:22Z</time>
      </trkpt>
      <trkpt lat="43.51161" lon="6.61276">
        <ele>88.1</ele>
        <time>2019-01-29T12:50:36Z</time>
      </trkpt>
      <trkpt lat="43.51162" lon="6.61272">
        <ele>88.1</ele>
        <time>2019-01-29T12:50:46Z</time>
      </trkpt>
      <trkpt lat="43.51163" lon="6.61271">
        <ele>88.58</ele>
        <time>2019-01-29T12:50:55Z</time>
      </trkpt>
      <trkpt lat="43.51166" lon="6.6127">
        <ele>89.54</ele>
        <time>2019-01-29T12:51:07Z</time>
      </trkpt>
      <trkpt lat="43.51168" lon="6.61267">
        <ele>89.06</ele>
        <time>2019-01-29T12:51:21Z</time>
      </trkpt>
      <trkpt lat="43.51178" lon="6.61258">
        <ele>90.02</ele>
        <time>2019-01-29T12:51:32Z</time>
      </trkpt>
      <trkpt lat="43.51184" lon="6.61249">
        <ele>90.5</ele>
        <time>2019-01-29T12:51:43Z</time>
      </trkpt>
      <trkpt lat="43.51187" lon="6.61247">
        <ele>90.98</ele>
        <time>2019-01-29T12:51:56Z</time>
      </trkpt>
      <trkpt lat="43.51192" lon="6.61246">
        <ele>91.46</ele>
        <time>2019-01-29T12:52:09Z</time>
      </trkpt>
      <trkpt lat="43.51199" lon="6.61243">
        <ele>91.94</ele>
        <time>2019-01-29T12:52:18Z</time>
      </trkpt>
      <trkpt lat="43.51206" lon="6.6124">
        <ele>92.42</ele>
        <time>2019-01-29T12:52:28Z</time>
      </trkpt>
      <trkpt lat="43.51213" lon="6.61237">
        <ele>92.9</ele>
        <time>2019-01-29T12:52:36Z</time>
      </trkpt>
      <trkpt lat="43.5122" lon="6.61232">
        <ele>93.39</ele>
        <time>2019-01-29T12:52:43Z</time>
      </trkpt>
      <trkpt lat="43.51231" lon="6.61226">
        <ele>94.35</ele>
        <time>2019-01-29T12:52:56Z</time>
      </trkpt>
      <trkpt lat="43.51232" lon="6.61226">
        <ele>94.35</ele>
        <time>2019-01-29T12:52:57Z</time>
      </trkpt>
      <trkpt lat="43.51236" lon="6.61222">
        <ele>94.35</ele>
        <time>2019-01-29T12:53:02Z</time>
      </trkpt>
      <trkpt lat="43.51242" lon="6.61218">
        <ele>95.79</ele>
        <time>2019-01-29T12:53:10Z</time>
      </trkpt>
      <trkpt lat="43.51251" lon="6.61212">
        <ele>96.27</ele>
        <time>2019-01-29T12:53:21Z</time>
      </trkpt>
      <trkpt lat="43.51259" lon="6.61208">
        <ele>97.71</ele>
        <time>2019-01-29T12:53:31Z</time>
      </trkpt>
      <trkpt lat="43.51265" lon="6.61204">
        <ele>98.67</ele>
        <time>2019-01-29T12:53:41Z</time>
      </trkpt>
      <trkpt lat="43.51268" lon="6.61203">
        <ele>99.15</ele>
        <time>2019-01-29T12:53:43Z</time>
      </trkpt>
      <trkpt lat="43.51278" lon="6.61196">
        <ele>100.11</ele>
        <time>2019-01-29T12:53:54Z</time>
      </trkpt>
      <trkpt lat="43.51285" lon="6.61191">
        <ele>101.08</ele>
        <time>2019-01-29T12:54:04Z</time>
      </trkpt>
      <trkpt lat="43.51286" lon="6.61191">
        <ele>101.08</ele>
        <time>2019-01-29T12:54:20Z</time>
      </trkpt>
      <trkpt lat="43.51286" lon="6.61191">
        <ele>101.08</ele>
        <time>2019-01-29T12:54:37Z</time>
      </trkpt>
      <trkpt lat="43.51286" lon="6.61191">
        <ele>101.08</ele>
        <time>2019-01-29T12:54:59Z</time>
      </trkpt>
      <trkpt lat="43.51286" lon="6.61191">
        <ele>101.08</ele>
        <time>2019-01-29T12:55:16Z</time>
      </trkpt>
      <trkpt lat="43.51286" lon="6.61191">
        <ele>101.08</ele>
        <time>2019-01-29T12:55:32Z</time>
      </trkpt>
      <trkpt lat="43.51286" lon="6.61191">
        <ele>101.08</ele>
        <time>2019-01-29T12:55:50Z</time>
      </trkpt>
      <trkpt lat="43.51286" lon="6.61191">
        <ele>101.08</ele>
        <time>2019-01-29T12:56:15Z</time>
      </trkpt>
      <trkpt lat="43.51286" lon="6.61191">
        <ele>101.08</ele>
        <time>2019-01-29T12:56:37Z</time>
      </trkpt>
      <trkpt lat="43.51286" lon="6.6119">
        <ele>101.08</ele>
        <time>2019-01-29T12:56:56Z</time>
      </trkpt>
      <trkpt lat="43.51286" lon="6.61191">
        <ele>101.08</ele>
        <time>2019-01-29T12:57:15Z</time>
      </trkpt>
      <trkpt lat="43.51287" lon="6.61191">
        <ele>101.08</ele>
        <time>2019-01-29T12:57:29Z</time>
      </trkpt>
      <trkpt lat="43.51286" lon="6.6119">
        <ele>101.08</ele>
        <time>2019-01-29T12:57:46Z</time>
      </trkpt>
      <trkpt lat="43.51286" lon="6.6119">
        <ele>101.08</ele>
        <time>2019-01-29T12:58:12Z</time>
      </trkpt>
      <trkpt lat="43.51286" lon="6.61191">
        <ele>101.56</ele>
        <time>2019-01-29T12:58:33Z</time>
      </trkpt>
      <trkpt lat="43.51286" lon="6.61191">
        <ele>101.56</ele>
        <time>2019-01-29T12:58:55Z</time>
      </trkpt>
      <trkpt lat="43.51286" lon="6.61192">
        <ele>101.08</ele>
        <time>2019-01-29T12:59:21Z</time>
      </trkpt>
      <trkpt lat="43.51286" lon="6.61191">
        <ele>101.08</ele>
        <time>2019-01-29T12:59:47Z</time>
      </trkpt>
      <trkpt lat="43.51286" lon="6.61191">
        <ele>101.56</ele>
        <time>2019-01-29T13:00:12Z</time>
      </trkpt>
      <trkpt lat="43.51286" lon="6.61191">
        <ele>101.56</ele>
        <time>2019-01-29T13:00:36Z</time>
      </trkpt>
      <trkpt lat="43.51286" lon="6.61191">
        <ele>101.56</ele>
        <time>2019-01-29T13:00:57Z</time>
      </trkpt>
      <trkpt lat="43.51286" lon="6.61191">
        <ele>101.56</ele>
        <time>2019-01-29T13:01:20Z</time>
      </trkpt>
      <trkpt lat="43.51287" lon="6.6119">
        <ele>101.56</ele>
        <time>2019-01-29T13:01:30Z</time>
      </trkpt>
      <trkpt lat="43.51287" lon="6.61189">
        <ele>101.56</ele>
        <time>2019-01-29T13:01:58Z</time>
      </trkpt>
      <trkpt lat="43.51288" lon="6.61189">
        <ele>101.56</ele>
        <time>2019-01-29T13:02:18Z</time>
      </trkpt>
      <trkpt lat="43.51291" lon="6.61189">
        <ele>102.04</ele>
        <time>2019-01-29T13:02:23Z</time>
      </trkpt>
      <trkpt lat="43.51295" lon="6.61188">
        <ele>102.04</ele>
        <time>2019-01-29T13:02:26Z</time>
      </trkpt>
      <trkpt lat="43.51297" lon="6.61189">
        <ele>94.83</ele>
        <time>2019-01-29T13:02:29Z</time>
      </trkpt>
      <trkpt lat="43.51298" lon="6.61189">
        <ele>103.48</ele>
        <time>2019-01-29T13:02:30Z</time>
      </trkpt>
      <trkpt lat="43.51302" lon="6.61188">
        <ele>102.04</ele>
        <time>2019-01-29T13:02:34Z</time>
      </trkpt>
      <trkpt lat="43.51313" lon="6.61189">
        <ele>102.04</ele>
        <time>2019-01-29T13:02:45Z</time>
      </trkpt>
      <trkpt lat="43.51329" lon="6.6119">
        <ele>101.08</ele>
        <time>2019-01-29T13:03:00Z</time>
      </trkpt>
      <trkpt lat="43.5133" lon="6.6119">
        <ele>101.08</ele>
        <time>2019-01-29T13:03:01Z</time>
      </trkpt>
      <trkpt lat="43.51336" lon="6.61192">
        <ele>100.6</ele>
        <time>2019-01-29T13:03:07Z</time>
      </trkpt>
      <trkpt lat="43.51338" lon="6.61192">
        <ele>100.11</ele>
        <time>2019-01-29T13:03:09Z</time>
      </trkpt>
      <trkpt lat="43.5134" lon="6.61192">
        <ele>100.11</ele>
        <time>2019-01-29T13:03:11Z</time>
      </trkpt>
      <trkpt lat="43.51354" lon="6.61198">
        <ele>100.11</ele>
        <time>2019-01-29T13:03:25Z</time>
      </trkpt>
      <trkpt lat="43.51364" lon="6.61206">
        <ele>100.6</ele>
        <time>2019-01-29T13:03:37Z</time>
      </trkpt>
      <trkpt lat="43.51367" lon="6.61207">
        <ele>101.08</ele>
        <time>2019-01-29T13:03:41Z</time>
      </trkpt>
      <trkpt lat="43.51375" lon="6.61209">
        <ele>101.08</ele>
        <time>2019-01-29T13:03:50Z</time>
      </trkpt>
      <trkpt lat="43.51378" lon="6.61209">
        <ele>101.08</ele>
        <time>2019-01-29T13:03:54Z</time>
      </trkpt>
      <trkpt lat="43.51391" lon="6.61218">
        <ele>101.56</ele>
        <time>2019-01-29T13:04:08Z</time>
      </trkpt>
      <trkpt lat="43.51402" lon="6.61224">
        <ele>102.04</ele>
        <time>2019-01-29T13:04:20Z</time>
      </trkpt>
      <trkpt lat="43.51405" lon="6.61226">
        <ele>102.04</ele>
        <time>2019-01-29T13:04:23Z</time>
      </trkpt>
      <trkpt lat="43.5141" lon="6.61229">
        <ele>102.04</ele>
        <time>2019-01-29T13:04:29Z</time>
      </trkpt>
      <trkpt lat="43.51422" lon="6.61236">
        <ele>102.04</ele>
        <time>2019-01-29T13:04:41Z</time>
      </trkpt>
      <trkpt lat="43.51432" lon="6.61236">
        <ele>102.04</ele>
        <time>2019-01-29T13:04:52Z</time>
      </trkpt>
      <trkpt lat="43.51447" lon="6.61233">
        <ele>101.56</ele>
        <time>2019-01-29T13:05:08Z</time>
      </trkpt>
      <trkpt lat="43.51458" lon="6.61238">
        <ele>100.6</ele>
        <time>2019-01-29T13:05:19Z</time>
      </trkpt>
      <trkpt lat="43.51467" lon="6.61243">
        <ele>99.63</ele>
        <time>2019-01-29T13:05:31Z</time>
      </trkpt>
      <trkpt lat="43.51474" lon="6.61244">
        <ele>98.67</ele>
        <time>2019-01-29T13:05:41Z</time>
      </trkpt>
      <trkpt lat="43.51484" lon="6.61243">
        <ele>98.19</ele>
        <time>2019-01-29T13:05:53Z</time>
      </trkpt>
      <trkpt lat="43.51496" lon="6.61243">
        <ele>97.23</ele>
        <time>2019-01-29T13:06:05Z</time>
      </trkpt>
      <trkpt lat="43.51507" lon="6.6124">
        <ele>97.23</ele>
        <time>2019-01-29T13:06:17Z</time>
      </trkpt>
      <trkpt lat="43.51519" lon="6.61236">
        <ele>96.75</ele>
        <time>2019-01-29T13:06:29Z</time>
      </trkpt>
      <trkpt lat="43.51529" lon="6.6124">
        <ele>95.79</ele>
        <time>2019-01-29T13:06:40Z</time>
      </trkpt>
      <trkpt lat="43.5153" lon="6.6124">
        <ele>95.79</ele>
        <time>2019-01-29T13:06:41Z</time>
      </trkpt>
      <trkpt lat="43.51542" lon="6.61248">
        <ele>95.79</ele>
        <time>2019-01-29T13:06:54Z</time>
      </trkpt>
      <trkpt lat="43.51545" lon="6.6125">
        <ele>95.79</ele>
        <time>2019-01-29T13:06:58Z</time>
      </trkpt>
      <trkpt lat="43.51551" lon="6.61251">
        <ele>95.79</ele>
        <time>2019-01-29T13:07:06Z</time>
      </trkpt>
      <trkpt lat="43.51552" lon="6.61252">
        <ele>95.79</ele>
        <time>2019-01-29T13:07:07Z</time>
      </trkpt>
      <trkpt lat="43.51555" lon="6.61256">
        <ele>95.79</ele>
        <time>2019-01-29T13:07:11Z</time>
      </trkpt>
      <trkpt lat="43.51557" lon="6.6126">
        <ele>96.27</ele>
        <time>2019-01-29T13:07:15Z</time>
      </trkpt>
      <trkpt lat="43.51564" lon="6.61268">
        <ele>96.75</ele>
        <time>2019-01-29T13:07:24Z</time>
      </trkpt>
      <trkpt lat="43.51571" lon="6.61276">
        <ele>97.23</ele>
        <time>2019-01-29T13:07:34Z</time>
      </trkpt>
      <trkpt lat="43.51581" lon="6.61286">
        <ele>98.19</ele>
        <time>2019-01-29T13:07:47Z</time>
      </trkpt>
      <trkpt lat="43.51587" lon="6.61294">
        <ele>99.15</ele>
        <time>2019-01-29T13:07:57Z</time>
      </trkpt>
      <trkpt lat="43.51598" lon="6.61294">
        <ele>100.11</ele>
        <time>2019-01-29T13:08:10Z</time>
      </trkpt>
      <trkpt lat="43.51606" lon="6.61286">
        <ele>100.6</ele>
        <time>2019-01-29T13:08:21Z</time>
      </trkpt>
      <trkpt lat="43.51614" lon="6.61278">
        <ele>101.08</ele>
        <time>2019-01-29T13:08:31Z</time>
      </trkpt>
      <trkpt lat="43.5162" lon="6.61273">
        <ele>101.08</ele>
        <time>2019-01-29T13:08:39Z</time>
      </trkpt>
      <trkpt lat="43.5163" lon="6.61264">
        <ele>101.08</ele>
        <time>2019-01-29T13:08:50Z</time>
      </trkpt>
      <trkpt lat="43.5164" lon="6.61256">
        <ele>100.6</ele>
        <time>2019-01-29T13:09:02Z</time>
      </trkpt>
      <trkpt lat="43.51648" lon="6.61251">
        <ele>100.6</ele>
        <time>2019-01-29T13:09:11Z</time>
      </trkpt>
      <trkpt lat="43.5166" lon="6.61247">
        <ele>100.6</ele>
        <time>2019-01-29T13:09:23Z</time>
      </trkpt>
      <trkpt lat="43.51671" lon="6.61246">
        <ele>100.6</ele>
        <time>2019-01-29T13:09:34Z</time>
      </trkpt>
      <trkpt lat="43.51682" lon="6.61248">
        <ele>101.08</ele>
        <time>2019-01-29T13:09:45Z</time>
      </trkpt>
      <trkpt lat="43.51688" lon="6.61249">
        <ele>101.56</ele>
        <time>2019-01-29T13:09:52Z</time>
      </trkpt>
      <trkpt lat="43.5169" lon="6.61249">
        <ele>101.56</ele>
        <time>2019-01-29T13:09:54Z</time>
      </trkpt>
      <trkpt lat="43.51701" lon="6.61259">
        <ele>101.56</ele>
        <time>2019-01-29T13:10:07Z</time>
      </trkpt>
      <trkpt lat="43.51708" lon="6.61271">
        <ele>101.08</ele>
        <time>2019-01-29T13:10:18Z</time>
      </trkpt>
      <trkpt lat="43.51716" lon="6.61281">
        <ele>101.56</ele>
        <time>2019-01-29T13:10:29Z</time>
      </trkpt>
      <trkpt lat="43.51727" lon="6.61289">
        <ele>102.04</ele>
        <time>2019-01-29T13:10:41Z</time>
      </trkpt>
      <trkpt lat="43.51736" lon="6.61295">
        <ele>102.04</ele>
        <time>2019-01-29T13:10:51Z</time>
      </trkpt>
      <trkpt lat="43.51744" lon="6.61304">
        <ele>100.6</ele>
        <time>2019-01-29T13:11:02Z</time>
      </trkpt>
      <trkpt lat="43.51745" lon="6.61305">
        <ele>100.6</ele>
        <time>2019-01-29T13:11:03Z</time>
      </trkpt>
      <trkpt lat="43.51751" lon="6.61306">
        <ele>101.08</ele>
        <time>2019-01-29T13:11:10Z</time>
      </trkpt>
      <trkpt lat="43.51753" lon="6.61305">
        <ele>101.56</ele>
        <time>2019-01-29T13:11:12Z</time>
      </trkpt>
      <trkpt lat="43.51757" lon="6.61306">
        <ele>102.04</ele>
        <time>2019-01-29T13:11:22Z</time>
      </trkpt>
      <trkpt lat="43.51758" lon="6.61305">
        <ele>102.04</ele>
        <time>2019-01-29T13:11:35Z</time>
      </trkpt>
      <trkpt lat="43.51757" lon="6.61305">
        <ele>102.52</ele>
        <time>2019-01-29T13:11:59Z</time>
      </trkpt>
      <trkpt lat="43.51758" lon="6.61304">
        <ele>102.52</ele>
        <time>2019-01-29T13:12:23Z</time>
      </trkpt>
      <trkpt lat="43.51763" lon="6.61303">
        <ele>102.52</ele>
        <time>2019-01-29T13:12:31Z</time>
      </trkpt>
      <trkpt lat="43.51773" lon="6.61304">
        <ele>103.48</ele>
        <time>2019-01-29T13:12:43Z</time>
      </trkpt>
      <trkpt lat="43.5178" lon="6.61304">
        <ele>103.48</ele>
        <time>2019-01-29T13:12:54Z</time>
      </trkpt>
      <trkpt lat="43.51791" lon="6.61305">
        <ele>104.44</ele>
        <time>2019-01-29T13:13:06Z</time>
      </trkpt>
      <trkpt lat="43.51802" lon="6.61309">
        <ele>104.44</ele>
        <time>2019-01-29T13:13:18Z</time>
      </trkpt>
      <trkpt lat="43.51813" lon="6.61315">
        <ele>104.92</ele>
        <time>2019-01-29T13:13:30Z</time>
      </trkpt>
      <trkpt lat="43.51824" lon="6.61321">
        <ele>105.4</ele>
        <time>2019-01-29T13:13:42Z</time>
      </trkpt>
      <trkpt lat="43.51833" lon="6.61328">
        <ele>105.88</ele>
        <time>2019-01-29T13:13:54Z</time>
      </trkpt>
      <trkpt lat="43.51845" lon="6.61333">
        <ele>106.36</ele>
        <time>2019-01-29T13:14:06Z</time>
      </trkpt>
      <trkpt lat="43.51846" lon="6.61332">
        <ele>106.36</ele>
        <time>2019-01-29T13:14:16Z</time>
      </trkpt>
      <trkpt lat="43.51847" lon="6.61333">
        <ele>106.36</ele>
        <time>2019-01-29T13:14:19Z</time>
      </trkpt>
      <trkpt lat="43.51852" lon="6.61335">
        <ele>106.36</ele>
        <time>2019-01-29T13:14:24Z</time>
      </trkpt>
      <trkpt lat="43.51858" lon="6.61338">
        <ele>105.88</ele>
        <time>2019-01-29T13:14:30Z</time>
      </trkpt>
      <trkpt lat="43.51873" lon="6.61336">
        <ele>105.88</ele>
        <time>2019-01-29T13:14:43Z</time>
      </trkpt>
      <trkpt lat="43.51881" lon="6.61329">
        <ele>106.36</ele>
        <time>2019-01-29T13:14:53Z</time>
      </trkpt>
      <trkpt lat="43.51891" lon="6.61318">
        <ele>106.84</ele>
        <time>2019-01-29T13:15:05Z</time>
      </trkpt>
      <trkpt lat="43.51899" lon="6.6131">
        <ele>107.32</ele>
        <time>2019-01-29T13:15:15Z</time>
      </trkpt>
      <trkpt lat="43.5191" lon="6.61303">
        <ele>107.81</ele>
        <time>2019-01-29T13:15:26Z</time>
      </trkpt>
      <trkpt lat="43.51915" lon="6.613">
        <ele>108.29</ele>
        <time>2019-01-29T13:15:31Z</time>
      </trkpt>
      <trkpt lat="43.51924" lon="6.61295">
        <ele>108.77</ele>
        <time>2019-01-29T13:15:41Z</time>
      </trkpt>
      <trkpt lat="43.51935" lon="6.61292">
        <ele>109.25</ele>
        <time>2019-01-29T13:15:52Z</time>
      </trkpt>
      <trkpt lat="43.51947" lon="6.61287">
        <ele>109.73</ele>
        <time>2019-01-29T13:16:03Z</time>
      </trkpt>
      <trkpt lat="43.51957" lon="6.61281">
        <ele>110.21</ele>
        <time>2019-01-29T13:16:14Z</time>
      </trkpt>
      <trkpt lat="43.51966" lon="6.61274">
        <ele>110.69</ele>
        <time>2019-01-29T13:16:24Z</time>
      </trkpt>
      <trkpt lat="43.51975" lon="6.61261">
        <ele>111.17</ele>
        <time>2019-01-29T13:16:37Z</time>
      </trkpt>
      <trkpt lat="43.51979" lon="6.61251">
        <ele>111.17</ele>
        <time>2019-01-29T13:16:44Z</time>
      </trkpt>
      <trkpt lat="43.51987" lon="6.61243">
        <ele>112.13</ele>
        <time>2019-01-29T13:16:54Z</time>
      </trkpt>
      <trkpt lat="43.51991" lon="6.61241">
        <ele>111.65</ele>
        <time>2019-01-29T13:16:58Z</time>
      </trkpt>
      <trkpt lat="43.52003" lon="6.61231">
        <ele>112.13</ele>
        <time>2019-01-29T13:17:11Z</time>
      </trkpt>
      <trkpt lat="43.52014" lon="6.61225">
        <ele>112.13</ele>
        <time>2019-01-29T13:17:22Z</time>
      </trkpt>
      <trkpt lat="43.52024" lon="6.61221">
        <ele>112.61</ele>
        <time>2019-01-29T13:17:32Z</time>
      </trkpt>
      <trkpt lat="43.52035" lon="6.61213">
        <ele>113.09</ele>
        <time>2019-01-29T13:17:44Z</time>
      </trkpt>
      <trkpt lat="43.52046" lon="6.61207">
        <ele>113.57</ele>
        <time>2019-01-29T13:17:56Z</time>
      </trkpt>
      <trkpt lat="43.5205" lon="6.61205">
        <ele>114.05</ele>
        <time>2019-01-29T13:18:00Z</time>
      </trkpt>
      <trkpt lat="43.52063" lon="6.61198">
        <ele>114.53</ele>
        <time>2019-01-29T13:18:13Z</time>
      </trkpt>
      <trkpt lat="43.52072" lon="6.61193">
        <ele>114.53</ele>
        <time>2019-01-29T13:18:24Z</time>
      </trkpt>
      <trkpt lat="43.5208" lon="6.61188">
        <ele>115.01</ele>
        <time>2019-01-29T13:18:33Z</time>
      </trkpt>
      <trkpt lat="43.52086" lon="6.61184">
        <ele>115.5</ele>
        <time>2019-01-29T13:18:39Z</time>
      </trkpt>
      <trkpt lat="43.52097" lon="6.61178">
        <ele>115.98</ele>
        <time>2019-01-29T13:18:52Z</time>
      </trkpt>
      <trkpt lat="43.52107" lon="6.61172">
        <ele>116.46</ele>
        <time>2019-01-29T13:19:02Z</time>
      </trkpt>
      <trkpt lat="43.52119" lon="6.61165">
        <ele>117.42</ele>
        <time>2019-01-29T13:19:15Z</time>
      </trkpt>
      <trkpt lat="43.5213" lon="6.6116">
        <ele>117.9</ele>
        <time>2019-01-29T13:19:27Z</time>
      </trkpt>
      <trkpt lat="43.52137" lon="6.61155">
        <ele>118.38</ele>
        <time>2019-01-29T13:19:37Z</time>
      </trkpt>
      <trkpt lat="43.52137" lon="6.61155">
        <ele>118.38</ele>
        <time>2019-01-29T13:19:38Z</time>
      </trkpt>
      <trkpt lat="43.52145" lon="6.61144">
        <ele>118.86</ele>
        <time>2019-01-29T13:19:49Z</time>
      </trkpt>
      <trkpt lat="43.52146" lon="6.61142">
        <ele>119.34</ele>
        <time>2019-01-29T13:19:51Z</time>
      </trkpt>
      <trkpt lat="43.52151" lon="6.61128">
        <ele>119.82</ele>
        <time>2019-01-29T13:20:02Z</time>
      </trkpt>
      <trkpt lat="43.52154" lon="6.61116">
        <ele>120.3</ele>
        <time>2019-01-29T13:20:12Z</time>
      </trkpt>
      <trkpt lat="43.52157" lon="6.61102">
        <ele>120.78</ele>
        <time>2019-01-29T13:20:22Z</time>
      </trkpt>
      <trkpt lat="43.52157" lon="6.61101">
        <ele>120.78</ele>
        <time>2019-01-29T13:20:23Z</time>
      </trkpt>
      <trkpt lat="43.52159" lon="6.61097">
        <ele>120.78</ele>
        <time>2019-01-29T13:20:26Z</time>
      </trkpt>
      <trkpt lat="43.52165" lon="6.61081">
        <ele>120.78</ele>
        <time>2019-01-29T13:20:39Z</time>
      </trkpt>
      <trkpt lat="43.52168" lon="6.6107">
        <ele>121.26</ele>
        <time>2019-01-29T13:20:48Z</time>
      </trkpt>
      <trkpt lat="43.52173" lon="6.61059">
        <ele>121.26</ele>
        <time>2019-01-29T13:20:58Z</time>
      </trkpt>
      <trkpt lat="43.52181" lon="6.61045">
        <ele>122.22</ele>
        <time>2019-01-29T13:21:10Z</time>
      </trkpt>
      <trkpt lat="43.52186" lon="6.61034">
        <ele>121.74</ele>
        <time>2019-01-29T13:21:19Z</time>
      </trkpt>
      <trkpt lat="43.5219" lon="6.61025">
        <ele>121.74</ele>
        <time>2019-01-29T13:21:27Z</time>
      </trkpt>
      <trkpt lat="43.52195" lon="6.61013">
        <ele>120.78</ele>
        <time>2019-01-29T13:21:37Z</time>
      </trkpt>
      <trkpt lat="43.52196" lon="6.61013">
        <ele>120.3</ele>
        <time>2019-01-29T13:21:38Z</time>
      </trkpt>
      <trkpt lat="43.522" lon="6.61006">
        <ele>119.34</ele>
        <time>2019-01-29T13:21:45Z</time>
      </trkpt>
      <trkpt lat="43.52202" lon="6.61004">
        <ele>118.38</ele>
        <time>2019-01-29T13:21:48Z</time>
      </trkpt>
      <trkpt lat="43.52211" lon="6.60993">
        <ele>116.94</ele>
        <time>2019-01-29T13:21:58Z</time>
      </trkpt>
      <trkpt lat="43.52217" lon="6.60984">
        <ele>115.98</ele>
        <time>2019-01-29T13:22:06Z</time>
      </trkpt>
      <trkpt lat="43.52224" lon="6.60969">
        <ele>115.01</ele>
        <time>2019-01-29T13:22:17Z</time>
      </trkpt>
      <trkpt lat="43.52232" lon="6.60958">
        <ele>113.57</ele>
        <time>2019-01-29T13:22:29Z</time>
      </trkpt>
      <trkpt lat="43.52239" lon="6.60945">
        <ele>111.65</ele>
        <time>2019-01-29T13:22:40Z</time>
      </trkpt>
      <trkpt lat="43.52244" lon="6.60932">
        <ele>109.73</ele>
        <time>2019-01-29T13:22:51Z</time>
      </trkpt>
      <trkpt lat="43.52246" lon="6.60915">
        <ele>108.29</ele>
        <time>2019-01-29T13:23:02Z</time>
      </trkpt>
      <trkpt lat="43.52247" lon="6.60899">
        <ele>108.29</ele>
        <time>2019-01-29T13:23:12Z</time>
      </trkpt>
      <trkpt lat="43.5225" lon="6.60887">
        <ele>108.29</ele>
        <time>2019-01-29T13:23:21Z</time>
      </trkpt>
      <trkpt lat="43.52255" lon="6.60872">
        <ele>108.77</ele>
        <time>2019-01-29T13:23:32Z</time>
      </trkpt>
      <trkpt lat="43.52261" lon="6.60854">
        <ele>109.73</ele>
        <time>2019-01-29T13:23:46Z</time>
      </trkpt>
      <trkpt lat="43.52266" lon="6.6084">
        <ele>110.69</ele>
        <time>2019-01-29T13:23:57Z</time>
      </trkpt>
      <trkpt lat="43.52272" lon="6.60828">
        <ele>112.13</ele>
        <time>2019-01-29T13:24:08Z</time>
      </trkpt>
      <trkpt lat="43.52276" lon="6.60813">
        <ele>112.61</ele>
        <time>2019-01-29T13:24:19Z</time>
      </trkpt>
      <trkpt lat="43.52277" lon="6.60808">
        <ele>112.61</ele>
        <time>2019-01-29T13:24:24Z</time>
      </trkpt>
      <trkpt lat="43.52276" lon="6.60806">
        <ele>113.09</ele>
        <time>2019-01-29T13:24:26Z</time>
      </trkpt>
      <trkpt lat="43.5228" lon="6.60789">
        <ele>113.09</ele>
        <time>2019-01-29T13:24:39Z</time>
      </trkpt>
      <trkpt lat="43.52284" lon="6.60777">
        <ele>112.61</ele>
        <time>2019-01-29T13:24:48Z</time>
      </trkpt>
      <trkpt lat="43.5229" lon="6.6076">
        <ele>112.61</ele>
        <time>2019-01-29T13:25:00Z</time>
      </trkpt>
      <trkpt lat="43.52293" lon="6.60748">
        <ele>113.09</ele>
        <time>2019-01-29T13:25:09Z</time>
      </trkpt>
      <trkpt lat="43.52294" lon="6.60743">
        <ele>113.57</ele>
        <time>2019-01-29T13:25:19Z</time>
      </trkpt>
      <trkpt lat="43.52295" lon="6.60743">
        <ele>113.57</ele>
        <time>2019-01-29T13:25:24Z</time>
      </trkpt>
      <trkpt lat="43.52296" lon="6.60733">
        <ele>113.57</ele>
        <time>2019-01-29T13:25:33Z</time>
      </trkpt>
      <trkpt lat="43.52297" lon="6.60728">
        <ele>113.57</ele>
        <time>2019-01-29T13:25:36Z</time>
      </trkpt>
      <trkpt lat="43.52301" lon="6.6071">
        <ele>113.09</ele>
        <time>2019-01-29T13:25:48Z</time>
      </trkpt>
      <trkpt lat="43.52304" lon="6.60704">
        <ele>113.09</ele>
        <time>2019-01-29T13:25:54Z</time>
      </trkpt>
      <trkpt lat="43.52308" lon="6.60691">
        <ele>114.53</ele>
        <time>2019-01-29T13:26:05Z</time>
      </trkpt>
      <trkpt lat="43.52312" lon="6.60677">
        <ele>115.01</ele>
        <time>2019-01-29T13:26:15Z</time>
      </trkpt>
      <trkpt lat="43.52314" lon="6.60672">
        <ele>115.01</ele>
        <time>2019-01-29T13:26:18Z</time>
      </trkpt>
      <trkpt lat="43.52317" lon="6.60657">
        <ele>115.98</ele>
        <time>2019-01-29T13:26:29Z</time>
      </trkpt>
      <trkpt lat="43.52322" lon="6.60643">
        <ele>116.46</ele>
        <time>2019-01-29T13:26:40Z</time>
      </trkpt>
      <trkpt lat="43.52322" lon="6.60642">
        <ele>116.94</ele>
        <time>2019-01-29T13:26:41Z</time>
      </trkpt>
      <trkpt lat="43.52328" lon="6.60628">
        <ele>117.42</ele>
        <time>2019-01-29T13:26:52Z</time>
      </trkpt>
      <trkpt lat="43.52331" lon="6.60618">
        <ele>116.94</ele>
        <time>2019-01-29T13:27:01Z</time>
      </trkpt>
      <trkpt lat="43.52331" lon="6.60601">
        <ele>116.46</ele>
        <time>2019-01-29T13:27:12Z</time>
      </trkpt>
      <trkpt lat="43.52331" lon="6.60598">
        <ele>116.46</ele>
        <time>2019-01-29T13:27:14Z</time>
      </trkpt>
      <trkpt lat="43.52331" lon="6.60583">
        <ele>116.94</ele>
        <time>2019-01-29T13:27:25Z</time>
      </trkpt>
      <trkpt lat="43.52332" lon="6.60569">
        <ele>116.94</ele>
        <time>2019-01-29T13:27:35Z</time>
      </trkpt>
      <trkpt lat="43.52332" lon="6.60554">
        <ele>116.46</ele>
        <time>2019-01-29T13:27:46Z</time>
      </trkpt>
      <trkpt lat="43.52333" lon="6.60536">
        <ele>116.46</ele>
        <time>2019-01-29T13:27:58Z</time>
      </trkpt>
      <trkpt lat="43.52333" lon="6.60521">
        <ele>116.94</ele>
        <time>2019-01-29T13:28:07Z</time>
      </trkpt>
      <trkpt lat="43.52331" lon="6.60506">
        <ele>115.98</ele>
        <time>2019-01-29T13:28:17Z</time>
      </trkpt>
      <trkpt lat="43.52329" lon="6.60489">
        <ele>116.46</ele>
        <time>2019-01-29T13:28:29Z</time>
      </trkpt>
      <trkpt lat="43.52326" lon="6.60472">
        <ele>115.98</ele>
        <time>2019-01-29T13:28:41Z</time>
      </trkpt>
      <trkpt lat="43.52325" lon="6.60458">
        <ele>115.5</ele>
        <time>2019-01-29T13:28:52Z</time>
      </trkpt>
      <trkpt lat="43.52325" lon="6.60455">
        <ele>115.5</ele>
        <time>2019-01-29T13:28:54Z</time>
      </trkpt>
      <trkpt lat="43.52326" lon="6.60452">
        <ele>115.5</ele>
        <time>2019-01-29T13:29:03Z</time>
      </trkpt>
      <trkpt lat="43.52325" lon="6.6045">
        <ele>115.01</ele>
        <time>2019-01-29T13:29:05Z</time>
      </trkpt>
      <trkpt lat="43.52325" lon="6.60431">
        <ele>115.5</ele>
        <time>2019-01-29T13:29:18Z</time>
      </trkpt>
      <trkpt lat="43.52325" lon="6.60421">
        <ele>115.98</ele>
        <time>2019-01-29T13:29:25Z</time>
      </trkpt>
      <trkpt lat="43.52326" lon="6.60404">
        <ele>116.46</ele>
        <time>2019-01-29T13:29:36Z</time>
      </trkpt>
      <trkpt lat="43.52326" lon="6.60391">
        <ele>116.46</ele>
        <time>2019-01-29T13:29:45Z</time>
      </trkpt>
      <trkpt lat="43.52326" lon="6.60389">
        <ele>116.46</ele>
        <time>2019-01-29T13:29:46Z</time>
      </trkpt>
      <trkpt lat="43.52325" lon="6.60376">
        <ele>116.46</ele>
        <time>2019-01-29T13:29:56Z</time>
      </trkpt>
      <trkpt lat="43.52322" lon="6.6036">
        <ele>116.94</ele>
        <time>2019-01-29T13:30:07Z</time>
      </trkpt>
      <trkpt lat="43.5232" lon="6.60341">
        <ele>117.42</ele>
        <time>2019-01-29T13:30:20Z</time>
      </trkpt>
      <trkpt lat="43.52321" lon="6.60327">
        <ele>117.42</ele>
        <time>2019-01-29T13:30:28Z</time>
      </trkpt>
      <trkpt lat="43.52324" lon="6.6031">
        <ele>117.42</ele>
        <time>2019-01-29T13:30:41Z</time>
      </trkpt>
      <trkpt lat="43.52326" lon="6.60301">
        <ele>117.42</ele>
        <time>2019-01-29T13:30:47Z</time>
      </trkpt>
      <trkpt lat="43.52327" lon="6.60292">
        <ele>117.9</ele>
        <time>2019-01-29T13:30:53Z</time>
      </trkpt>
      <trkpt lat="43.52329" lon="6.60284">
        <ele>117.42</ele>
        <time>2019-01-29T13:30:59Z</time>
      </trkpt>
      <trkpt lat="43.52331" lon="6.60273">
        <ele>117.9</ele>
        <time>2019-01-29T13:31:07Z</time>
      </trkpt>
      <trkpt lat="43.52331" lon="6.60271">
        <ele>117.9</ele>
        <time>2019-01-29T13:31:08Z</time>
      </trkpt>
      <trkpt lat="43.52334" lon="6.60266">
        <ele>117.9</ele>
        <time>2019-01-29T13:31:13Z</time>
      </trkpt>
      <trkpt lat="43.52335" lon="6.60252">
        <ele>117.42</ele>
        <time>2019-01-29T13:31:23Z</time>
      </trkpt>
      <trkpt lat="43.52337" lon="6.60239">
        <ele>117.9</ele>
        <time>2019-01-29T13:31:33Z</time>
      </trkpt>
      <trkpt lat="43.52342" lon="6.60229">
        <ele>117.42</ele>
        <time>2019-01-29T13:31:44Z</time>
      </trkpt>
      <trkpt lat="43.52344" lon="6.60227">
        <ele>117.42</ele>
        <time>2019-01-29T13:31:46Z</time>
      </trkpt>
      <trkpt lat="43.5235" lon="6.60215">
        <ele>116.46</ele>
        <time>2019-01-29T13:31:57Z</time>
      </trkpt>
      <trkpt lat="43.52354" lon="6.60206">
        <ele>115.98</ele>
        <time>2019-01-29T13:32:06Z</time>
      </trkpt>
      <trkpt lat="43.52361" lon="6.6019">
        <ele>116.46</ele>
        <time>2019-01-29T13:32:18Z</time>
      </trkpt>
      <trkpt lat="43.52365" lon="6.60175">
        <ele>117.9</ele>
        <time>2019-01-29T13:32:31Z</time>
      </trkpt>
      <trkpt lat="43.52365" lon="6.60177">
        <ele>117.9</ele>
        <time>2019-01-29T13:32:38Z</time>
      </trkpt>
      <trkpt lat="43.52364" lon="6.60182">
        <ele>116.94</ele>
        <time>2019-01-29T13:32:42Z</time>
      </trkpt>
      <trkpt lat="43.52362" lon="6.60187">
        <ele>116.46</ele>
        <time>2019-01-29T13:32:46Z</time>
      </trkpt>
      <trkpt lat="43.52357" lon="6.60202">
        <ele>116.46</ele>
        <time>2019-01-29T13:32:56Z</time>
      </trkpt>
      <trkpt lat="43.5235" lon="6.60218">
        <ele>116.46</ele>
        <time>2019-01-29T13:33:08Z</time>
      </trkpt>
      <trkpt lat="43.52345" lon="6.60229">
        <ele>117.42</ele>
        <time>2019-01-29T13:33:18Z</time>
      </trkpt>
      <trkpt lat="43.52341" lon="6.60234">
        <ele>116.94</ele>
        <time>2019-01-29T13:33:28Z</time>
      </trkpt>
      <trkpt lat="43.52338" lon="6.60239">
        <ele>116.94</ele>
        <time>2019-01-29T13:33:39Z</time>
      </trkpt>
      <trkpt lat="43.52338" lon="6.6024">
        <ele>116.94</ele>
        <time>2019-01-29T13:33:49Z</time>
      </trkpt>
      <trkpt lat="43.52339" lon="6.60239">
        <ele>116.94</ele>
        <time>2019-01-29T13:34:01Z</time>
      </trkpt>
      <trkpt lat="43.52339" lon="6.60234">
        <ele>116.94</ele>
        <time>2019-01-29T13:34:07Z</time>
      </trkpt>
      <trkpt lat="43.52337" lon="6.60234">
        <ele>116.94</ele>
        <time>2019-01-29T13:34:19Z</time>
      </trkpt>
      <trkpt lat="43.52339" lon="6.60242">
        <ele>117.42</ele>
        <time>2019-01-29T13:34:31Z</time>
      </trkpt>
      <trkpt lat="43.52339" lon="6.60242">
        <ele>117.42</ele>
        <time>2019-01-29T13:34:47Z</time>
      </trkpt>
      <trkpt lat="43.52338" lon="6.60242">
        <ele>116.94</ele>
        <time>2019-01-29T13:35:06Z</time>
      </trkpt>
      <trkpt lat="43.52339" lon="6.6024">
        <ele>117.42</ele>
        <time>2019-01-29T13:35:17Z</time>
      </trkpt>
      <trkpt lat="43.52337" lon="6.60239">
        <ele>116.94</ele>
        <time>2019-01-29T13:35:28Z</time>
      </trkpt>
      <trkpt lat="43.52337" lon="6.60238">
        <ele>116.46</ele>
        <time>2019-01-29T13:35:38Z</time>
      </trkpt>
      <trkpt lat="43.52337" lon="6.60238">
        <ele>117.42</ele>
        <time>2019-01-29T13:35:51Z</time>
      </trkpt>
      <trkpt lat="43.52337" lon="6.60238">
        <ele>116.94</ele>
        <time>2019-01-29T13:36:04Z</time>
      </trkpt>
      <trkpt lat="43.52336" lon="6.60237">
        <ele>116.94</ele>
        <time>2019-01-29T13:36:19Z</time>
      </trkpt>
      <trkpt lat="43.52336" lon="6.60237">
        <ele>120.3</ele>
        <time>2019-01-29T13:36:31Z</time>
      </trkpt>
      <trkpt lat="43.52336" lon="6.60237">
        <ele>116.94</ele>
        <time>2019-01-29T13:36:33Z</time>
      </trkpt>
      <trkpt lat="43.52336" lon="6.60237">
        <ele>112.61</ele>
        <time>2019-01-29T13:36:41Z</time>
      </trkpt>
      <trkpt lat="43.52336" lon="6.60237">
        <ele>121.26</ele>
        <time>2019-01-29T13:36:42Z</time>
      </trkpt>
      <trkpt lat="43.52336" lon="6.60237">
        <ele>117.42</ele>
        <time>2019-01-29T13:36:43Z</time>
      </trkpt>
      <trkpt lat="43.52336" lon="6.60237">
        <ele>116.94</ele>
        <time>2019-01-29T13:37:01Z</time>
      </trkpt>
      <trkpt lat="43.52336" lon="6.60237">
        <ele>116.94</ele>
        <time>2019-01-29T13:37:19Z</time>
      </trkpt>
      <trkpt lat="43.52336" lon="6.60237">
        <ele>119.82</ele>
        <time>2019-01-29T13:37:27Z</time>
      </trkpt>
      <trkpt lat="43.52336" lon="6.60237">
        <ele>116.94</ele>
        <time>2019-01-29T13:37:30Z</time>
      </trkpt>
      <trkpt lat="43.52336" lon="6.60237">
        <ele>116.94</ele>
        <time>2019-01-29T13:37:50Z</time>
      </trkpt>
      <trkpt lat="43.52336" lon="6.60237">
        <ele>116.94</ele>
        <time>2019-01-29T13:38:02Z</time>
      </trkpt>
      <trkpt lat="43.52336" lon="6.60237">
        <ele>116.46</ele>
        <time>2019-01-29T13:38:19Z</time>
      </trkpt>
      <trkpt lat="43.52335" lon="6.60237">
        <ele>116.46</ele>
        <time>2019-01-29T13:38:33Z</time>
      </trkpt>
      <trkpt lat="43.52335" lon="6.60238">
        <ele>116.46</ele>
        <time>2019-01-29T13:39:01Z</time>
      </trkpt>
      <trkpt lat="43.52335" lon="6.60238">
        <ele>116.46</ele>
        <time>2019-01-29T13:39:27Z</time>
      </trkpt>
      <trkpt lat="43.52336" lon="6.60238">
        <ele>116.46</ele>
        <time>2019-01-29T13:39:49Z</time>
      </trkpt>
      <trkpt lat="43.52337" lon="6.60237">
        <ele>116.46</ele>
        <time>2019-01-29T13:40:08Z</time>
      </trkpt>
      <trkpt lat="43.52337" lon="6.60238">
        <ele>116.46</ele>
        <time>2019-01-29T13:40:20Z</time>
      </trkpt>
      <trkpt lat="43.52337" lon="6.60238">
        <ele>116.46</ele>
        <time>2019-01-29T13:40:39Z</time>
      </trkpt>
      <trkpt lat="43.52337" lon="6.60238">
        <ele>116.46</ele>
        <time>2019-01-29T13:41:02Z</time>
      </trkpt>
      <trkpt lat="43.52337" lon="6.60239">
        <ele>116.46</ele>
        <time>2019-01-29T13:41:07Z</time>
      </trkpt>
      <trkpt lat="43.52336" lon="6.60245">
        <ele>117.42</ele>
        <time>2019-01-29T13:41:12Z</time>
      </trkpt>
      <trkpt lat="43.52337" lon="6.60249">
        <ele>116.94</ele>
        <time>2019-01-29T13:41:20Z</time>
      </trkpt>
      <trkpt lat="43.52338" lon="6.60245">
        <ele>116.94</ele>
        <time>2019-01-29T13:41:28Z</time>
      </trkpt>
      <trkpt lat="43.52338" lon="6.6024">
        <ele>116.46</ele>
        <time>2019-01-29T13:41:38Z</time>
      </trkpt>
      <trkpt lat="43.52337" lon="6.6024">
        <ele>116.94</ele>
        <time>2019-01-29T13:41:48Z</time>
      </trkpt>
      <trkpt lat="43.52337" lon="6.60239">
        <ele>112.13</ele>
        <time>2019-01-29T13:41:55Z</time>
      </trkpt>
      <trkpt lat="43.52337" lon="6.60239">
        <ele>121.74</ele>
        <time>2019-01-29T13:41:56Z</time>
      </trkpt>
      <trkpt lat="43.52337" lon="6.60239">
        <ele>116.94</ele>
        <time>2019-01-29T13:41:57Z</time>
      </trkpt>
      <trkpt lat="43.52336" lon="6.60238">
        <ele>116.94</ele>
        <time>2019-01-29T13:42:11Z</time>
      </trkpt>
      <trkpt lat="43.52336" lon="6.60238">
        <ele>116.46</ele>
        <time>2019-01-29T13:42:28Z</time>
      </trkpt>
      <trkpt lat="43.52335" lon="6.60237">
        <ele>116.46</ele>
        <time>2019-01-29T13:42:51Z</time>
      </trkpt>
      <trkpt lat="43.52335" lon="6.60237">
        <ele>116.46</ele>
        <time>2019-01-29T13:43:21Z</time>
      </trkpt>
      <trkpt lat="43.52335" lon="6.60237">
        <ele>116.46</ele>
        <time>2019-01-29T13:43:38Z</time>
      </trkpt>
      <trkpt lat="43.52332" lon="6.6024">
        <ele>116.46</ele>
        <time>2019-01-29T13:43:57Z</time>
      </trkpt>
      <trkpt lat="43.52329" lon="6.6024">
        <ele>115.98</ele>
        <time>2019-01-29T13:44:05Z</time>
      </trkpt>
      <trkpt lat="43.5232" lon="6.6024">
        <ele>114.53</ele>
        <time>2019-01-29T13:44:18Z</time>
      </trkpt>
      <trkpt lat="43.52317" lon="6.60234">
        <ele>114.05</ele>
        <time>2019-01-29T13:44:29Z</time>
      </trkpt>
      <trkpt lat="43.52311" lon="6.60225">
        <ele>113.57</ele>
        <time>2019-01-29T13:44:40Z</time>
      </trkpt>
      <trkpt lat="43.52309" lon="6.60217">
        <ele>113.09</ele>
        <time>2019-01-29T13:44:51Z</time>
      </trkpt>
      <trkpt lat="43.52306" lon="6.60209">
        <ele>112.61</ele>
        <time>2019-01-29T13:45:06Z</time>
      </trkpt>
      <trkpt lat="43.52307" lon="6.60209">
        <ele>112.61</ele>
        <time>2019-01-29T13:45:26Z</time>
      </trkpt>
      <trkpt lat="43.52307" lon="6.6021">
        <ele>112.61</ele>
        <time>2019-01-29T13:45:43Z</time>
      </trkpt>
      <trkpt lat="43.52302" lon="6.6021">
        <ele>112.13</ele>
        <time>2019-01-29T13:46:02Z</time>
      </trkpt>
      <trkpt lat="43.52287" lon="6.60212">
        <ele>111.65</ele>
        <time>2019-01-29T13:46:17Z</time>
      </trkpt>
      <trkpt lat="43.52271" lon="6.6021">
        <ele>110.69</ele>
        <time>2019-01-29T13:46:34Z</time>
      </trkpt>
      <trkpt lat="43.52258" lon="6.60202">
        <ele>110.21</ele>
        <time>2019-01-29T13:46:47Z</time>
      </trkpt>
      <trkpt lat="43.5224" lon="6.60194">
        <ele>109.25</ele>
        <time>2019-01-29T13:47:06Z</time>
      </trkpt>
      <trkpt lat="43.52224" lon="6.6019">
        <ele>108.77</ele>
        <time>2019-01-29T13:47:22Z</time>
      </trkpt>
      <trkpt lat="43.52209" lon="6.60186">
        <ele>107.81</ele>
        <time>2019-01-29T13:47:36Z</time>
      </trkpt>
      <trkpt lat="43.52193" lon="6.60183">
        <ele>107.81</ele>
        <time>2019-01-29T13:47:52Z</time>
      </trkpt>
      <trkpt lat="43.52176" lon="6.6018">
        <ele>107.32</ele>
        <time>2019-01-29T13:48:08Z</time>
      </trkpt>
      <trkpt lat="43.52166" lon="6.60181">
        <ele>107.32</ele>
        <time>2019-01-29T13:48:20Z</time>
      </trkpt>
      <trkpt lat="43.52147" lon="6.6018">
        <ele>107.32</ele>
        <time>2019-01-29T13:48:36Z</time>
      </trkpt>
      <trkpt lat="43.52128" lon="6.60181">
        <ele>107.81</ele>
        <time>2019-01-29T13:48:52Z</time>
      </trkpt>
      <trkpt lat="43.52113" lon="6.60184">
        <ele>108.29</ele>
        <time>2019-01-29T13:49:08Z</time>
      </trkpt>
      <trkpt lat="43.52109" lon="6.60185">
        <ele>108.29</ele>
        <time>2019-01-29T13:49:11Z</time>
      </trkpt>
      <trkpt lat="43.52096" lon="6.60186">
        <ele>109.25</ele>
        <time>2019-01-29T13:49:24Z</time>
      </trkpt>
      <trkpt lat="43.52084" lon="6.60188">
        <ele>110.69</ele>
        <time>2019-01-29T13:49:37Z</time>
      </trkpt>
      <trkpt lat="43.52077" lon="6.60188">
        <ele>111.65</ele>
        <time>2019-01-29T13:49:45Z</time>
      </trkpt>
      <trkpt lat="43.52073" lon="6.60187">
        <ele>112.13</ele>
        <time>2019-01-29T13:49:48Z</time>
      </trkpt>
      <trkpt lat="43.52054" lon="6.60182">
        <ele>111.17</ele>
        <time>2019-01-29T13:50:04Z</time>
      </trkpt>
      <trkpt lat="43.52038" lon="6.60186">
        <ele>110.69</ele>
        <time>2019-01-29T13:50:19Z</time>
      </trkpt>
      <trkpt lat="43.52033" lon="6.60186">
        <ele>110.21</ele>
        <time>2019-01-29T13:50:24Z</time>
      </trkpt>
      <trkpt lat="43.52017" lon="6.60178">
        <ele>109.73</ele>
        <time>2019-01-29T13:50:39Z</time>
      </trkpt>
      <trkpt lat="43.52008" lon="6.60169">
        <ele>108.77</ele>
        <time>2019-01-29T13:50:50Z</time>
      </trkpt>
      <trkpt lat="43.52004" lon="6.60159">
        <ele>107.81</ele>
        <time>2019-01-29T13:50:58Z</time>
      </trkpt>
      <trkpt lat="43.51996" lon="6.60141">
        <ele>108.29</ele>
        <time>2019-01-29T13:51:13Z</time>
      </trkpt>
      <trkpt lat="43.51991" lon="6.60129">
        <ele>106.84</ele>
        <time>2019-01-29T13:51:25Z</time>
      </trkpt>
      <trkpt lat="43.5199" lon="6.60127">
        <ele>106.84</ele>
        <time>2019-01-29T13:51:26Z</time>
      </trkpt>
      <trkpt lat="43.51987" lon="6.60123">
        <ele>106.36</ele>
        <time>2019-01-29T13:51:30Z</time>
      </trkpt>
      <trkpt lat="43.5198" lon="6.60111">
        <ele>105.88</ele>
        <time>2019-01-29T13:51:43Z</time>
      </trkpt>
      <trkpt lat="43.51967" lon="6.601">
        <ele>105.4</ele>
        <time>2019-01-29T13:51:57Z</time>
      </trkpt>
      <trkpt lat="43.51965" lon="6.60098">
        <ele>105.4</ele>
        <time>2019-01-29T13:52:00Z</time>
      </trkpt>
      <trkpt lat="43.51952" lon="6.60085">
        <ele>104.92</ele>
        <time>2019-01-29T13:52:14Z</time>
      </trkpt>
      <trkpt lat="43.51941" lon="6.60074">
        <ele>104.44</ele>
        <time>2019-01-29T13:52:28Z</time>
      </trkpt>
      <trkpt lat="43.51939" lon="6.6007">
        <ele>104.44</ele>
        <time>2019-01-29T13:52:42Z</time>
      </trkpt>
      <trkpt lat="43.51926" lon="6.60065">
        <ele>104.44</ele>
        <time>2019-01-29T13:52:55Z</time>
      </trkpt>
      <trkpt lat="43.5191" lon="6.60065">
        <ele>104.44</ele>
        <time>2019-01-29T13:53:10Z</time>
      </trkpt>
      <trkpt lat="43.51907" lon="6.60064">
        <ele>103.96</ele>
        <time>2019-01-29T13:53:22Z</time>
      </trkpt>
      <trkpt lat="43.51902" lon="6.60067">
        <ele>104.44</ele>
        <time>2019-01-29T13:53:30Z</time>
      </trkpt>
      <trkpt lat="43.51887" lon="6.60074">
        <ele>104.44</ele>
        <time>2019-01-29T13:53:43Z</time>
      </trkpt>
      <trkpt lat="43.51875" lon="6.60078">
        <ele>103.48</ele>
        <time>2019-01-29T13:53:56Z</time>
      </trkpt>
      <trkpt lat="43.51862" lon="6.6008">
        <ele>103</ele>
        <time>2019-01-29T13:54:09Z</time>
      </trkpt>
      <trkpt lat="43.51856" lon="6.6008">
        <ele>102.52</ele>
        <time>2019-01-29T13:54:15Z</time>
      </trkpt>
      <trkpt lat="43.51845" lon="6.60083">
        <ele>101.56</ele>
        <time>2019-01-29T13:54:27Z</time>
      </trkpt>
      <trkpt lat="43.51842" lon="6.60082">
        <ele>101.56</ele>
        <time>2019-01-29T13:54:30Z</time>
      </trkpt>
      <trkpt lat="43.5183" lon="6.60082">
        <ele>100.6</ele>
        <time>2019-01-29T13:54:43Z</time>
      </trkpt>
      <trkpt lat="43.51816" lon="6.6008">
        <ele>99.63</ele>
        <time>2019-01-29T13:54:57Z</time>
      </trkpt>
      <trkpt lat="43.51799" lon="6.60079">
        <ele>97.71</ele>
        <time>2019-01-29T13:55:13Z</time>
      </trkpt>
      <trkpt lat="43.51785" lon="6.60079">
        <ele>96.27</ele>
        <time>2019-01-29T13:55:26Z</time>
      </trkpt>
      <trkpt lat="43.51772" lon="6.60078">
        <ele>94.83</ele>
        <time>2019-01-29T13:55:38Z</time>
      </trkpt>
      <trkpt lat="43.51755" lon="6.60076">
        <ele>93.39</ele>
        <time>2019-01-29T13:55:53Z</time>
      </trkpt>
      <trkpt lat="43.51742" lon="6.60078">
        <ele>92.42</ele>
        <time>2019-01-29T13:56:05Z</time>
      </trkpt>
      <trkpt lat="43.51732" lon="6.60076">
        <ele>91.94</ele>
        <time>2019-01-29T13:56:15Z</time>
      </trkpt>
      <trkpt lat="43.51724" lon="6.60076">
        <ele>91.46</ele>
        <time>2019-01-29T13:56:23Z</time>
      </trkpt>
      <trkpt lat="43.51709" lon="6.60073">
        <ele>90.98</ele>
        <time>2019-01-29T13:56:36Z</time>
      </trkpt>
      <trkpt lat="43.51697" lon="6.60073">
        <ele>90.98</ele>
        <time>2019-01-29T13:56:47Z</time>
      </trkpt>
      <trkpt lat="43.51677" lon="6.6007">
        <ele>90.02</ele>
        <time>2019-01-29T13:57:05Z</time>
      </trkpt>
      <trkpt lat="43.51663" lon="6.60066">
        <ele>90.02</ele>
        <time>2019-01-29T13:57:17Z</time>
      </trkpt>
      <trkpt lat="43.5165" lon="6.60065">
        <ele>90.5</ele>
        <time>2019-01-29T13:57:29Z</time>
      </trkpt>
      <trkpt lat="43.51647" lon="6.60064">
        <ele>90.02</ele>
        <time>2019-01-29T13:57:32Z</time>
      </trkpt>
      <trkpt lat="43.51631" lon="6.6007">
        <ele>90.02</ele>
        <time>2019-01-29T13:57:46Z</time>
      </trkpt>
      <trkpt lat="43.51616" lon="6.60069">
        <ele>90.5</ele>
        <time>2019-01-29T13:58:00Z</time>
      </trkpt>
      <trkpt lat="43.51597" lon="6.60067">
        <ele>90.5</ele>
        <time>2019-01-29T13:58:17Z</time>
      </trkpt>
      <trkpt lat="43.51586" lon="6.60068">
        <ele>90.98</ele>
        <time>2019-01-29T13:58:28Z</time>
      </trkpt>
      <trkpt lat="43.51571" lon="6.60068">
        <ele>90.98</ele>
        <time>2019-01-29T13:58:41Z</time>
      </trkpt>
      <trkpt lat="43.51556" lon="6.60067">
        <ele>91.46</ele>
        <time>2019-01-29T13:58:54Z</time>
      </trkpt>
      <trkpt lat="43.51539" lon="6.60068">
        <ele>92.42</ele>
        <time>2019-01-29T13:59:09Z</time>
      </trkpt>
      <trkpt lat="43.51537" lon="6.60068">
        <ele>92.9</ele>
        <time>2019-01-29T13:59:11Z</time>
      </trkpt>
      <trkpt lat="43.51519" lon="6.60066">
        <ele>93.87</ele>
        <time>2019-01-29T13:59:25Z</time>
      </trkpt>
      <trkpt lat="43.51517" lon="6.60066">
        <ele>94.35</ele>
        <time>2019-01-29T13:59:28Z</time>
      </trkpt>
      <trkpt lat="43.51502" lon="6.60059">
        <ele>94.83</ele>
        <time>2019-01-29T13:59:41Z</time>
      </trkpt>
      <trkpt lat="43.51491" lon="6.60048">
        <ele>94.35</ele>
        <time>2019-01-29T13:59:53Z</time>
      </trkpt>
      <trkpt lat="43.5148" lon="6.60036">
        <ele>93.87</ele>
        <time>2019-01-29T14:00:06Z</time>
      </trkpt>
      <trkpt lat="43.51469" lon="6.60022">
        <ele>92.9</ele>
        <time>2019-01-29T14:00:20Z</time>
      </trkpt>
      <trkpt lat="43.51456" lon="6.60007">
        <ele>92.42</ele>
        <time>2019-01-29T14:00:33Z</time>
      </trkpt>
      <trkpt lat="43.51447" lon="6.59998">
        <ele>91.94</ele>
        <time>2019-01-29T14:00:43Z</time>
      </trkpt>
      <trkpt lat="43.51434" lon="6.59989">
        <ele>91.94</ele>
        <time>2019-01-29T14:00:58Z</time>
      </trkpt>
      <trkpt lat="43.51422" lon="6.59986">
        <ele>91.94</ele>
        <time>2019-01-29T14:01:09Z</time>
      </trkpt>
      <trkpt lat="43.51403" lon="6.59995">
        <ele>91.46</ele>
        <time>2019-01-29T14:01:26Z</time>
      </trkpt>
      <trkpt lat="43.51393" lon="6.60006">
        <ele>91.46</ele>
        <time>2019-01-29T14:01:38Z</time>
      </trkpt>
      <trkpt lat="43.51381" lon="6.60023">
        <ele>90.98</ele>
        <time>2019-01-29T14:01:52Z</time>
      </trkpt>
      <trkpt lat="43.51377" lon="6.60027">
        <ele>90.98</ele>
        <time>2019-01-29T14:01:57Z</time>
      </trkpt>
      <trkpt lat="43.51366" lon="6.60043">
        <ele>90.5</ele>
        <time>2019-01-29T14:02:12Z</time>
      </trkpt>
      <trkpt lat="43.5136" lon="6.60056">
        <ele>90.5</ele>
        <time>2019-01-29T14:02:23Z</time>
      </trkpt>
      <trkpt lat="43.51357" lon="6.60063">
        <ele>90.02</ele>
        <time>2019-01-29T14:02:32Z</time>
      </trkpt>
      <trkpt lat="43.51353" lon="6.60064">
        <ele>90.02</ele>
        <time>2019-01-29T14:02:42Z</time>
      </trkpt>
      <trkpt lat="43.51355" lon="6.60064">
        <ele>90.02</ele>
        <time>2019-01-29T14:02:44Z</time>
      </trkpt>
      <trkpt lat="43.51359" lon="6.60067">
        <ele>90.02</ele>
        <time>2019-01-29T14:02:48Z</time>
      </trkpt>
      <trkpt lat="43.51359" lon="6.60073">
        <ele>90.02</ele>
        <time>2019-01-29T14:02:52Z</time>
      </trkpt>
      <trkpt lat="43.51362" lon="6.60091">
        <ele>89.54</ele>
        <time>2019-01-29T14:03:05Z</time>
      </trkpt>
      <trkpt lat="43.51367" lon="6.601">
        <ele>89.06</ele>
        <time>2019-01-29T14:03:17Z</time>
      </trkpt>
      <trkpt lat="43.51367" lon="6.60101">
        <ele>89.06</ele>
        <time>2019-01-29T14:03:30Z</time>
      </trkpt>
      <trkpt lat="43.51366" lon="6.60098">
        <ele>89.06</ele>
        <time>2019-01-29T14:03:43Z</time>
      </trkpt>
      <trkpt lat="43.51365" lon="6.60096">
        <ele>89.06</ele>
        <time>2019-01-29T14:03:49Z</time>
      </trkpt>
      <trkpt lat="43.5136" lon="6.60082">
        <ele>89.54</ele>
        <time>2019-01-29T14:04:00Z</time>
      </trkpt>
      <trkpt lat="43.51359" lon="6.60076">
        <ele>89.54</ele>
        <time>2019-01-29T14:04:04Z</time>
      </trkpt>
      <trkpt lat="43.51353" lon="6.60068">
        <ele>90.02</ele>
        <time>2019-01-29T14:04:13Z</time>
      </trkpt>
      <trkpt lat="43.5135" lon="6.60066">
        <ele>89.54</ele>
        <time>2019-01-29T14:04:16Z</time>
      </trkpt>
      <trkpt lat="43.51348" lon="6.60067">
        <ele>89.54</ele>
        <time>2019-01-29T14:04:18Z</time>
      </trkpt>
      <trkpt lat="43.51339" lon="6.60077">
        <ele>89.06</ele>
        <time>2019-01-29T14:04:30Z</time>
      </trkpt>
      <trkpt lat="43.51329" lon="6.60088">
        <ele>89.06</ele>
        <time>2019-01-29T14:04:40Z</time>
      </trkpt>
      <trkpt lat="43.51319" lon="6.60097">
        <ele>88.58</ele>
        <time>2019-01-29T14:04:50Z</time>
      </trkpt>
      <trkpt lat="43.51309" lon="6.60108">
        <ele>88.1</ele>
        <time>2019-01-29T14:05:01Z</time>
      </trkpt>
      <trkpt lat="43.51304" lon="6.60119">
        <ele>87.62</ele>
        <time>2019-01-29T14:05:11Z</time>
      </trkpt>
      <trkpt lat="43.51304" lon="6.6012">
        <ele>88.1</ele>
        <time>2019-01-29T14:05:12Z</time>
      </trkpt>
      <trkpt lat="43.51304" lon="6.60126">
        <ele>87.62</ele>
        <time>2019-01-29T14:05:16Z</time>
      </trkpt>
      <trkpt lat="43.51309" lon="6.60138">
        <ele>88.1</ele>
        <time>2019-01-29T14:05:25Z</time>
      </trkpt>
      <trkpt lat="43.51311" lon="6.60142">
        <ele>88.1</ele>
        <time>2019-01-29T14:05:28Z</time>
      </trkpt>
      <trkpt lat="43.51319" lon="6.60155">
        <ele>88.1</ele>
        <time>2019-01-29T14:05:39Z</time>
      </trkpt>
      <trkpt lat="43.51324" lon="6.60164">
        <ele>87.62</ele>
        <time>2019-01-29T14:05:49Z</time>
      </trkpt>
      <trkpt lat="43.51324" lon="6.60165">
        <ele>87.62</ele>
        <time>2019-01-29T14:05:51Z</time>
      </trkpt>
      <trkpt lat="43.51329" lon="6.60176">
        <ele>86.66</ele>
        <time>2019-01-29T14:06:03Z</time>
      </trkpt>
      <trkpt lat="43.51331" lon="6.60185">
        <ele>85.69</ele>
        <time>2019-01-29T14:06:11Z</time>
      </trkpt>
      <trkpt lat="43.51332" lon="6.60191">
        <ele>85.21</ele>
        <time>2019-01-29T14:06:14Z</time>
      </trkpt>
      <trkpt lat="43.51332" lon="6.60204">
        <ele>84.25</ele>
        <time>2019-01-29T14:06:23Z</time>
      </trkpt>
      <trkpt lat="43.51331" lon="6.60209">
        <ele>84.25</ele>
        <time>2019-01-29T14:06:26Z</time>
      </trkpt>
      <trkpt lat="43.51328" lon="6.60225">
        <ele>83.77</ele>
        <time>2019-01-29T14:06:37Z</time>
      </trkpt>
      <trkpt lat="43.51326" lon="6.60238">
        <ele>83.29</ele>
        <time>2019-01-29T14:06:47Z</time>
      </trkpt>
      <trkpt lat="43.51319" lon="6.60248">
        <ele>83.29</ele>
        <time>2019-01-29T14:06:57Z</time>
      </trkpt>
      <trkpt lat="43.51319" lon="6.60256">
        <ele>83.29</ele>
        <time>2019-01-29T14:07:08Z</time>
      </trkpt>
      <trkpt lat="43.51318" lon="6.60258">
        <ele>83.29</ele>
        <time>2019-01-29T14:07:21Z</time>
      </trkpt>
      <trkpt lat="43.51319" lon="6.60258">
        <ele>83.29</ele>
        <time>2019-01-29T14:07:35Z</time>
      </trkpt>
      <trkpt lat="43.51319" lon="6.60258">
        <ele>83.29</ele>
        <time>2019-01-29T14:07:53Z</time>
      </trkpt>
      <trkpt lat="43.51319" lon="6.60258">
        <ele>83.29</ele>
        <time>2019-01-29T14:08:20Z</time>
      </trkpt>
      <trkpt lat="43.5132" lon="6.60256">
        <ele>83.29</ele>
        <time>2019-01-29T14:08:38Z</time>
      </trkpt>
      <trkpt lat="43.5132" lon="6.60256">
        <ele>83.29</ele>
        <time>2019-01-29T14:08:59Z</time>
      </trkpt>
      <trkpt lat="43.5132" lon="6.60254">
        <ele>83.29</ele>
        <time>2019-01-29T14:09:19Z</time>
      </trkpt>
      <trkpt lat="43.5132" lon="6.60255">
        <ele>83.29</ele>
        <time>2019-01-29T14:09:44Z</time>
      </trkpt>
      <trkpt lat="43.5132" lon="6.60254">
        <ele>83.29</ele>
        <time>2019-01-29T14:10:06Z</time>
      </trkpt>
      <trkpt lat="43.5132" lon="6.60254">
        <ele>83.29</ele>
        <time>2019-01-29T14:10:29Z</time>
      </trkpt>
      <trkpt lat="43.5132" lon="6.60254">
        <ele>83.29</ele>
        <time>2019-01-29T14:10:51Z</time>
      </trkpt>
      <trkpt lat="43.5132" lon="6.60254">
        <ele>83.29</ele>
        <time>2019-01-29T14:11:12Z</time>
      </trkpt>
      <trkpt lat="43.5132" lon="6.60254">
        <ele>82.81</ele>
        <time>2019-01-29T14:11:38Z</time>
      </trkpt>
      <trkpt lat="43.5132" lon="6.60254">
        <ele>82.81</ele>
        <time>2019-01-29T14:12:01Z</time>
      </trkpt>
      <trkpt lat="43.5132" lon="6.60254">
        <ele>82.81</ele>
        <time>2019-01-29T14:12:21Z</time>
      </trkpt>
      <trkpt lat="43.51314" lon="6.60255">
        <ele>82.81</ele>
        <time>2019-01-29T14:12:32Z</time>
      </trkpt>
      <trkpt lat="43.51308" lon="6.60256">
        <ele>82.81</ele>
        <time>2019-01-29T14:12:38Z</time>
      </trkpt>
      <trkpt lat="43.51296" lon="6.60255">
        <ele>83.29</ele>
        <time>2019-01-29T14:12:49Z</time>
      </trkpt>
      <trkpt lat="43.51286" lon="6.60257">
        <ele>82.81</ele>
        <time>2019-01-29T14:13:00Z</time>
      </trkpt>
      <trkpt lat="43.51278" lon="6.60258">
        <ele>82.81</ele>
        <time>2019-01-29T14:13:12Z</time>
      </trkpt>
      <trkpt lat="43.51276" lon="6.60254">
        <ele>83.29</ele>
        <time>2019-01-29T14:13:23Z</time>
      </trkpt>
      <trkpt lat="43.51278" lon="6.60246">
        <ele>83.29</ele>
        <time>2019-01-29T14:13:37Z</time>
      </trkpt>
      <trkpt lat="43.51276" lon="6.60233">
        <ele>84.25</ele>
        <time>2019-01-29T14:13:48Z</time>
      </trkpt>
      <trkpt lat="43.51277" lon="6.60225">
        <ele>84.73</ele>
        <time>2019-01-29T14:13:54Z</time>
      </trkpt>
      <trkpt lat="43.51277" lon="6.60212">
        <ele>85.21</ele>
        <time>2019-01-29T14:14:04Z</time>
      </trkpt>
      <trkpt lat="43.51276" lon="6.60195">
        <ele>86.18</ele>
        <time>2019-01-29T14:14:16Z</time>
      </trkpt>
      <trkpt lat="43.51274" lon="6.60184">
        <ele>86.18</ele>
        <time>2019-01-29T14:14:26Z</time>
      </trkpt>
      <trkpt lat="43.51272" lon="6.60177">
        <ele>86.18</ele>
        <time>2019-01-29T14:14:31Z</time>
      </trkpt>
      <trkpt lat="43.51264" lon="6.60169">
        <ele>86.18</ele>
        <time>2019-01-29T14:14:43Z</time>
      </trkpt>
      <trkpt lat="43.51258" lon="6.60168">
        <ele>86.18</ele>
        <time>2019-01-29T14:14:49Z</time>
      </trkpt>
      <trkpt lat="43.5125" lon="6.60173">
        <ele>86.18</ele>
        <time>2019-01-29T14:15:02Z</time>
      </trkpt>
      <trkpt lat="43.51247" lon="6.60174">
        <ele>85.69</ele>
        <time>2019-01-29T14:15:06Z</time>
      </trkpt>
      <trkpt lat="43.51239" lon="6.60182">
        <ele>86.66</ele>
        <time>2019-01-29T14:15:16Z</time>
      </trkpt>
      <trkpt lat="43.51229" lon="6.60191">
        <ele>85.21</ele>
        <time>2019-01-29T14:15:27Z</time>
      </trkpt>
      <trkpt lat="43.51216" lon="6.602">
        <ele>84.73</ele>
        <time>2019-01-29T14:15:40Z</time>
      </trkpt>
      <trkpt lat="43.512" lon="6.60211">
        <ele>84.73</ele>
        <time>2019-01-29T14:15:54Z</time>
      </trkpt>
      <trkpt lat="43.5119" lon="6.60217">
        <ele>83.77</ele>
        <time>2019-01-29T14:16:05Z</time>
      </trkpt>
      <trkpt lat="43.51176" lon="6.60222">
        <ele>83.29</ele>
        <time>2019-01-29T14:16:18Z</time>
      </trkpt>
      <trkpt lat="43.51165" lon="6.60227">
        <ele>82.81</ele>
        <time>2019-01-29T14:16:30Z</time>
      </trkpt>
      <trkpt lat="43.51149" lon="6.60232">
        <ele>82.33</ele>
        <time>2019-01-29T14:16:44Z</time>
      </trkpt>
      <trkpt lat="43.51137" lon="6.60239">
        <ele>82.33</ele>
        <time>2019-01-29T14:16:55Z</time>
      </trkpt>
      <trkpt lat="43.51122" lon="6.60246">
        <ele>81.85</ele>
        <time>2019-01-29T14:17:10Z</time>
      </trkpt>
      <trkpt lat="43.51106" lon="6.60253">
        <ele>81.37</ele>
        <time>2019-01-29T14:17:24Z</time>
      </trkpt>
      <trkpt lat="43.51093" lon="6.60256">
        <ele>81.37</ele>
        <time>2019-01-29T14:17:36Z</time>
      </trkpt>
      <trkpt lat="43.51074" lon="6.6025">
        <ele>81.37</ele>
        <time>2019-01-29T14:17:51Z</time>
      </trkpt>
      <trkpt lat="43.51061" lon="6.60242">
        <ele>81.37</ele>
        <time>2019-01-29T14:18:03Z</time>
      </trkpt>
      <trkpt lat="43.51052" lon="6.60231">
        <ele>81.37</ele>
        <time>2019-01-29T14:18:14Z</time>
      </trkpt>
      <trkpt lat="43.51041" lon="6.60218">
        <ele>81.37</ele>
        <time>2019-01-29T14:18:27Z</time>
      </trkpt>
      <trkpt lat="43.51034" lon="6.60209">
        <ele>80.89</ele>
        <time>2019-01-29T14:18:35Z</time>
      </trkpt>
      <trkpt lat="43.51025" lon="6.60193">
        <ele>80.41</ele>
        <time>2019-01-29T14:18:48Z</time>
      </trkpt>
      <trkpt lat="43.51013" lon="6.60182">
        <ele>79.45</ele>
        <time>2019-01-29T14:19:01Z</time>
      </trkpt>
      <trkpt lat="43.51" lon="6.60169">
        <ele>77.52</ele>
        <time>2019-01-29T14:19:15Z</time>
      </trkpt>
      <trkpt lat="43.50989" lon="6.60158">
        <ele>76.08</ele>
        <time>2019-01-29T14:19:28Z</time>
      </trkpt>
      <trkpt lat="43.5098" lon="6.6015">
        <ele>75.6</ele>
        <time>2019-01-29T14:19:38Z</time>
      </trkpt>
      <trkpt lat="43.50974" lon="6.60133">
        <ele>74.64</ele>
        <time>2019-01-29T14:19:51Z</time>
      </trkpt>
      <trkpt lat="43.5097" lon="6.60114">
        <ele>73.68</ele>
        <time>2019-01-29T14:20:05Z</time>
      </trkpt>
      <trkpt lat="43.50967" lon="6.60096">
        <ele>72.72</ele>
        <time>2019-01-29T14:20:17Z</time>
      </trkpt>
      <trkpt lat="43.50962" lon="6.60074">
        <ele>71.76</ele>
        <time>2019-01-29T14:20:33Z</time>
      </trkpt>
      <trkpt lat="43.50959" lon="6.60057">
        <ele>70.31</ele>
        <time>2019-01-29T14:20:45Z</time>
      </trkpt>
      <trkpt lat="43.50957" lon="6.60054">
        <ele>70.31</ele>
        <time>2019-01-29T14:20:48Z</time>
      </trkpt>
      <trkpt lat="43.50953" lon="6.60046">
        <ele>69.83</ele>
        <time>2019-01-29T14:20:52Z</time>
      </trkpt>
      <trkpt lat="43.50949" lon="6.60039">
        <ele>69.83</ele>
        <time>2019-01-29T14:20:56Z</time>
      </trkpt>
      <trkpt lat="43.50937" lon="6.60034">
        <ele>69.35</ele>
        <time>2019-01-29T14:21:08Z</time>
      </trkpt>
      <trkpt lat="43.50922" lon="6.60026">
        <ele>69.83</ele>
        <time>2019-01-29T14:21:22Z</time>
      </trkpt>
      <trkpt lat="43.50914" lon="6.60023">
        <ele>69.83</ele>
        <time>2019-01-29T14:21:28Z</time>
      </trkpt>
      <trkpt lat="43.5091" lon="6.60021">
        <ele>70.31</ele>
        <time>2019-01-29T14:21:31Z</time>
      </trkpt>
      <trkpt lat="43.50897" lon="6.60018">
        <ele>71.27</ele>
        <time>2019-01-29T14:21:43Z</time>
      </trkpt>
      <trkpt lat="43.50886" lon="6.60016">
        <ele>72.72</ele>
        <time>2019-01-29T14:21:55Z</time>
      </trkpt>
      <trkpt lat="43.50876" lon="6.60011">
        <ele>74.16</ele>
        <time>2019-01-29T14:22:05Z</time>
      </trkpt>
      <trkpt lat="43.50867" lon="6.60005">
        <ele>74.64</ele>
        <time>2019-01-29T14:22:15Z</time>
      </trkpt>
      <trkpt lat="43.50853" lon="6.59997">
        <ele>75.6</ele>
        <time>2019-01-29T14:22:29Z</time>
      </trkpt>
      <trkpt lat="43.50841" lon="6.59991">
        <ele>75.6</ele>
        <time>2019-01-29T14:22:41Z</time>
      </trkpt>
      <trkpt lat="43.50827" lon="6.59985">
        <ele>75.12</ele>
        <time>2019-01-29T14:22:55Z</time>
      </trkpt>
      <trkpt lat="43.50816" lon="6.59983">
        <ele>74.64</ele>
        <time>2019-01-29T14:23:06Z</time>
      </trkpt>
      <trkpt lat="43.50805" lon="6.5998">
        <ele>75.6</ele>
        <time>2019-01-29T14:23:17Z</time>
      </trkpt>
      <trkpt lat="43.50794" lon="6.5998">
        <ele>74.16</ele>
        <time>2019-01-29T14:23:29Z</time>
      </trkpt>
      <trkpt lat="43.50782" lon="6.59978">
        <ele>73.68</ele>
        <time>2019-01-29T14:23:40Z</time>
      </trkpt>
      <trkpt lat="43.50772" lon="6.59981">
        <ele>73.68</ele>
        <time>2019-01-29T14:23:51Z</time>
      </trkpt>
      <trkpt lat="43.5077" lon="6.59979">
        <ele>73.2</ele>
        <time>2019-01-29T14:23:59Z</time>
      </trkpt>
      <trkpt lat="43.50767" lon="6.59979">
        <ele>73.2</ele>
        <time>2019-01-29T14:24:11Z</time>
      </trkpt>
      <trkpt lat="43.50766" lon="6.5998">
        <ele>73.2</ele>
        <time>2019-01-29T14:24:22Z</time>
      </trkpt>
      <trkpt lat="43.50765" lon="6.59981">
        <ele>73.2</ele>
        <time>2019-01-29T14:24:37Z</time>
      </trkpt>
      <trkpt lat="43.50765" lon="6.59983">
        <ele>73.2</ele>
        <time>2019-01-29T14:24:47Z</time>
      </trkpt>
      <trkpt lat="43.50765" lon="6.59983">
        <ele>73.2</ele>
        <time>2019-01-29T14:25:00Z</time>
      </trkpt>
      <trkpt lat="43.50765" lon="6.59983">
        <ele>72.24</ele>
        <time>2019-01-29T14:25:13Z</time>
      </trkpt>
    </trkseg>
  </trk>
</gpx>